[[{"header":{"parameterUnit":"m.s-1","parameterCategory":1,"la1":30.6,"la2":29.2853,"lo1":-89.7004,"lo2":-87.6739,"dy":0.0162,"dx":0.0183,"nx":112,"ny":82,"refTime":"2023-10-18T06:00:00:Z","depth":0,"parameterNumber":2,"parameterNumberName":"U-component_of_WINDS"},"data":[0.0,0.0,0.0,0.0,0.0,0.0,0.0,0.0,0.0,0.0,0.0,0.0,0.0,0.0,0.0,0.0,0.0,0.0,0.0,0.0,0.0,0.0,0.0,0.0,0.0,0.0,0.0,0.0,0.0,0.0,0.0,0.0,0.0,0.0,0.0,0.0,0.0,0.0,0.0,0.0,0.0,0.0,0.0,0.0,0.0,0.0,0.0,0.0,0.0,0.0,0.0,0.0,0.0,0.0,0.0,0.0,0.0,0.0,0.0,0.0,0.0,0.0,0.0,0.0,0.0,0.0,0.0,0.0,0.0,0.0,0.0,0.0,0.0,0.0,0.0,0.0,0.0,0.0,0.0,0.0,0.0,0.0,0.0,0.0,0.0,0.0,0.0,0.0,0.0,0.0,0.0,-3.6789,-4.0077,-4.2061,-4.197,-4.0888,-3.8395,-3.4094,0.0,0.0,0.0,0.0,0.0,0.0,0.0,0.0,0.0,0.0,0.0,0.0,0.0,0.0,0.0,0.0,0.0,0.0,0.0,0.0,0.0,0.0,0.0,0.0,0.0,0.0,0.0,0.0,0.0,0.0,0.0,0.0,0.0,0.0,0.0,0.0,0.0,0.0,0.0,0.0,0.0,0.0,0.0,0.0,0.0,0.0,0.0,0.0,0.0,0.0,0.0,0.0,0.0,0.0,0.0,0.0,0.0,0.0,0.0,0.0,0.0,0.0,0.0,0.0,0.0,0.0,0.0,0.0,0.0,0.0,0.0,0.0,0.0,0.0,0.0,0.0,0.0,0.0,0.0,0.0,0.0,0.0,0.0,0.0,0.0,0.0,0.0,0.0,0.0,0.0,0.0,0.0,0.0,0.0,0.0,0.0,0.0,0.0,0.0,0.0,0.0,0.0,0.0,0.0,-3.5403,-3.9828,-4.1375,-4.2019,-4.1823,-3.9817,-3.7338,-3.4486,0.0,0.0,0.0,0.0,0.0,0.0,0.0,0.0,0.0,0.0,0.0,0.0,0.0,0.0,0.0,0.0,0.0,0.0,0.0,0.0,0.0,0.0,0.0,0.0,0.0,0.0,0.0,0.0,0.0,0.0,0.0,0.0,0.0,0.0,0.0,0.0,0.0,0.0,0.0,0.0,0.0,0.0,0.0,0.0,0.0,0.0,0.0,0.0,0.0,0.0,0.0,0.0,0.0,0.0,0.0,0.0,0.0,0.0,0.0,0.0,0.0,0.0,0.0,0.0,0.0,0.0,0.0,0.0,0.0,0.0,0.0,0.0,0.0,0.0,0.0,0.0,0.0,0.0,0.0,0.0,0.0,0.0,0.0,0.0,0.0,0.0,0.0,0.0,0.0,0.0,0.0,0.0,0.0,0.0,0.0,0.0,0.0,0.0,0.0,0.0,0.0,0.0,0.0,-3.367,-3.6264,-3.9873,-4.0896,-4.0919,-3.9988,-3.8028,-3.5609,-3.2718,-3.1598,0.0,0.0,0.0,0.0,0.0,0.0,0.0,0.0,0.0,0.0,0.0,0.0,0.0,0.0,0.0,0.0,0.0,0.0,0.0,0.0,0.0,0.0,0.0,0.0,0.0,0.0,0.0,0.0,0.0,0.0,0.0,0.0,0.0,0.0,0.0,0.0,0.0,0.0,0.0,0.0,0.0,0.0,0.0,0.0,0.0,0.0,0.0,0.0,0.0,0.0,0.0,0.0,0.0,0.0,0.0,0.0,0.0,0.0,0.0,0.0,0.0,0.0,0.0,0.0,0.0,0.0,0.0,0.0,0.0,0.0,0.0,0.0,0.0,0.0,0.0,0.0,0.0,0.0,0.0,0.0,0.0,0.0,0.0,0.0,0.0,0.0,0.0,0.0,0.0,0.0,0.0,0.0,0.0,0.0,0.0,0.0,0.0,0.0,0.0,0.0,0.0,0.0,-3.546,-3.6629,-3.9292,-4.0023,-3.9788,-3.8355,-3.6313,-3.3992,-3.1342,-2.9713,0.0,0.0,0.0,0.0,0.0,0.0,0.0,0.0,0.0,0.0,0.0,0.0,0.0,0.0,0.0,0.0,0.0,0.0,0.0,0.0,0.0,0.0,0.0,0.0,0.0,0.0,0.0,0.0,0.0,0.0,0.0,0.0,0.0,0.0,0.0,0.0,0.0,0.0,0.0,0.0,0.0,0.0,0.0,0.0,0.0,0.0,0.0,0.0,0.0,0.0,0.0,0.0,0.0,0.0,0.0,0.0,0.0,0.0,0.0,0.0,0.0,0.0,0.0,0.0,0.0,0.0,0.0,0.0,0.0,0.0,0.0,0.0,0.0,0.0,0.0,0.0,0.0,0.0,0.0,0.0,0.0,0.0,0.0,0.0,0.0,0.0,0.0,0.0,0.0,0.0,0.0,0.0,0.0,0.0,0.0,0.0,0.0,0.0,0.0,0.0,0.0,0.0,-3.4247,-3.5993,-3.9194,-3.9564,-3.9142,-3.8093,-3.5217,-3.2995,-3.1821,-2.887,0.0,0.0,0.0,0.0,0.0,0.0,0.0,0.0,0.0,0.0,0.0,0.0,0.0,0.0,0.0,0.0,0.0,0.0,0.0,0.0,0.0,0.0,0.0,0.0,0.0,0.0,0.0,0.0,0.0,0.0,0.0,0.0,0.0,0.0,0.0,0.0,0.0,0.0,0.0,0.0,0.0,0.0,0.0,0.0,0.0,0.0,0.0,0.0,0.0,0.0,0.0,0.0,0.0,0.0,0.0,0.0,0.0,0.0,0.0,0.0,0.0,0.0,0.0,0.0,0.0,0.0,0.0,0.0,0.0,0.0,0.0,0.0,0.0,0.0,0.0,0.0,0.0,0.0,0.0,0.0,0.0,0.0,0.0,0.0,0.0,0.0,0.0,0.0,0.0,0.0,0.0,0.0,0.0,0.0,0.0,0.0,0.0,0.0,0.0,0.0,0.0,0.0,-3.2946,-3.4839,0.0,-3.7807,-3.7434,-3.6521,-3.4022,-3.1688,-2.9816,0.0,0.0,0.0,0.0,0.0,0.0,0.0,0.0,0.0,0.0,0.0,0.0,0.0,0.0,0.0,0.0,0.0,0.0,0.0,0.0,0.0,0.0,0.0,0.0,0.0,0.0,0.0,0.0,0.0,0.0,0.0,0.0,0.0,0.0,0.0,0.0,0.0,0.0,0.0,0.0,0.0,0.0,0.0,0.0,0.0,0.0,0.0,0.0,0.0,0.0,0.0,0.0,0.0,0.0,0.0,0.0,0.0,0.0,0.0,0.0,0.0,0.0,0.0,0.0,0.0,0.0,0.0,0.0,0.0,0.0,0.0,0.0,0.0,0.0,0.0,0.0,0.0,0.0,0.0,0.0,0.0,0.0,0.0,0.0,0.0,0.0,0.0,0.0,0.0,0.0,0.0,0.0,0.0,0.0,0.0,0.0,0.0,0.0,0.0,0.0,0.0,0.0,-2.9989,-3.1792,-3.3711,0.0,-3.6265,-3.5841,-3.4488,-3.2487,-3.0318,-2.8094,0.0,0.0,0.0,0.0,0.0,0.0,0.0,0.0,0.0,0.0,0.0,0.0,0.0,0.0,0.0,0.0,0.0,0.0,0.0,0.0,0.0,0.0,0.0,0.0,0.0,0.0,0.0,0.0,0.0,0.0,0.0,0.0,0.0,0.0,0.0,0.0,0.0,0.0,0.0,0.0,0.0,0.0,0.0,0.0,0.0,0.0,0.0,0.0,0.0,0.0,0.0,0.0,0.0,0.0,0.0,0.0,0.0,0.0,0.0,0.0,0.0,0.0,0.0,0.0,0.0,0.0,0.0,0.0,0.0,0.0,0.0,0.0,0.0,0.0,0.0,0.0,0.0,0.0,0.0,0.0,0.0,0.0,0.0,0.0,0.0,0.0,0.0,0.0,0.0,0.0,0.0,0.0,0.0,0.0,0.0,0.0,0.0,0.0,0.0,0.0,0.0,0.0,-2.9162,-3.0905,-3.2609,-3.4213,-3.5031,-3.4523,-3.2208,-3.0595,-2.8935,0.0,0.0,0.0,0.0,0.0,0.0,0.0,0.0,0.0,0.0,0.0,0.0,0.0,0.0,0.0,0.0,0.0,0.0,0.0,0.0,0.0,0.0,0.0,0.0,0.0,0.0,0.0,0.0,0.0,0.0,0.0,0.0,0.0,0.0,0.0,0.0,0.0,0.0,0.0,0.0,0.0,0.0,0.0,0.0,0.0,0.0,0.0,0.0,0.0,0.0,0.0,0.0,0.0,0.0,0.0,0.0,0.0,0.0,0.0,0.0,0.0,0.0,0.0,0.0,0.0,0.0,0.0,0.0,0.0,0.0,0.0,0.0,0.0,0.0,0.0,0.0,0.0,0.0,0.0,0.0,0.0,0.0,0.0,0.0,0.0,0.0,0.0,0.0,0.0,0.0,0.0,0.0,0.0,0.0,0.0,0.0,0.0,0.0,0.0,0.0,0.0,0.0,0.0,-2.7998,-2.9454,-3.1304,-3.3977,-3.3546,-3.2728,-3.1942,-2.992,-2.7994,-2.6322,0.0,0.0,0.0,0.0,0.0,0.0,0.0,0.0,0.0,0.0,0.0,0.0,0.0,0.0,0.0,0.0,0.0,0.0,0.0,0.0,0.0,0.0,0.0,0.0,0.0,0.0,0.0,0.0,0.0,0.0,0.0,0.0,0.0,0.0,0.0,0.0,0.0,0.0,0.0,0.0,0.0,0.0,0.0,0.0,0.0,0.0,0.0,0.0,0.0,0.0,0.0,0.0,0.0,0.0,0.0,0.0,0.0,0.0,0.0,0.0,0.0,0.0,0.0,0.0,0.0,0.0,0.0,0.0,0.0,0.0,0.0,0.0,0.0,0.0,0.0,0.0,0.0,0.0,0.0,0.0,0.0,0.0,0.0,0.0,0.0,0.0,0.0,0.0,0.0,0.0,0.0,0.0,0.0,0.0,0.0,0.0,0.0,0.0,0.0,0.0,0.0,0.0,-2.6825,-2.8152,-2.9816,-3.2081,-3.1823,-3.1061,-3.0006,-2.8612,-2.7002,-2.5047,0.0,0.0,0.0,0.0,0.0,0.0,0.0,0.0,0.0,0.0,0.0,0.0,0.0,0.0,0.0,0.0,0.0,0.0,0.0,0.0,0.0,0.0,0.0,0.0,0.0,0.0,0.0,0.0,0.0,0.0,0.0,0.0,0.0,0.0,0.0,0.0,0.0,0.0,0.0,0.0,0.0,0.0,0.0,0.0,0.0,0.0,0.0,0.0,0.0,0.0,0.0,0.0,0.0,0.0,0.0,0.0,0.0,0.0,0.0,0.0,0.0,0.0,0.0,0.0,0.0,0.0,0.0,0.0,0.0,0.0,0.0,0.0,0.0,0.0,0.0,0.0,0.0,0.0,0.0,0.0,0.0,0.0,0.0,0.0,0.0,0.0,0.0,0.0,0.0,0.0,0.0,0.0,0.0,0.0,0.0,0.0,0.0,0.0,0.0,0.0,0.0,0.0,-2.5586,-2.6876,-2.8117,-2.93,-2.9989,-2.9489,-2.7274,-2.6965,-2.5894,-2.3629,0.0,0.0,0.0,0.0,0.0,0.0,0.0,0.0,0.0,0.0,0.0,0.0,0.0,0.0,0.0,0.0,0.0,0.0,0.0,0.0,0.0,0.0,0.0,0.0,0.0,0.0,0.0,0.0,0.0,0.0,0.0,0.0,0.0,0.0,0.0,0.0,0.0,0.0,0.0,0.0,0.0,0.0,0.0,0.0,0.0,0.0,0.0,0.0,0.0,0.0,0.0,0.0,0.0,0.0,0.0,0.0,0.0,0.0,0.0,0.0,-3.3875,0.0,0.0,0.0,0.0,0.0,0.0,0.0,0.0,0.0,0.0,0.0,0.0,0.0,0.0,0.0,0.0,0.0,0.0,0.0,0.0,0.0,0.0,0.0,0.0,0.0,0.0,0.0,0.0,0.0,0.0,0.0,0.0,0.0,0.0,0.0,0.0,0.0,0.0,0.0,0.0,0.0,-2.433,-2.5309,-2.6639,-2.8648,-2.8237,-2.7569,-2.7089,-2.588,-2.4692,-2.3561,-2.3604,0.0,0.0,0.0,0.0,0.0,0.0,0.0,0.0,0.0,0.0,0.0,0.0,0.0,0.0,0.0,0.0,0.0,0.0,0.0,0.0,0.0,0.0,0.0,0.0,0.0,0.0,0.0,0.0,0.0,0.0,0.0,0.0,0.0,0.0,0.0,0.0,0.0,0.0,0.0,0.0,0.0,0.0,0.0,0.0,0.0,0.0,0.0,0.0,0.0,0.0,0.0,0.0,0.0,0.0,0.0,0.0,0.0,0.0,0.0,0.0,-3.495,0.0,0.0,0.0,0.0,0.0,0.0,0.0,0.0,0.0,0.0,0.0,0.0,0.0,0.0,0.0,0.0,0.0,0.0,0.0,0.0,0.0,0.0,0.0,0.0,0.0,0.0,0.0,0.0,0.0,0.0,0.0,0.0,0.0,0.0,0.0,0.0,0.0,0.0,0.0,0.0,-2.3635,-2.4261,-2.5329,-2.7372,-2.6911,-2.629,-2.5883,-2.4747,-2.3735,-2.2977,-2.2868,0.0,0.0,0.0,0.0,0.0,0.0,0.0,0.0,0.0,0.0,0.0,0.0,0.0,0.0,0.0,0.0,0.0,0.0,0.0,0.0,0.0,0.0,0.0,0.0,0.0,0.0,0.0,0.0,0.0,0.0,0.0,0.0,0.0,0.0,0.0,0.0,0.0,0.0,0.0,0.0,0.0,0.0,0.0,0.0,0.0,0.0,0.0,0.0,0.0,0.0,0.0,0.0,0.0,-4.3351,-4.3341,-4.2952,-4.2577,-4.1998,-4.1227,-3.9669,-3.8264,-3.6999,-3.6468,0.0,0.0,0.0,0.0,0.0,0.0,0.0,0.0,0.0,0.0,0.0,0.0,0.0,0.0,0.0,0.0,0.0,0.0,0.0,0.0,0.0,0.0,0.0,0.0,-2.8318,-2.7374,0.0,0.0,0.0,0.0,0.0,0.0,0.0,0.0,0.0,0.0,0.0,0.0,-2.3068,-2.3518,-2.4246,-2.5789,-2.5664,-2.5133,-2.4309,-2.3566,-2.2907,-2.2231,-2.2051,-2.1943,0.0,0.0,0.0,0.0,0.0,0.0,0.0,0.0,0.0,0.0,0.0,0.0,0.0,0.0,0.0,0.0,0.0,0.0,0.0,0.0,0.0,0.0,0.0,0.0,0.0,0.0,0.0,0.0,0.0,0.0,0.0,0.0,-3.6561,-3.8022,0.0,0.0,0.0,0.0,0.0,0.0,0.0,0.0,0.0,0.0,0.0,0.0,0.0,-4.3352,-4.4897,-4.6277,-4.6832,-4.6633,-4.7867,-4.7743,-4.6391,-4.5543,-4.4938,-4.4466,-4.4243,0.0,-3.6908,-3.7463,0.0,0.0,0.0,0.0,0.0,0.0,0.0,0.0,0.0,0.0,0.0,0.0,0.0,0.0,0.0,0.0,0.0,0.0,0.0,0.0,0.0,0.0,-2.8537,-2.702,-2.7132,-2.7086,0.0,-2.4642,-2.414,-2.3195,-2.2066,0.0,0.0,0.0,0.0,0.0,0.0,0.0,-2.2288,-2.2812,-2.3315,-2.4132,-2.3929,-2.3455,-2.2736,-2.2238,-2.1883,-2.1784,-2.1316,-2.1176,-2.1477,-2.0717,0.0,0.0,0.0,0.0,0.0,0.0,0.0,0.0,0.0,0.0,0.0,0.0,0.0,0.0,0.0,0.0,0.0,0.0,0.0,0.0,0.0,0.0,0.0,0.0,0.0,0.0,0.0,0.0,0.0,-3.6619,-3.7955,-3.7594,-3.8091,-3.8001,0.0,0.0,0.0,0.0,0.0,0.0,0.0,0.0,0.0,-4.609,-4.6952,-4.7916,-4.9064,-4.9989,-5.0267,-4.9932,-5.0687,-5.0694,-5.001,-4.919,-4.8511,-4.8019,-4.6878,-4.4536,-4.1385,-3.9982,-3.7703,-3.5031,0.0,0.0,0.0,0.0,-3.2928,-3.3235,-3.4202,-3.4214,0.0,-3.3154,0.0,0.0,0.0,0.0,0.0,0.0,0.0,0.0,0.0,0.0,-2.9648,-2.8845,-2.8889,-2.8935,-2.8319,-2.6743,-2.5073,0.0,-2.2813,-2.2066,-2.1505,0.0,0.0,0.0,0.0,-2.0659,-2.1593,-2.2086,-2.2588,-2.3285,-2.3219,-2.2916,-2.2443,-2.1981,-2.1738,-2.1694,-2.1229,-2.1105,-2.1401,-2.0623,-2.0613,0.0,0.0,0.0,0.0,0.0,0.0,0.0,0.0,0.0,0.0,0.0,0.0,0.0,0.0,0.0,0.0,0.0,0.0,0.0,0.0,0.0,0.0,0.0,0.0,0.0,0.0,0.0,0.0,-3.8201,-3.9426,-3.8326,-3.97,-4.0003,0.0,0.0,0.0,0.0,0.0,0.0,-4.4659,-4.6177,-4.798,-5.0103,-5.0948,-5.1692,-5.245,-5.2785,-5.2716,-5.2265,-5.2361,-5.2279,-5.2065,-5.1261,-5.0605,-4.9902,-4.8194,-4.6569,-4.4887,-4.2184,-3.9729,-3.7487,-3.5819,-3.5182,-3.5257,-3.5218,-3.5,-3.4955,-3.6454,-3.6429,-3.5576,-3.4565,-3.3894,-3.2866,-2.9547,0.0,0.0,0.0,0.0,-2.8467,-2.8248,-2.9166,-3.0212,-3.0381,-3.0289,-3.0074,-2.9735,-2.7934,-2.5975,0.0,-2.3628,-2.2886,-2.1771,0.0,0.0,0.0,0.0,-2.0551,-2.1229,-2.1541,-2.1941,-2.2445,-2.2469,-2.2313,-2.1856,-2.1584,-2.1448,-2.1355,-2.1119,-2.0975,-2.1087,-2.0462,-2.038,-2.1029,0.0,0.0,0.0,0.0,0.0,0.0,0.0,0.0,0.0,0.0,0.0,0.0,0.0,0.0,0.0,0.0,0.0,0.0,0.0,0.0,0.0,0.0,0.0,0.0,0.0,0.0,0.0,0.0,0.0,-4.2393,-4.4588,0.0,0.0,0.0,0.0,-4.431,-4.5274,-4.6531,-4.8173,-4.9728,-5.0986,-5.1927,-5.2691,-5.3451,-5.4259,-5.4231,-5.3777,-5.2949,-5.2754,-5.2271,-5.1521,-5.0569,-4.9705,-4.8829,-4.795,-4.6618,-4.4975,-4.336,-4.1745,-4.0077,-3.776,-3.7184,-3.7387,-3.5454,-3.5349,-3.6153,-3.5752,-3.4978,-3.43,-3.4921,-3.4003,-3.2332,-3.0619,-2.9748,0.0,0.0,-2.8394,-2.846,-2.9902,-2.9874,-2.9627,-3.0274,-2.9935,-2.9119,-2.7827,-2.6934,-2.6164,0.0,-2.4179,-2.2871,-2.1553,0.0,-2.1044,-2.0397,-2.0304,-2.0551,-2.1229,-2.1322,-2.1322,-2.1404,-2.1373,-2.108,-2.0277,-2.0426,-2.0545,-2.0478,-2.0679,-2.0646,-2.0277,-2.017,-1.9904,-1.9531,-1.9354,0.0,0.0,0.0,0.0,0.0,0.0,0.0,0.0,0.0,0.0,0.0,0.0,0.0,0.0,0.0,0.0,0.0,0.0,0.0,0.0,0.0,0.0,0.0,0.0,0.0,0.0,0.0,0.0,-4.4176,-4.6416,0.0,-4.5198,-4.5974,-4.6548,-4.648,-4.9164,-5.0856,-5.0931,-5.2447,-5.3666,-5.4449,-5.4735,-5.4984,-5.5179,-5.5163,-5.4559,-5.3388,-5.3308,-5.295,-5.2268,-5.1047,-5.0303,-4.9915,-4.8226,-4.685,-4.5712,-4.415,-4.2605,-4.1025,-3.9098,-3.8198,-3.7766,-3.6377,-3.6099,-3.6409,-3.6115,-3.5503,-3.468,-3.3814,-3.2366,-3.09,-3.0298,-2.9677,-2.9008,-2.8266,-2.8581,-2.9045,-2.8573,-2.9258,-2.9904,-2.9273,-2.8935,-2.8519,-2.7596,-2.6857,-2.618,-2.5456,-2.4225,-2.3009,-2.2086,-2.1615,-2.109,-2.0412,-2.0304,-2.0362,-2.0522,-2.0588,-2.0604,-2.0498,-2.0694,-2.064,-2.0076,-2.0308,-2.0276,-1.9789,-1.9626,-1.9559,-1.9562,-1.9189,-1.9135,-1.9413,-1.8885,-1.8644,0.0,0.0,0.0,0.0,0.0,0.0,0.0,0.0,0.0,0.0,0.0,0.0,0.0,0.0,0.0,0.0,0.0,0.0,0.0,0.0,0.0,0.0,0.0,0.0,0.0,0.0,-4.5769,-4.5525,-4.8169,-4.9169,-4.701,-4.8517,-4.9485,-4.9155,-5.1907,-5.3478,-5.3213,-5.4163,-5.4969,-5.547,-5.5404,-5.5319,-5.5232,-5.5074,-5.4429,-5.3407,-5.3244,-5.2926,-5.2361,-5.0874,-5.0169,-5.0013,-4.7961,-4.6604,-4.5765,-4.4729,-4.3395,-4.185,-4.0202,-3.9073,-3.8262,-3.737,-3.6793,-3.6468,-3.6067,-3.5439,-3.4513,-3.306,-3.1844,-3.0857,-3.0548,-3.0125,-2.9568,-2.8666,-2.8699,-2.8838,-2.7953,-2.8565,-2.9181,-2.8273,-2.8057,-2.7811,-2.6888,-2.6334,-2.5826,-2.5102,-2.4441,-2.3686,-2.2778,-2.207,-2.1507,-2.106,-2.0562,-2.0262,-2.0421,-2.0303,-2.0131,-2.0005,-2.0254,-2.0273,-1.9955,-2.0135,-1.9931,-1.9203,-1.8955,-1.8872,-1.9025,-1.8604,-1.872,-1.9413,-1.8629,-1.847,-1.9078,0.0,0.0,0.0,0.0,0.0,0.0,0.0,0.0,0.0,0.0,0.0,0.0,0.0,0.0,0.0,0.0,0.0,0.0,0.0,0.0,0.0,0.0,0.0,-4.1141,-4.4819,-4.7348,-4.671,-5.0038,-5.1239,-4.8239,-5.0038,-5.1695,-5.2474,-5.3347,-5.4154,-5.4863,-5.4829,-5.4799,-5.4799,-5.4603,-5.4505,-5.4505,-5.398,-5.3489,-5.3004,-5.2581,-5.2173,-5.1651,-4.9987,-4.9128,-4.8856,-4.7166,-4.591,-4.5062,-4.5062,-4.415,-4.2622,-4.1078,-3.9947,-3.8996,-3.8275,-3.7417,-3.6381,-3.5497,-3.4616,-3.3739,-3.2889,-3.2548,-3.2292,-3.1433,-3.1157,-3.0925,-2.9972,-2.8741,-2.7763,-2.8186,-2.7842,-2.7349,-2.7334,-2.7334,-2.6965,-2.558,-2.5287,-2.5087,-2.4441,-2.4841,-2.4856,-2.3533,-2.2732,-2.2286,-2.2255,-2.1044,0.0,-2.1002,-2.0457,-2.0021,-2.0036,-2.0036,-1.995,-1.9843,-1.9843,-1.9506,-1.8747,-1.8702,-1.8702,-1.8702,-1.8515,-1.872,-1.9376,-1.8644,-1.8499,-1.8993,0.0,0.0,0.0,0.0,0.0,0.0,0.0,0.0,0.0,0.0,0.0,0.0,0.0,0.0,0.0,0.0,0.0,0.0,0.0,0.0,0.0,0.0,-4.21,-4.3313,-4.6675,-4.922,-4.977,-5.1356,-5.2077,-5.1281,-5.2349,-5.3167,-5.3357,-5.4135,-5.4703,-5.4882,-5.4871,-5.486,-5.4799,-5.4736,-5.4654,-5.4505,-5.4334,-5.4016,-5.3489,-5.3065,-5.2298,-5.13,-4.9847,-4.8826,-4.8077,-4.6888,-4.5593,-4.422,-4.422,-4.3325,-4.1832,-4.0656,-3.9757,-3.8901,-3.7349,-3.6599,-3.6239,-3.5456,-3.4593,-3.3676,-3.2866,-3.2134,-3.1416,-3.0632,-3.0146,-2.958,-2.7932,-2.7329,-2.7047,-2.6329,-2.6411,-2.6534,-2.601,-2.5887,-2.5641,-2.4779,-2.4579,-2.4533,-2.4348,-2.4456,-2.4302,-2.3456,-2.2709,-2.2056,-2.1498,-2.0645,0.0,-2.0161,-2.0076,-2.0116,-2.0467,-2.0535,-2.0535,-2.0475,-2.0438,-1.9944,-1.8777,-1.8702,-1.8702,-1.8702,-1.8515,-1.8649,-1.9161,-1.8979,-1.8941,0.0,0.0,0.0,0.0,0.0,0.0,0.0,0.0,0.0,0.0,0.0,0.0,0.0,0.0,0.0,0.0,0.0,0.0,0.0,0.0,0.0,0.0,-4.1757,-4.4367,-4.6169,-4.8532,-5.0139,-5.0353,-5.1469,-5.2029,-5.1414,-5.2494,-5.3224,-5.3224,-5.4296,-5.4941,-5.4941,-5.4931,-5.4871,-5.486,-5.4799,-5.4736,-5.459,-5.4334,-5.4052,-5.3682,-5.3041,-5.2371,-5.1665,-4.9949,-4.8879,-4.8236,-4.6923,-4.547,-4.3904,-4.3904,-4.2798,0.0,0.0,0.0,0.0,0.0,-3.6444,-3.6333,-3.5842,-3.485,-3.3704,-3.3242,-3.2253,-3.1123,-3.0683,-2.9822,-2.8708,-2.7443,-2.6647,-2.5932,-2.5122,-2.541,-2.5764,-2.5056,-2.5118,-2.5133,-2.4456,-2.4087,-2.3887,-2.3887,-2.3656,0.0,-2.3222,-2.2631,-2.2171,-2.1996,-2.0816,-1.999,-2.024,-2.0029,-1.9999,-2.0243,-2.031,-2.0295,-2.0288,-2.0288,0.0,0.0,0.0,-1.8614,-1.8545,-1.8691,0.0,0.0,0.0,-1.9101,-1.9101,0.0,0.0,0.0,-1.738,-1.6976,0.0,0.0,0.0,0.0,0.0,0.0,0.0,0.0,0.0,0.0,0.0,0.0,0.0,0.0,0.0,0.0,-4.4463,-4.721,-4.8954,-5.0038,-5.0416,-4.974,-5.0948,-5.1374,-5.0194,-5.1301,-5.2266,-5.2688,-5.3964,-5.4791,-5.4981,0.0,0.0,0.0,0.0,-5.4767,-5.4723,-5.4193,-5.387,-5.3795,-5.2889,-5.2391,-5.2127,-5.0122,-4.9021,-4.8625,-4.7024,-4.5381,-4.3886,-4.3799,-4.2412,-4.034,-4.0253,-3.9684,-3.88,-3.723,-3.6602,-3.6461,-3.6318,0.0,0.0,-3.3789,-3.2627,-3.119,-3.119,-2.9923,-2.8345,-2.7907,-2.6407,-2.4854,-2.44,-2.4748,-2.5056,-2.4441,-2.4764,-2.501,-2.4333,-2.3717,-2.3271,-2.3194,-2.2701,-2.2432,-2.2913,-2.2485,-2.2286,-2.2958,-2.1258,-2.0113,-2.0692,-2.0272,-1.9884,-1.9809,0.0,0.0,-1.9809,-1.9794,-1.951,-1.8817,-1.8733,-1.8608,-1.8417,-1.8994,-1.9228,-1.9101,-1.9101,-1.9101,-1.9101,-1.8553,-1.8305,-1.8344,-1.7449,-1.7076,0.0,0.0,0.0,0.0,0.0,0.0,0.0,0.0,0.0,0.0,0.0,0.0,0.0,0.0,0.0,-4.323,-4.532,-4.726,-4.8893,-4.9859,-5.0635,-5.1256,-5.1129,-5.113,-5.1617,-5.0837,-5.1197,-5.3413,-5.3195,-5.3575,-5.4924,-5.5,-5.496,-5.4901,-5.4871,-5.486,-5.4767,-5.4654,-5.4519,-5.4334,0.0,0.0,-5.0991,-4.9801,-4.8496,-4.6997,-4.6094,-4.5017,-4.3851,-4.3272,-4.1639,-3.948,-3.8765,-3.7864,-3.6984,-3.6648,-3.6419,-3.6251,-3.6208,-3.5103,-3.3649,-3.3649,-3.253,-3.119,-3.119,-3.0059,0.0,-2.7973,-2.657,-2.5064,-2.4441,-2.441,-2.4471,-2.4333,-2.441,-2.4317,-2.364,-2.3394,-2.3132,-2.2594,-2.2355,-2.2248,-2.237,-2.1759,-2.1417,-2.1991,-2.1212,-2.0363,-1.9981,-2.076,-2.1111,-2.0572,-2.0991,-2.1042,-2.0399,-2.0355,-2.0035,-1.9302,-1.9258,-1.92,-1.9112,-1.9229,-1.9228,-1.9101,-1.9101,-1.9078,-1.9017,-1.8528,-1.8422,-1.8669,-1.7828,-1.7393,0.0,0.0,0.0,0.0,0.0,0.0,0.0,0.0,0.0,0.0,0.0,-3.8457,0.0,0.0,-4.3585,-4.5378,-4.666,-4.7854,-4.9121,-4.9888,-5.0362,-5.0449,-5.0904,-5.1292,-5.1431,-5.163,-5.2352,-5.3745,-5.3821,-5.4163,-5.5,-5.5028,-5.4971,-5.4901,-5.4901,-5.489,-5.4799,-5.4799,-5.4603,-5.4246,-5.3549,-5.2459,-5.1012,-4.9837,-4.8532,-4.7139,-4.5988,-4.4894,-4.3746,-4.185,-4.0375,-3.9157,-3.7901,-3.7079,-3.6602,-3.6544,-3.6402,-3.6251,-3.6208,-3.5103,-3.369,-3.3632,-3.249,-3.1123,-3.0768,-2.9546,-2.8143,-2.7412,-2.6059,-2.4733,-2.4394,-2.4302,-2.4302,-2.4302,-2.4015,-2.3651,-2.3314,-2.2661,-2.2041,-2.1705,-2.1347,-2.1188,-2.1432,-2.0894,-2.0609,-2.125,-2.0955,-2.0587,-2.0243,-2.1028,-2.1481,-2.1153,-2.1327,-2.1198,-2.0493,-2.0138,-1.979,-1.9369,-1.9339,-1.9302,-1.9176,-1.9176,-1.9176,-1.9101,-1.9078,-1.9017,-1.8993,-1.8659,-1.8567,-1.8736,-1.8214,-1.7922,0.0,0.0,0.0,0.0,0.0,0.0,0.0,0.0,-3.4053,-3.7256,-3.8861,-4.0291,-4.2319,-4.4281,-4.6012,-4.7271,-4.7994,-4.8675,-4.9445,-4.9928,-4.9959,-4.9276,-5.0754,-5.1705,-5.1355,-5.2605,-5.3642,-5.4131,-5.4607,-5.495,-5.5075,-5.5057,-5.4971,-5.4901,-5.4901,-5.4871,-5.4829,-5.4829,-5.4476,-5.3809,-5.3269,-5.2247,-5.09,-4.9636,-4.8532,-4.7541,-4.5935,-4.4558,-4.3237,-4.0463,-3.9305,-3.9122,-3.744,-3.6766,-3.6684,-3.6544,-3.6402,-3.6276,-3.6208,-3.5103,-3.3731,-3.359,-3.249,-3.1055,-3.0328,-2.9076,-2.7727,-2.686,-2.5576,-2.4385,-2.4302,-2.4302,-2.4317,-2.4261,-2.3836,-2.3335,-2.3075,-2.2026,-2.1113,-2.0877,-2.037,-2.0101,-2.0541,-2.0158,-2.0038,-2.0745,-2.076,-2.0669,-2.0669,-2.1277,-2.1613,-2.1495,-2.1503,-2.123,-2.0597,-1.995,-1.9493,-1.9455,-1.9324,-1.9213,-1.9101,-1.9101,-1.9101,-1.9101,-1.9017,-1.8993,-1.8941,-1.8803,-1.8673,-1.8673,-1.8503,-1.8333,-2.8605,-2.9275,-3.0115,-3.242,-3.236,-3.2943,0.0,0.0,-3.7452,-3.9392,-4.1208,-4.2718,-4.3573,-4.5703,-4.7609,-4.8395,-4.9029,-4.9495,-4.9654,-4.9566,-4.9527,-4.9532,-5.0992,-5.2297,-5.3123,-5.2778,-5.3252,-5.4928,-5.4478,-5.4413,-5.5056,-5.5094,-5.5028,-5.4901,-5.4901,-5.4901,-5.4871,-5.4871,-5.4289,-5.3091,-5.2512,-5.1195,-4.9228,-4.8623,-4.7825,-4.6784,-4.5039,-4.3339,-4.1727,-4.0024,-3.9305,-3.9122,-3.7376,-3.6702,-3.6684,-3.6544,-3.6377,-3.6165,-3.6079,-3.4959,-3.359,-3.3465,-3.2408,-3.1055,-3.0328,-2.9286,-2.8097,-2.6938,-2.5758,-2.4759,-2.4385,-2.4302,-2.4261,-2.4208,-2.4162,-2.3723,-2.25,-2.2056,-2.1561,-2.0416,-2.0,-1.9827,-1.9903,-1.9807,-1.9951,-2.0617,-2.0722,-2.0669,-2.0555,-2.1609,-2.2117,-2.1403,-2.186,-2.1907,-2.1167,-2.0444,-2.0026,-1.9986,-1.9473,-1.9101,-1.9101,-1.9101,-1.9101,-1.9101,-1.9017,-1.8941,-1.8822,-1.8736,-1.8634,-1.8517,-1.8358,-1.8305,-2.8623,-2.9969,-3.1213,0.0,-3.3104,-3.4892,-3.7331,-3.7721,-3.8194,-4.0501,-4.2027,-4.3365,-4.4652,-4.657,-4.8221,0.0,-4.961,-4.9993,-5.0078,-4.9386,-4.8749,-4.8361,-4.9778,-5.113,-5.202,-5.2798,-5.3601,-5.444,-5.4611,-5.4814,-5.5075,-5.5066,-5.5,-5.4901,-5.4901,-5.4901,-5.4901,-5.4841,-5.4137,-5.2677,-5.2249,-5.0867,-4.8692,-4.8343,-4.7155,-4.5301,-4.4463,-4.2916,-4.0902,-4.0253,-3.9445,-3.8509,-3.7755,-3.7167,-3.6643,-3.6444,-3.6318,-3.6233,-3.6062,-3.5019,-3.369,-3.3465,-3.2408,-3.097,-2.9803,-2.895,-2.8037,-2.6433,-2.5438,-2.4799,-2.441,-2.4302,-2.4261,-2.4208,-2.3819,-2.3229,-2.2137,-2.156,-2.0978,-2.005,-2.0113,-2.0325,-2.0325,-2.0288,-2.0378,-2.0677,-2.0616,-2.0697,-2.102,-2.1458,-2.1745,-2.1695,-2.1593,-2.1578,-2.1682,-2.1044,-2.0625,-2.0625,-2.0364,-2.0045,-1.9696,-1.9682,-1.9508,-1.9116,-1.8965,-1.8874,-1.8784,-1.8659,-1.8425,-1.8095,-1.8333,-1.8214,-2.8987,-3.0196,0.0,-3.1637,-3.3731,-3.5984,-3.7061,-3.7907,-3.8982,-4.0927,-4.2261,-4.3464,-4.471,-4.6555,0.0,-4.9084,-4.9644,-5.0021,-5.0104,-4.909,-4.8118,-4.7498,-4.8086,-4.8958,-5.002,-5.2178,-5.3655,-5.3982,-5.4509,-5.492,-5.5075,-5.5057,-5.4971,-5.4901,-5.4901,-5.4901,-5.4901,-5.4583,-5.3682,-5.2122,-5.1579,-5.0232,-4.8138,-4.7714,-4.6247,-4.3952,-4.3862,-4.2573,-4.0463,-4.0253,-3.934,-3.8053,-3.7737,-3.7271,-3.6661,-3.6402,-3.6301,-3.6259,-3.6062,-3.5002,-3.3748,-3.3507,-3.2408,-3.0954,-2.9555,-2.8774,-2.802,-2.615,-2.5281,-2.4799,-2.4385,-2.4276,-2.4234,-2.4124,-2.366,-2.299,-2.2229,-2.1503,-2.0782,-2.013,-2.0363,-2.0669,-2.0631,-2.078,-2.084,-2.0661,-2.065,-2.0877,-2.1366,-2.1424,-2.1551,-2.1946,-2.1569,-2.154,-2.2193,-2.1656,-2.1278,-2.1278,-2.109,-2.0799,-2.0364,-2.019,-1.987,-1.9391,-1.8999,-1.8784,-1.8784,-1.845,-1.8214,-1.8002,-1.8135,-1.8016,-2.9955,-2.9795,-3.0041,-3.3194,-3.4473,-3.5535,-3.7826,-3.9466,-4.0516,-4.0612,-4.2058,-4.3283,-4.3269,-4.533,-4.7356,-4.8373,-4.9088,-4.9514,-4.9442,-4.8548,-4.7805,-4.7523,-4.6106,-4.5803,0.0,-5.0594,-5.2954,-5.3925,-5.3968,-5.4275,-5.5056,-5.5057,-5.4971,-5.4901,-5.4901,-5.4901,-5.4901,-5.4008,-5.2728,-5.1139,-5.0138,-4.8821,-4.7196,-4.6275,-4.4867,-4.3138,-4.3138,-4.2123,-4.0411,-3.9656,-3.8866,-3.8,-3.7097,-3.6719,-3.6661,-3.6402,-3.6301,-3.6259,-3.6062,-3.5002,-3.3748,-3.3507,-3.2408,-3.096,-2.9776,-2.8942,-2.8042,-2.6349,-2.5424,-2.4799,-2.4317,-2.4208,-2.4124,-2.3882,-2.3782,-2.3571,-2.2923,-2.2194,-2.1509,-2.0896,-2.0715,-2.0669,-2.0555,-2.1035,-2.1228,-2.0513,-2.0852,-2.1222,-2.1304,-2.1695,-2.1975,-2.1989,-2.1975,-2.2222,-2.2815,-2.2338,-2.196,-2.196,-2.1351,-2.0988,-2.0973,-2.0407,-2.0088,-2.0074,-1.9229,-1.8784,-1.8784,-1.8147,-1.8055,-1.8478,-1.7814,-1.7774,-2.8929,-3.033,-3.1898,-3.3118,-3.4718,-3.6318,-3.7619,-3.8483,-3.9174,-3.9751,-3.9424,-3.9573,-4.1287,-4.2267,-4.3692,-4.641,-4.7887,-4.9126,-5.037,-4.9469,-4.8266,-4.7122,-4.6813,0.0,0.0,0.0,0.0,-5.2177,-5.324,-5.4201,-5.4971,-5.4971,-5.4931,-5.4901,-5.4901,-5.4761,-5.4482,-5.4152,-5.2895,-5.0816,-4.8958,-4.771,-4.7025,-4.6177,-4.5143,-4.3961,-4.2845,-4.1432,-3.9817,-3.9469,-3.855,-3.7391,-3.7393,-3.7119,-3.6661,-3.6402,-3.5966,-3.5469,-3.5326,-3.4567,-3.3564,-3.2872,-3.1985,-3.096,-2.9769,-2.9234,-2.8629,-2.6443,-2.5664,-2.5274,-2.43,-2.4082,-2.4024,-2.3839,-2.3797,-2.3616,-2.2885,-2.2544,-2.2158,-2.1391,-2.163,-2.1832,-2.1709,-2.1887,-2.1772,-2.1057,-2.1079,-2.117,-2.1126,-2.1625,-2.183,-2.138,-2.1728,-2.2077,-2.2294,-2.2497,-2.2584,-2.2584,-2.2366,-2.1902,-2.1032,-2.0799,-2.0306,-1.9449,-1.9013,-1.8784,-1.8784,-1.845,-1.8055,-1.7652,-1.7922,-1.7625,-3.0713,-3.2088,-3.3283,-3.402,-3.5442,-3.6759,-3.7192,-3.7802,-3.8246,-3.8171,-3.7478,-3.7317,-3.8694,-3.9182,-4.0524,-4.4042,-4.5739,-4.7326,-4.9317,-4.89,-4.8068,-4.7203,-4.6923,0.0,0.0,0.0,0.0,-5.0767,-5.2379,-5.3661,-5.4525,-5.476,-5.4901,-5.4901,-5.4901,-5.4761,-5.4468,-5.3699,-5.2084,-4.9633,-4.8005,-4.6955,-4.6534,-4.5749,-4.492,-4.397,-4.2622,-4.106,-3.9488,-3.9364,-3.8392,-3.704,-3.7271,-3.7102,-3.6661,-3.6402,-3.5983,-3.5427,-3.5027,-3.4175,-3.3114,-3.2483,-3.1782,-3.0971,-3.0028,-2.9395,-2.8697,-2.6957,-2.6018,-2.5339,-2.4496,-2.4303,-2.42,-2.3799,-2.3934,-2.3891,-2.3188,-2.2832,-2.2465,-2.1951,-2.2162,-2.2401,-2.226,-2.2232,-2.2088,-2.1843,-2.1624,-2.1376,-2.1032,-2.1541,-2.1787,-2.1352,-2.1455,-2.1614,-2.1831,-2.2279,-2.251,-2.251,-2.2772,-2.2424,-2.1394,-2.1119,-2.0509,-1.9411,-1.9013,-1.8784,-1.876,-1.8411,-1.7975,-1.7434,-1.7666,-1.7284,-3.4811,-3.4763,-3.4252,-3.5796,-3.6541,-3.6804,-3.6528,-3.737,-3.7728,-3.6026,-3.6172,-3.6389,0.0,0.0,-3.8035,-4.1477,-4.2991,-4.4517,-4.6796,-4.726,-4.7511,0.0,0.0,0.0,0.0,0.0,0.0,-4.9948,0.0,-5.2826,-5.3803,-5.4543,-5.4882,-5.4844,-5.4844,-5.4784,-5.4692,-5.2677,-5.0341,-4.7847,-4.7294,-4.6569,-4.5766,-4.4981,-4.4153,-4.3241,-4.2278,-4.099,-3.947,-3.9258,-3.8322,-3.6987,-3.6766,-3.6702,-3.6661,-3.6402,-3.6224,-3.5959,-3.5112,-3.385,-3.2519,-3.233,-3.1685,-3.0935,-3.0435,-2.9436,-2.8327,-2.7793,-2.6426,-2.5031,-2.4882,-2.4837,-2.4672,-2.3893,-2.4193,-2.4448,-2.3804,-2.3091,-2.2589,-2.2545,-2.2404,-2.2276,-2.2176,-2.2062,-2.2251,-2.2801,-2.2425,-2.1815,-2.1177,-2.1513,-2.1859,-2.1816,-2.1141,-2.0984,-2.1497,-2.17,-2.1816,-2.1816,-2.2496,-2.2613,-2.2019,-2.138,-2.07,-1.9944,-1.9233,-1.8817,-1.8729,-1.8095,-1.7787,-1.7747,-1.7089,-1.6795,-3.4165,-3.5465,-3.6392,-3.6057,-3.6327,-3.6575,-3.6157,-3.5789,-3.5533,-3.5427,-3.4017,-3.3122,0.0,0.0,0.0,-4.0671,-4.3548,0.0,-4.9588,-5.0391,0.0,0.0,0.0,-5.0019,-4.9883,-5.0239,0.0,0.0,-5.195,-5.311,-5.4601,-5.4857,-5.4676,-5.4029,-5.401,-5.3823,-5.3395,-5.1602,-5.0061,-4.8683,-4.7651,-4.6677,-4.5766,-4.4981,-4.4171,-4.3351,-4.1132,-3.9969,-3.9469,-3.8121,-3.7338,-3.6987,-3.6766,-3.6702,-3.6661,-3.6402,-3.5511,-3.4449,-3.4155,-3.3765,-3.3216,-3.2418,-3.1604,-3.0878,-3.0267,-2.9648,-2.8905,-2.7674,-2.6839,-2.6178,-2.5433,-2.5314,-2.5362,-2.5136,-2.5133,-2.5027,-2.4402,-2.4015,-2.3614,-2.3054,-2.2834,-2.2731,-2.2686,-2.2701,-2.27,-2.2873,-2.2727,-2.2538,-2.2364,-2.2449,-2.2318,-2.1728,-2.1483,-2.1269,-2.0955,-2.1355,-2.1626,-2.1626,-2.2376,-2.2538,-2.1888,-2.1787,-2.1381,-2.0592,-1.9907,-1.9487,-1.9367,-1.8302,-1.7585,-1.7201,-1.6921,-1.6582,-3.6627,-3.7791,-3.8408,-3.7538,-3.7616,-3.7346,-3.5192,-3.4793,-3.4508,-3.3283,-3.207,0.0,0.0,0.0,0.0,0.0,0.0,0.0,-4.8826,-5.0526,-5.1664,0.0,-5.2305,0.0,-5.1915,-5.1986,-5.2342,0.0,-5.3107,-5.348,-5.4411,-5.4781,-5.4752,-5.4238,-5.3878,-5.3112,-5.1855,-5.0843,-4.968,-4.8465,-4.7373,-4.6478,-4.5766,-4.4642,-4.385,-4.3291,0.0,-3.9916,-3.9428,-3.8051,-3.7286,-3.6987,-3.6766,-3.6702,-3.6661,-3.6402,-3.5683,-3.4912,-3.4787,-3.4218,-3.3303,-3.2015,-3.1271,-3.0773,-3.0326,-2.9837,-2.9223,-2.8155,-2.7439,-2.6801,-2.6042,-2.5905,-2.5878,-2.558,-2.5634,-2.5568,-2.4899,-2.4643,-2.4344,-2.3577,-2.34,-2.3267,-2.2946,-2.2888,-2.2902,-2.2872,-2.2841,-2.2749,-2.2644,-2.2629,-2.2441,-2.1993,-2.165,-2.1194,-2.0642,-2.1153,-2.1439,-2.1154,-2.2128,-2.2318,-2.1413,-2.1657,-2.1369,-2.0337,-1.9926,-1.9648,-1.9512,-1.8604,-1.7743,-1.6993,-1.6865,-1.6384,-4.0217,-4.0714,-4.039,-3.9513,-3.9422,-3.8502,-3.4426,-3.4226,-3.4003,-3.0828,0.0,0.0,-3.1123,0.0,-3.3871,-3.6644,0.0,-4.3227,-4.6656,-4.9254,-5.1373,-5.2979,-5.3261,-5.3579,-5.4205,-5.3538,-5.3709,-5.5288,-5.4512,-5.3983,-5.3983,-5.4562,-5.4806,-5.4579,-5.3897,-5.2507,-5.0434,-5.0281,-4.9399,-4.7838,-4.6858,-4.6152,-4.5588,-4.4161,-4.3344,-4.3045,-4.1357,0.0,-3.9417,-3.838,-3.7527,-3.6948,-3.6766,-3.6643,-3.6643,-3.6402,-3.6207,-3.6011,-3.5762,-3.4619,-3.3076,-3.1688,-3.0981,-3.0651,-3.0468,-2.9957,-2.9335,-2.8889,-2.8014,-2.7124,-2.6688,-2.6505,-2.6308,-2.5764,-2.5914,-2.6,-2.5258,-2.5005,-2.4694,-2.4007,-2.3891,-2.367,-2.312,-2.2946,-2.29,-2.2896,-2.2807,-2.2644,-2.2417,-2.2417,-2.237,-2.237,-2.1727,-2.1105,-2.0555,-2.1022,-2.1094,-2.0514,-2.1623,-2.1899,-2.0911,-2.1326,-2.1069,-1.9957,-1.979,-1.9639,-1.9433,-1.882,-1.7988,-1.6995,-1.6876,-1.6226,-4.1006,-4.205,-4.2285,-4.0655,-3.9835,-3.8653,-3.5695,-3.4137,0.0,0.0,0.0,-2.9935,-2.9984,-3.1462,0.0,-3.6532,0.0,0.0,0.0,0.0,-5.151,0.0,0.0,0.0,0.0,0.0,0.0,0.0,0.0,-5.4939,-5.4884,-5.4952,-5.4315,-5.2892,-5.2645,-5.1716,-4.9929,-5.0099,-4.9525,-4.8197,-4.6983,-4.5864,-4.4785,-4.3911,-4.3041,-4.221,-4.0547,0.0,-3.9365,-3.772,-3.6933,-3.6811,-3.6626,-3.6544,-3.6502,-3.6343,-3.5821,-3.5118,-3.4411,-3.3502,-3.2659,-3.2605,-3.1632,-3.0485,-3.0189,-2.9589,-2.8997,-2.9028,-2.8258,-2.736,-2.743,-2.7208,-2.6865,-2.6733,-2.6556,-2.6283,-2.564,-2.4963,-2.4339,-2.3817,-2.3735,-2.3706,-2.3591,-2.3172,-2.2968,-2.3316,-2.2851,-2.2477,-2.2417,-2.2417,-2.237,-2.2231,-2.1682,-2.1274,-2.1161,-2.0809,-2.0556,-2.0443,-2.0698,-2.1025,-2.1352,-2.1539,-2.1497,-2.121,-2.0642,-2.0104,-1.9584,-1.8591,-1.7676,-1.6917,-1.6582,-1.6158,-4.2402,-4.3649,-4.4129,-4.2819,-4.1492,-3.9493,-3.5527,0.0,0.0,0.0,0.0,-2.9472,-2.9227,0.0,0.0,0.0,0.0,0.0,0.0,0.0,0.0,0.0,0.0,0.0,0.0,0.0,0.0,0.0,0.0,-5.5203,-5.5149,-5.4657,-5.3775,-5.2438,-5.1973,-5.1102,-4.9807,-4.945,-4.8758,-4.7684,-4.6175,-4.4965,-4.4018,-4.3233,-4.2406,-4.1464,-4.0175,0.0,-3.8783,-3.7381,-3.6788,-3.6788,-3.6585,-3.6502,-3.6485,-3.636,-3.5993,-3.5463,-3.5078,-3.4312,-3.3432,-3.3021,-3.1848,-3.0593,-3.0647,-2.9939,-2.9059,-2.8732,-2.8125,-2.7509,-2.7372,-2.713,-2.6899,-2.6899,-2.6606,-2.624,-2.6007,-2.5588,-2.5137,-2.4662,-2.4324,-2.3995,-2.365,-2.3091,-2.2729,-2.2922,-2.2615,-2.237,-2.2324,-2.2324,-2.2278,-2.2231,-2.1963,-2.1654,-2.1344,-2.1299,-2.1187,-2.0878,-2.0879,-2.0953,-2.0996,-2.0996,-2.084,-2.0514,-2.0119,-1.9809,-1.9601,-1.8713,-1.7784,-1.6883,-1.6658,-1.6127,-4.2668,-4.4277,-4.5247,-4.4518,-4.2737,-3.9968,-3.5271,-3.3624,0.0,0.0,0.0,-2.9378,-2.9014,0.0,0.0,0.0,0.0,0.0,0.0,0.0,0.0,0.0,0.0,0.0,0.0,0.0,0.0,0.0,0.0,0.0,-5.4909,-5.4039,-5.3091,-5.22,-5.1547,-5.0761,-4.9835,-4.89,-4.8028,-4.724,-4.5458,-4.4252,-4.3507,-4.2483,-4.1675,-4.0948,-3.9855,0.0,0.0,-3.7224,-3.6788,-3.6748,-3.6585,-3.6502,-3.6444,-3.6343,-3.6174,-3.6002,-3.5848,-3.5086,-3.4028,-3.3205,-3.1991,-3.0925,-3.1013,-3.0251,-2.9243,-2.8638,-2.811,-2.7595,-2.7218,-2.6922,-2.6712,-2.6674,-2.634,-2.6111,-2.6179,-2.6111,-2.5926,-2.5408,-2.4895,-2.4398,-2.3871,-2.3174,-2.2719,-2.2767,-2.254,-2.2324,-2.2231,-2.2184,-2.2184,-2.2184,-2.2184,-2.1988,-2.1541,-2.1837,-2.1823,-2.1344,-2.1062,-2.0767,-2.05,-2.0302,-1.9992,-1.9567,-1.9349,-1.9293,-1.9279,-1.8565,-1.7756,-1.6914,-1.6739,-1.6063,-3.9976,-4.2433,-4.4811,-4.4465,-4.211,-3.9057,-3.5896,0.0,0.0,0.0,-2.9343,-2.9761,-2.9802,-3.0948,0.0,0.0,0.0,0.0,0.0,0.0,0.0,0.0,0.0,0.0,0.0,0.0,0.0,0.0,0.0,0.0,-5.3971,-5.3136,-5.2246,-5.1429,-5.1271,-5.0789,-4.9898,-4.9021,-4.8187,-4.7361,-4.5561,-4.429,-4.3537,-4.1935,-4.1118,-4.0913,-3.9284,0.0,0.0,-3.7224,-3.6748,-3.6702,-3.6544,-3.6444,-3.6301,-3.6301,-3.6174,-3.5873,-3.5207,-3.4363,-3.3465,-3.3158,-3.2383,-3.1328,-3.0408,-2.9802,-2.9425,-2.912,-2.8415,-2.768,-2.7479,-2.7019,-2.6472,-2.6218,-2.6056,-2.5893,-2.5948,-2.5948,-2.5711,-2.505,-2.4882,-2.4826,-2.4769,-2.3814,-2.3252,-2.385,-2.2963,-2.2231,-2.2184,-2.2184,-2.2184,-2.2184,-2.2184,-2.2156,-2.21,-2.1682,-2.1372,-2.1316,-2.0217,-1.9838,-2.0372,-1.9838,-1.946,-1.9431,-1.9058,-1.8607,-1.814,-1.7523,-1.7164,-1.6987,-1.6431,-1.5995,-3.8226,-4.1904,-4.5388,-4.378,-4.139,-3.8804,-3.6288,0.0,0.0,-2.9033,-2.9305,-2.9905,-2.999,-3.1017,-3.2372,0.0,0.0,0.0,0.0,0.0,0.0,0.0,0.0,0.0,0.0,0.0,0.0,0.0,0.0,0.0,-5.2495,-5.212,-5.1699,-5.1296,-5.0776,-5.0066,-4.9178,-4.8291,-4.7202,-4.5916,-4.462,-4.3616,-4.2915,-4.1649,-4.0802,-4.0281,-3.9039,0.0,0.0,-3.7071,-3.6748,-3.6702,-3.6544,-3.6402,-3.6301,-3.6233,-3.6148,-3.5941,-3.5564,-3.5128,-3.4547,-3.3349,-3.2717,-3.216,-3.1101,-2.9942,-2.8982,-2.8685,-2.7929,-2.7167,-2.7115,-2.6736,-2.6312,-2.6165,-2.6002,-2.5893,-2.5784,-2.5784,-2.5659,-2.5313,-2.4952,-2.4634,-2.4634,-2.3673,-2.295,-2.32,-2.2491,-2.1949,-2.1949,-2.2044,-2.2044,-2.1996,-2.2044,-2.2091,-2.2091,-2.1774,-2.1574,-2.1574,-2.0782,-2.0267,-2.0156,-1.96,-1.9126,-1.8735,-1.8358,-1.8133,-1.8004,-1.7325,-1.6854,-1.6573,-1.616,-1.5913,-3.6028,-3.9966,-4.3896,-4.2786,-4.0029,-3.7194,0.0,0.0,0.0,-2.8755,-2.9251,-2.999,-3.0164,-3.1342,-3.2571,0.0,0.0,0.0,0.0,0.0,0.0,0.0,0.0,0.0,0.0,0.0,0.0,0.0,0.0,0.0,0.0,-5.1171,-5.1078,-5.0995,-5.0107,-4.9352,-4.8757,-4.756,-4.6328,-4.5055,-4.4059,-4.3138,-4.2289,-4.1286,-4.0402,-3.9656,-3.864,0.0,0.0,-3.7009,-3.6829,-3.6702,-3.6602,-3.6444,-3.6301,-3.6208,-3.6122,-3.5975,-3.5861,-3.5576,-3.5036,-3.345,-3.2767,-3.238,-3.1303,-3.008,-2.9028,-2.8638,-2.778,-2.6959,-2.6765,-2.65,-2.6286,-2.6111,-2.6002,-2.5893,-2.5784,-2.5784,-2.5729,-2.5592,-2.5176,-2.4818,-2.4777,-2.4,-2.3294,-2.3294,-2.2782,-2.2394,-2.2394,-2.2443,-2.2374,-2.2083,-2.2118,-2.2096,-2.1963,-2.1841,-2.1793,-2.1793,-2.1227,-2.0633,-2.0069,-1.9683,-1.9058,-1.8161,-1.7963,-1.7763,-1.754,-1.6819,-1.6416,-1.6268,-1.5799,-1.5589,-3.3033,-3.5896,-3.939,-4.156,-3.7806,-3.3577,0.0,0.0,0.0,-2.859,-2.9287,-3.0079,-3.0351,-3.1922,-3.3447,-3.4274,0.0,0.0,0.0,0.0,0.0,0.0,0.0,0.0,0.0,0.0,0.0,0.0,0.0,0.0,0.0,-5.0321,-5.0278,-5.0207,-4.9302,-4.8808,-4.8789,-4.7087,-4.5884,-4.5188,-4.4257,-4.3133,-4.1867,-4.0652,-3.9805,0.0,0.0,0.0,0.0,-3.7147,-3.693,-3.6702,-3.6702,-3.6544,-3.6301,-3.6208,-3.6122,-3.5975,-3.5861,-3.522,-3.4344,-3.3386,-3.2519,-3.1589,-3.0563,-3.0119,-2.987,-2.9273,-2.8304,-2.7363,-2.6654,-2.6418,-2.6286,-2.6111,-2.6002,-2.5893,-2.5893,-2.5893,-2.5839,-2.5729,-2.5674,-2.5674,-2.5481,-2.5064,-2.4794,-2.4794,-2.4225,-2.3784,-2.3784,-2.3682,-2.333,-2.276,-2.2592,-2.2309,-2.1848,-2.1793,-2.1793,-2.1793,-2.1227,-2.0678,-2.0199,-2.0172,-1.9446,-1.7855,-1.8004,-1.7588,-1.6522,-1.5824,-1.5739,-1.6185,-1.5291,-1.4789,-2.8693,-3.2191,-3.6239,-3.5191,-3.3554,-3.2231,-3.2441,0.0,0.0,-2.8705,-2.9351,-3.0253,-3.1127,-3.1918,-3.3077,-3.499,-3.6222,0.0,0.0,0.0,0.0,0.0,0.0,0.0,0.0,0.0,0.0,0.0,0.0,0.0,0.0,-4.9809,-4.9457,-4.9387,-4.9066,-4.8308,-4.7099,-4.6518,-4.5563,-4.4302,-4.3569,-4.2786,-4.1918,-4.0531,-3.978,0.0,0.0,0.0,0.0,-3.7243,-3.697,-3.6748,-3.6742,-3.6602,-3.6402,-3.6165,-3.6036,-3.5975,-3.5756,-3.5442,-3.4964,-3.3466,-3.2696,-3.2078,-3.0522,-2.9798,-2.9335,-2.8288,-2.775,-2.7363,-2.6654,-2.6418,-2.6286,-2.6111,-2.5948,-2.5729,-2.5647,-2.5522,-2.5397,-2.523,-2.5286,-2.5342,-2.53,-2.4847,-2.4448,-2.4448,-2.3603,-2.3114,-2.3527,-2.3193,-2.2862,-2.2647,-2.2101,-2.1724,-2.1678,-2.1568,-2.152,-2.152,-2.1438,-2.1148,-2.0557,-2.0393,-1.9831,-1.8933,-1.8007,-1.7384,-1.703,-1.5993,-1.5461,-1.5291,-1.5299,-1.5199,0.0,-2.9677,-3.2538,-3.225,-3.1023,0.0,0.0,0.0,0.0,0.0,-2.9528,-3.0378,-3.1139,-3.1693,-3.2603,-3.44,0.0,0.0,0.0,0.0,0.0,0.0,0.0,0.0,0.0,0.0,0.0,0.0,0.0,0.0,0.0,-4.8996,-4.8512,-4.8121,-4.8029,-4.7462,-4.6349,-4.5514,-4.4613,-4.3647,-4.2837,-4.2103,-4.1433,-4.0351,-3.9755,0.0,0.0,0.0,0.0,-3.7356,-3.7009,-3.6766,-3.6742,-3.6602,-3.6402,-3.6105,-3.6019,-3.5924,-3.5372,-3.5172,-3.4846,-3.3131,-3.216,-3.1473,-3.0293,-2.977,-2.9289,-2.8158,-2.775,-2.75,-2.6669,-2.6326,-2.6179,-2.6002,-2.5839,-2.5688,-2.555,-2.5369,-2.53,-2.5188,-2.53,-2.5342,-2.53,-2.5094,-2.4901,-2.4751,-2.4163,-2.3809,-2.4094,-2.3751,-2.3319,-2.309,-2.262,-2.2099,-2.174,-2.1448,-2.1326,-2.1326,-2.152,-2.1247,-2.0495,-2.0556,-2.01,-1.8943,-1.8091,-1.7401,-1.6962,-1.5966,-1.5255,-1.4915,-1.5056,-1.5023,0.0,0.0,0.0,0.0,0.0,0.0,0.0,0.0,0.0,0.0,0.0,0.0,0.0,-3.1394,-3.2193,-3.3125,0.0,0.0,0.0,0.0,0.0,0.0,0.0,0.0,0.0,0.0,0.0,0.0,0.0,0.0,-4.8046,-4.793,-4.7468,-4.6546,-4.6383,-4.6313,-4.6302,-4.4348,-4.3288,-4.3182,-4.2034,-4.1185,-4.0592,-4.0197,-3.9694,0.0,0.0,0.0,0.0,-3.7485,-3.7105,-3.6742,-3.6702,-3.6544,-3.6301,-3.6105,-3.6019,-3.5873,-3.4847,-3.4489,-3.4209,-3.2488,-3.1182,-3.0162,-2.9946,-2.9858,-2.9621,-2.8591,-2.8192,-2.7784,-2.6578,-2.6179,-2.6002,-2.5784,-2.5674,-2.5633,-2.5494,-2.5494,-2.5439,-2.5439,-2.5578,-2.5619,-2.5494,-2.5702,-2.5743,-2.5494,-2.5494,-2.5425,-2.523,-2.4964,-2.4552,-2.3958,-2.3767,-2.3218,-2.2005,-2.1506,-2.1233,-2.118,-2.1471,-2.1165,-2.0207,-2.0775,-2.0223,-1.8257,-1.8157,-1.7538,-1.6314,-1.5671,-1.5211,-1.4915,-1.4708,-1.4534,-2.8715,0.0,-2.8769,-2.8801,0.0,0.0,0.0,0.0,0.0,0.0,0.0,0.0,0.0,0.0,0.0,0.0,0.0,0.0,0.0,0.0,0.0,0.0,0.0,0.0,0.0,0.0,0.0,0.0,0.0,0.0,-4.801,-4.7376,-4.6588,-4.5706,-4.5014,-4.4934,-4.5475,-4.4277,-4.354,-4.3262,-4.1982,-4.1122,-4.0652,-4.0115,-3.9744,0.0,0.0,0.0,-3.818,-3.7826,-3.7394,-3.6908,-3.6766,-3.6643,-3.6561,-3.6148,-3.6019,-3.5873,-3.4847,-3.4445,-3.4061,-3.223,-3.0968,-3.0146,-2.9814,-2.9441,-2.8997,-2.8448,-2.7849,-2.7174,-2.6486,-2.6111,-2.5893,-2.5729,-2.5508,-2.5286,-2.53,-2.5188,-2.5131,-2.5131,-2.523,-2.5286,-2.53,-2.5342,-2.5342,-2.53,-2.5189,-2.5119,-2.5061,-2.4874,-2.4517,-2.3959,-2.3635,-2.3001,-2.1875,-2.183,-2.1713,-2.1207,-2.1471,-2.1342,-2.0793,-2.0644,-2.0192,-1.9422,-1.8093,-1.6883,-1.569,-1.5336,-1.5074,-1.4891,-1.4706,-1.4474,-2.9132,-2.919,-2.9121,-2.9481,-2.9546,-2.9679,0.0,0.0,0.0,0.0,0.0,0.0,0.0,0.0,0.0,0.0,0.0,0.0,0.0,0.0,0.0,0.0,0.0,0.0,0.0,0.0,0.0,0.0,0.0,-4.6234,-4.5778,-4.53,-4.4822,-4.4307,-4.3847,-4.3733,-4.4052,-4.3025,-4.2473,-4.238,-4.1131,-4.0461,-4.0354,-3.9989,-3.9758,0.0,0.0,0.0,-3.848,-3.818,-3.7685,-3.7185,-3.7009,-3.6788,-3.6561,-3.6208,-3.6062,-3.5822,-3.4542,-3.3499,-3.2622,-3.1499,-3.0688,-3.0146,-2.9842,-2.9319,-2.8748,-2.8543,-2.7997,-2.7312,-2.6654,-2.615,-2.5729,-2.5508,-2.5342,-2.5174,-2.5118,-2.5061,-2.5005,-2.5005,-2.5118,-2.523,-2.53,-2.5369,-2.5383,-2.5383,-2.516,-2.4978,-2.4989,-2.4749,-2.4477,-2.4175,-2.3526,-2.2738,-2.1681,-2.186,-2.176,-2.1171,-2.1375,-2.1313,-2.0944,-2.056,-1.9991,-1.9078,-1.782,-1.6728,-1.589,-1.5337,-1.5038,-1.4987,-1.4668,-1.443,-2.9748,-2.9841,-3.0222,-3.1426,-3.1284,-3.0942,0.0,0.0,0.0,0.0,0.0,0.0,0.0,0.0,0.0,0.0,0.0,0.0,0.0,0.0,0.0,0.0,0.0,0.0,0.0,0.0,0.0,0.0,0.0,-4.3959,-4.3166,-4.3127,-4.3022,-4.2842,-4.2823,-4.2676,-4.2374,-4.1521,-4.1171,-4.1296,-4.0204,-3.9804,-3.9996,-3.987,-3.9781,-3.9689,0.0,0.0,-3.8556,-3.8204,-3.7731,-3.7179,-3.7029,-3.6808,-3.6502,-3.6293,-3.6122,-3.577,-3.4142,-3.2442,-3.0975,-3.0733,-3.0485,-3.0189,-2.9853,-2.9348,-2.8842,-2.8732,-2.824,-2.755,-2.6782,-2.6122,-2.5564,-2.5286,-2.5174,-2.5118,-2.5005,-2.5005,-2.5005,-2.5061,-2.5118,-2.5216,-2.5439,-2.5536,-2.555,-2.5494,-2.5229,-2.4975,-2.4919,-2.465,-2.4416,-2.4375,-2.35,-2.2594,-2.1721,-2.1759,-2.1608,-2.1037,-2.1229,-2.1166,-2.0696,-2.0332,-1.951,-1.8154,-1.7402,-1.6832,-1.635,-1.5508,-1.5063,-1.5055,-1.4909,-1.4793,-3.0366,-3.2072,-3.3223,-3.1035,-3.0977,-3.1318,0.0,0.0,0.0,0.0,0.0,0.0,0.0,0.0,0.0,0.0,0.0,0.0,0.0,0.0,0.0,0.0,0.0,0.0,0.0,0.0,0.0,0.0,0.0,0.0,-4.3196,-4.3177,-4.2853,-4.2094,-4.2008,-4.1613,-4.0852,-4.1265,-4.1456,-4.1377,-4.0517,-4.0077,-3.9996,-3.9975,-3.9892,-3.9781,0.0,-3.8664,-3.7507,-3.7162,-3.6717,-3.6211,-3.6004,-3.623,-3.6643,-3.636,-3.6174,-3.5753,-3.4058,-3.2343,-3.0935,-3.0651,-3.0443,-3.029,-2.9726,-2.9547,-2.9441,-2.8997,-2.7898,-2.673,-2.619,-2.566,-2.5286,-2.523,-2.5118,-2.5005,-2.5005,-2.5005,-2.5075,-2.5201,-2.5147,-2.5119,-2.5313,-2.5438,-2.5423,-2.51,-2.5043,-2.4948,-2.4705,-2.4608,-2.4455,-2.4193,-2.344,-2.2773,-2.231,-2.1839,-2.1379,-2.0914,-2.1242,-2.1019,-2.0144,-1.9334,-1.8558,-1.7899,-1.7167,-1.6726,-1.6558,-1.5604,-1.4985,-1.4866,-1.6249,-1.6582,-2.9357,-3.0915,-3.2272,-3.0912,-3.2212,-3.3591,0.0,0.0,0.0,0.0,0.0,0.0,0.0,0.0,0.0,0.0,0.0,0.0,0.0,0.0,0.0,0.0,0.0,0.0,0.0,0.0,0.0,0.0,0.0,0.0,-4.1851,-4.1851,-4.1663,-4.1195,-4.117,-4.0947,-4.0495,-4.0833,-4.0937,-4.0788,-4.0406,-4.0177,-4.0098,-4.0017,-3.9954,-3.9807,0.0,-3.8721,-3.8257,-3.7143,-3.6585,-3.6364,-3.613,-3.6022,-3.6,-3.5697,-3.553,-3.5173,-3.3505,-3.2317,-3.1496,-3.0808,-3.0443,-3.0146,-2.938,-2.9152,-2.8935,-2.7913,-2.7399,-2.7056,-2.6549,-2.5811,-2.5174,-2.5118,-2.5061,-2.5005,-2.5005,-2.5005,-2.5005,-2.5131,-2.5048,-2.5104,-2.5368,-2.5287,-2.5315,-2.5478,-2.4924,-2.4469,-2.4326,-2.4349,-2.4256,-2.4092,-2.3256,-2.2338,-2.155,-2.1262,-2.1114,-2.0914,-2.1158,-2.1019,-2.0359,-1.9699,-1.9168,-1.8678,-1.7702,-1.719,-1.7025,-1.6142,-1.5658,-1.5583,-1.6733,-1.6995,-2.8603,-2.9535,-3.0598,-3.0601,0.0,0.0,0.0,0.0,0.0,0.0,0.0,0.0,0.0,0.0,0.0,0.0,0.0,0.0,0.0,0.0,0.0,0.0,0.0,0.0,0.0,0.0,0.0,0.0,0.0,0.0,-4.0127,-4.0114,-4.0101,-4.0042,-4.0034,-4.0024,-3.9942,-3.9884,-4.001,-4.0325,-4.0271,-4.012,-3.9929,-3.9922,-3.9683,-3.9221,-3.861,-3.829,-3.8062,-3.6648,-3.6152,-3.6303,-3.5882,-3.5504,-3.5201,-3.4887,-3.4597,-3.4182,-3.2934,-3.2229,-3.1756,-3.0957,-3.0426,-2.9941,-2.9273,-2.8795,-2.824,-2.7159,-2.7004,-2.7041,-2.6625,-2.5851,-2.5118,-2.5005,-2.5005,-2.5005,-2.5005,-2.5005,-2.5005,-2.4991,-2.4978,-2.5145,-2.5507,-2.5273,-2.5356,-2.6357,-2.5258,-2.4265,-2.4106,-2.4116,-2.4094,-2.4096,-2.2855,-2.164,-2.0791,-2.0775,-2.0838,-2.0838,-2.1059,-2.0983,-2.051,-2.0016,-1.9558,-1.9263,-1.8118,-1.7554,-1.7448,-1.6863,-1.6539,-1.6461,-1.7053,-1.6698,-2.9341,-2.9545,-2.9687,-2.9687,-3.105,0.0,0.0,0.0,0.0,0.0,0.0,0.0,0.0,0.0,0.0,0.0,0.0,0.0,0.0,0.0,0.0,0.0,0.0,0.0,0.0,0.0,0.0,0.0,0.0,0.0,-3.8388,-3.8384,-3.8368,-3.8363,-3.8382,-3.8338,-3.8279,-3.8028,-3.8733,-4.0379,-4.0325,-3.9869,-3.9088,-3.9593,-3.889,-3.7325,-3.7485,-3.6684,-3.5164,-3.4612,-3.4745,-3.5221,-3.427,-3.4107,-3.4457,-3.4189,-3.3505,-3.2724,-3.2576,-3.1947,-3.1179,-3.0831,-3.0267,-2.9701,-2.9499,-2.867,-2.7784,-2.7799,-2.696,-2.5972,-2.5481,-2.5174,-2.5005,-2.5005,-2.5005,-2.5005,-2.5005,-2.5005,-2.4991,-2.498,-2.5022,-2.5174,-2.5785,-2.5368,-2.5716,-2.7891,-2.6343,-2.4727,-2.415,-2.4089,-2.4107,-2.4082,-2.2148,-2.0765,-2.0714,-2.0712,-2.0699,-2.0699,-2.0898,-2.0785,-2.0233,-1.9346,-1.8867,-1.8839,-1.7909,-1.7505,-1.7655,-1.76,-1.7468,-1.7231,-1.7262,-1.5816,-2.7892,-2.8661,-2.9541,-2.9589,0.0,0.0,0.0,0.0,0.0,0.0,0.0,0.0,0.0,0.0,0.0,0.0,0.0,0.0,0.0,0.0,0.0,0.0,0.0,0.0,0.0,0.0,0.0,0.0,0.0,0.0,-3.8227,-3.8214,-3.8191,-3.821,-3.8214,-3.8119,-3.7983,-3.7785,-3.7995,-3.8594,-3.8499,-3.825,-3.7943,-3.8077,-3.7759,-3.7069,-3.6516,-3.6065,-3.567,-3.4302,-3.4091,-3.4521,-3.3846,-3.3894,-3.4318,-3.3679,-3.3377,-3.3157,-3.223,-3.1811,-3.1662,-3.0924,-3.0182,-2.939,-2.8795,-2.8143,-2.7399,-2.6602,-2.6229,-2.6,-2.5797,-2.5412,-2.5022,-2.4984,-2.501,-2.5022,-2.4984,-2.4995,-2.5005,-2.5021,-2.5021,-2.5061,-2.5283,-2.5148,-2.5273,-2.6147,-2.4013,-2.2752,-2.3971,-2.4076,-2.4093,-2.4102,-2.267,-2.159,-2.1224,-2.1185,-2.1041,-2.0725,-2.0861,-2.0875,-2.0612,-2.0015,-1.9648,-1.9668,-1.8677,-1.8093,-1.7952,-1.779,-1.7444,-1.7006,-1.6392,-1.5542,-2.6926,-2.753,-2.8442,0.0,0.0,0.0,0.0,0.0,0.0,0.0,0.0,0.0,0.0,0.0,0.0,0.0,0.0,0.0,0.0,0.0,0.0,0.0,0.0,0.0,0.0,0.0,0.0,0.0,0.0,0.0,0.0,-3.6658,-3.6618,-3.6588,-3.6593,-3.6511,-3.6325,-3.6415,-3.6247,-3.5837,-3.5924,-3.6316,-3.6927,-3.6994,-3.6691,-3.6162,-3.5566,-3.5346,-3.5302,-3.3978,-3.3527,-3.3687,-3.3617,-3.3615,-3.3587,-3.2991,-3.2886,-3.2866,-3.1859,-3.1608,-3.1607,-3.0924,-3.0097,-2.9225,-2.8717,-2.803,-2.7246,-2.6457,-2.6244,-2.6215,-2.6187,-2.563,-2.5025,-2.5119,-2.5092,-2.4998,-2.4983,-2.5025,-2.4981,-2.4978,-2.5005,-2.5005,-2.5005,-2.5009,-2.4913,-2.4759,-2.3046,-2.2321,-2.3891,-2.3572,-2.325,-2.3241,-2.2719,-2.2112,-2.1392,-2.1302,-2.1067,-2.0725,-2.0775,-2.0838,-2.0838,-2.0385,-2.0118,-2.0118,-1.9239,-1.8548,-1.805,-1.7612,-1.7132,-1.6633,-1.5761,-1.5392,-2.6838,-2.6214,0.0,0.0,0.0,0.0,0.0,0.0,0.0,0.0,0.0,0.0,0.0,0.0,0.0,0.0,0.0,0.0,0.0,0.0,0.0,0.0,0.0,0.0,0.0,0.0,0.0,0.0,0.0,0.0,0.0,-3.3197,-3.317,-3.3103,-3.3103,-3.3023,-3.2904,-3.3483,-3.3253,-3.2204,-3.2807,-3.4145,-3.608,-3.6536,-3.5814,-3.4191,-3.4669,-3.4345,-3.3473,-3.3334,-3.3011,-3.2677,-3.3489,-3.309,-3.2108,-3.2108,-3.1819,-3.1517,-3.1517,-3.123,-3.0871,-3.0733,-3.0011,-2.9241,-2.9409,-2.848,-2.7399,-2.7799,-2.721,-2.6481,-2.6433,-2.5678,-2.5051,-2.5441,-2.5204,-2.4952,-2.498,-2.5009,-2.5011,-2.4966,-2.4991,-2.4991,-2.4991,-2.4989,-2.4784,-2.4189,-2.4083,-2.4096,-2.4095,-2.251,-2.143,-2.1406,-2.1996,-2.2005,-2.098,-2.0775,-2.0712,-2.0699,-2.0699,-2.0699,-2.0699,-2.0258,-1.9991,-1.9991,-1.9488,-1.875,-1.7897,-1.6994,-1.649,-1.6263,-1.57,-1.5381,-2.6651,-2.6888,0.0,0.0,0.0,0.0,0.0,0.0,0.0,0.0,0.0,0.0,0.0,0.0,0.0,0.0,0.0,0.0,0.0,0.0,0.0,0.0,0.0,0.0,0.0,0.0,0.0,0.0,0.0,0.0,0.0,-3.3222,-3.316,-3.3024,-3.3042,-3.2909,-3.263,-3.2752,-3.2579,-3.2126,-3.2219,-3.2549,-3.3103,-3.3762,-3.3438,-3.244,-3.3621,-3.3277,-3.1874,-3.1642,-3.2025,-3.2752,-3.2237,-3.2106,-3.2144,-3.202,-3.1802,-3.1559,-3.1389,-3.1213,-3.0935,-3.0773,-3.0038,-2.921,-2.9057,-2.8465,-2.77,-2.7019,-2.6959,-2.6943,-2.6445,-2.5671,-2.5049,-2.5137,-2.4069,-2.3018,-2.3003,-2.4054,-2.4491,-2.2808,-2.2457,-2.2729,-2.3568,-2.4409,-2.4805,-2.419,-2.445,-2.4123,-2.2405,-2.2814,-2.3316,-2.3326,-2.2168,-2.155,-2.19,-2.1523,-2.108,-2.0725,-2.0699,-2.0699,-2.0699,-2.0549,-2.0485,-2.0485,-1.9811,-1.9069,-1.819,-1.6949,-1.6275,-1.6022,-1.5604,-1.54,-2.6102,0.0,0.0,0.0,0.0,0.0,0.0,0.0,0.0,0.0,0.0,0.0,0.0,0.0,0.0,0.0,0.0,0.0,0.0,0.0,0.0,0.0,0.0,0.0,0.0,0.0,0.0,0.0,0.0,0.0,0.0,-3.1125,-3.1043,-3.0942,-3.0921,-3.0957,-3.102,-3.1314,-3.1162,-3.064,-3.1215,-3.1113,-3.0472,-3.1811,-3.213,-3.1676,-3.2482,-3.2198,-3.1137,-3.0938,-3.1296,-3.1885,-3.1172,-3.1052,-3.1271,-3.1116,-3.0904,-3.0651,-3.0486,-3.0222,-2.9928,-2.9809,-2.9146,-2.8506,-2.8598,-2.8294,-2.7794,-2.744,-2.7473,-2.7503,-2.7233,-2.6582,-2.6103,-2.63,-2.4245,-2.2128,-2.1957,-2.3525,-2.4312,-2.1867,-2.1393,-2.1744,-2.2734,-2.3658,-2.3955,-2.2893,-2.3223,-2.3026,-2.1575,-2.2342,-2.2963,-2.2775,-2.1629,-2.1147,-2.1794,-2.143,-2.1028,-2.0725,-2.0699,-2.0699,-2.0699,-2.0699,-2.0699,-2.0699,-2.0131,-1.9408,-1.853,-1.7567,-1.661,-1.572,-1.5459,-1.5391,0.0,0.0,0.0,0.0,0.0,0.0,0.0,0.0,0.0,0.0,0.0,0.0,0.0,0.0,0.0,0.0,0.0,0.0,0.0,0.0,0.0,0.0,0.0,0.0,0.0,0.0,0.0,0.0,0.0,0.0,0.0,-2.7942,-2.7874,-2.7791,-2.7794,-2.8068,-2.8679,-2.9406,-2.9263,-2.8331,-2.9852,-2.9739,-2.8278,-3.0575,-3.1635,-3.1668,-3.133,-3.1148,-3.1084,-3.0803,-3.0635,-3.0511,-3.026,-3.0061,-2.9889,-2.9793,-2.954,-2.9175,-2.9104,-2.8723,-2.8307,-2.8268,-2.7907,-2.7566,-2.8195,-2.8053,-2.7758,-2.8387,-2.8319,-2.7984,-2.7763,-2.7476,-2.7335,-2.7701,-2.4898,-2.2034,-2.1798,-2.3461,-2.4298,-2.1912,-2.1443,-2.1655,-2.2366,-2.2823,-2.2652,-2.1186,-2.1238,-2.1402,-2.1407,-2.1419,-2.1197,-2.0733,-2.0682,-2.0746,-2.0954,-2.0788,-2.0712,-2.0712,-2.0712,-2.0712,-2.0712,-2.0712,-2.0699,-2.0699,-2.0334,-1.9706,-1.8863,-1.8538,-1.7334,-1.5458,-1.5487,-1.5439,0.0,0.0,0.0,0.0,0.0,0.0,0.0,0.0,0.0,0.0,0.0,0.0,0.0,0.0,0.0,0.0,0.0,0.0,0.0,0.0,0.0,0.0,0.0,0.0,0.0,0.0,0.0,0.0,0.0,0.0,-2.7933,-2.7904,-2.7846,-2.7739,-2.7723,-2.7733,-2.778,-2.7911,-2.785,0.0,-2.7876,-2.7788,-2.7526,-2.9843,-3.1184,-3.1523,-3.0129,-3.0149,-3.1055,-2.9671,-2.9746,-3.0639,-2.9734,-2.9598,-2.9937,-2.9676,-2.9455,-2.9227,-2.8901,-2.8531,-2.8207,-2.805,-2.8022,-2.8023,-2.8056,-2.8403,-2.8459,-2.7026,-2.7421,-2.739,-2.3413,-2.3606,-2.454,-2.32,-2.2228,-2.2082,-2.3814,-2.4626,-2.4347,-2.215,-2.1528,-2.1596,-2.2179,-2.2498,-2.2742,-2.2949,-2.209,-2.1396,-2.1385,-2.1376,-2.1209,-2.0751,-2.0677,-2.074,-2.0775,-2.0712,-2.0675,-2.0677,-2.0688,-2.0675,-2.0677,-2.0688,-2.0699,-2.0699,-1.9952,-1.9174,-1.8441,-1.8267,-1.7364,-1.5778,-1.608,-1.5924,0.0,0.0,0.0,0.0,0.0,0.0,0.0,0.0,0.0,0.0,0.0,0.0,0.0,0.0,0.0,0.0,0.0,0.0,0.0,0.0,0.0,0.0,0.0,0.0,0.0,0.0,0.0,0.0,0.0,-2.7085,-2.6621,-2.657,-2.6527,-2.6465,-2.6472,-2.66,-2.6911,-2.6887,-2.6843,-2.6779,-2.7097,-2.7219,-2.719,-2.839,-2.905,-2.9215,-2.8301,-2.8301,-2.887,-2.7864,-2.7886,-2.8496,-2.8134,-2.8118,-2.8294,-2.8444,-2.8304,-2.8032,-2.7767,-2.7226,-2.6714,-2.6971,-2.6687,-2.6325,-2.6965,-2.7135,-2.682,-2.5302,-2.5449,-2.5502,-2.2978,-2.2417,-2.2297,-2.1592,-2.14,-2.1792,-2.3306,-2.3553,-2.3145,-2.2007,-2.1798,-2.1973,-2.2278,-2.2718,-2.3161,-2.3511,-2.2353,-2.1383,-2.138,-2.1211,-2.0987,-2.0709,-2.0686,-2.0699,-2.0699,-2.0699,-2.0725,-2.0701,-2.056,-2.0547,-2.0701,-2.0701,-2.0701,-2.0701,-1.9862,-1.9056,-1.8375,-1.8212,-1.7431,-1.6155,-1.6331,-1.6185,0.0,0.0,0.0,0.0,0.0,0.0,0.0,0.0,0.0,0.0,0.0,0.0,0.0,0.0,0.0,0.0,0.0,0.0,0.0,0.0,0.0,0.0,0.0,0.0,0.0,0.0,0.0,0.0,0.0,-2.597,-2.5228,-2.5141,-2.512,-2.5126,-2.512,-2.5419,-2.6089,-2.6089,-2.6029,-2.592,-2.6559,-2.6728,-2.6463,-2.6393,-2.6507,-2.6723,-2.6703,-2.6641,-2.649,-2.6318,-2.6181,-2.6141,-2.648,-2.646,-2.6277,-2.6948,-2.6914,-2.6522,-2.6521,-2.5835,-2.5067,-2.5805,-2.5123,-2.4286,-2.5589,-2.5358,-2.445,-2.362,-2.3475,-2.3601,-2.3745,-2.2219,-2.0838,-2.1297,-2.147,-2.1587,-2.2061,-2.1943,-2.1776,-2.1731,-2.2076,-2.2381,-2.2555,-2.3157,-2.3629,-2.3598,-2.2352,-2.1374,-2.1291,-2.0921,-2.0683,-2.0709,-2.0686,-2.0699,-2.0699,-2.0699,-2.0712,-2.0725,-2.0445,-2.0382,-2.0688,-2.0677,-2.0716,-2.0692,-1.9938,-1.9223,-1.8518,-1.8011,-1.7288,-1.6384,-1.6405,-1.6405,0.0,0.0,0.0,0.0,0.0,0.0,0.0,0.0,0.0,0.0,0.0,0.0,0.0,0.0,0.0,0.0,0.0,0.0,0.0,0.0,0.0,0.0,0.0,0.0,0.0,0.0,0.0,0.0,-2.5534,-2.5354,-2.5137,-2.5168,-2.518,-2.5199,-2.5125,-2.5158,-2.526,-2.519,-2.5164,-2.5151,-2.5135,-2.4697,-2.3899,-2.3883,-2.4978,-2.6877,-2.6762,-2.6661,-2.6591,-2.6425,-2.6272,-2.6087,-2.5975,-2.5755,-2.5592,-2.6091,-2.611,-2.5878,-2.6009,-2.5524,-2.4879,-2.5243,-2.4844,-2.4364,-2.4963,-2.4228,-2.3108,-2.2766,-2.3093,-2.3416,-2.2575,-2.1519,-2.0847,-2.1286,-2.1605,-2.1759,-2.1822,-2.1842,-2.1828,-2.1882,-2.1963,-2.2212,-2.2775,-2.3287,-2.3613,-2.3577,-2.2363,-2.123,-2.0837,-2.0726,-2.069,-2.0686,-2.0673,-2.0673,-2.0699,-2.0699,-2.0675,-2.069,-2.0662,-2.0638,-2.0718,-2.0679,-2.0705,-2.072,-2.0294,-1.9576,-1.8518,-1.7258,-1.6557,-1.6384,-1.6384,-1.6384,0.0,0.0,0.0,0.0,0.0,0.0,0.0,0.0,0.0,0.0,0.0,0.0,0.0,0.0,0.0,0.0,0.0,0.0,0.0,0.0,0.0,0.0,0.0,0.0,0.0,0.0,0.0,0.0,-2.5572,-2.5228,-2.5172,-2.5191,-2.5191,-2.5191,-2.5168,-2.5144,-2.5095,-2.507,-2.4771,-2.4212,-2.4157,-2.3658,-2.2782,-2.2734,-2.35,-2.4817,-2.4763,-2.445,-2.3989,-2.4277,-2.4299,-2.4227,-2.4431,-2.4612,-2.4804,-2.5368,-2.5382,-2.5116,-2.5413,-2.4887,-2.4178,-2.4353,-2.4112,-2.3908,-2.4446,-2.3611,-2.2538,-2.2669,-2.2356,-2.1977,-2.2083,-2.1394,-2.0817,-2.1318,-2.1586,-2.1787,-2.1678,-2.1712,-2.1746,-2.2016,-2.2203,-2.242,-2.2815,-2.3273,-2.3612,-2.3591,-2.303,-2.2281,-2.1247,-2.0855,-2.0805,-2.108,-2.0838,-2.0723,-2.0699,-2.0699,-2.0725,-2.0701,-2.0725,-2.0701,-2.0692,-2.0705,-2.0706,-2.0694,-2.0397,-1.9874,-1.9221,-1.7302,-1.6395,-1.6377,-1.6379,-1.6384,0.0,0.0,0.0,0.0,0.0,0.0,0.0,0.0,0.0,0.0,0.0,0.0,0.0,0.0,0.0,0.0,0.0,0.0,0.0,0.0,0.0,0.0,0.0,0.0,0.0,0.0,0.0,0.0,-2.5669,-2.5228,-2.5228,-2.5206,-2.5203,-2.5203,-2.5203,-2.5168,-2.5126,-2.5114,-2.46,-2.3615,-2.3615,-2.314,-2.2285,-2.2032,-2.2167,-2.2654,-2.281,-2.2539,-2.1957,-2.2373,-2.2629,-2.2788,-2.3138,-2.359,-2.4101,-2.4706,-2.4706,-2.4475,-2.4777,-2.4297,-2.3651,-2.3866,-2.3655,-2.3507,-2.4178,-2.3612,-2.2728,-2.2786,-2.1791,-2.0866,-2.1588,-2.1403,-2.1139,-2.1291,-2.1586,-2.1787,-2.163,-2.1616,-2.1664,-2.1841,-2.2016,-2.2207,-2.2474,-2.2855,-2.3129,-2.312,-2.297,-2.2498,-2.1507,-2.1073,-2.0997,-2.1349,-2.0977,-2.0723,-2.0699,-2.0699,-2.0699,-2.0699,-2.0699,-2.0701,-2.0729,-2.0564,-2.0489,-2.0451,-2.0243,-2.002,-1.9781,-1.8084,-1.6971,-1.6409,-1.6394,-1.6368,0.0,0.0,0.0,0.0,0.0,0.0,0.0,0.0,0.0,0.0,0.0,0.0,0.0,0.0,0.0,0.0,0.0,0.0,0.0,0.0,0.0,0.0,0.0,0.0,0.0,0.0,0.0,0.0,-2.5395,-2.5282,-2.5282,-2.5222,-2.5201,-2.5187,-2.5187,-2.5195,-2.5191,-2.5139,-2.4632,-2.3693,-2.3628,-2.314,-2.2267,-2.1441,-2.1089,-2.1148,-2.1797,-2.2033,-2.198,-2.1884,-2.2262,-2.2867,-2.2714,-2.3016,-2.3578,-2.4065,-2.4112,-2.396,-2.4163,-2.3967,-2.3651,-2.4121,-2.3813,-2.3371,-2.429,-2.4379,-2.3964,-2.283,-2.1652,-2.0705,-2.0743,-2.1457,-2.1964,-2.1341,-2.1539,-2.1848,-2.1664,-2.1616,-2.1471,-2.1131,-2.1082,-2.118,-2.1458,-2.165,-2.1801,-2.1794,-2.1288,-2.0968,-2.1363,-2.1363,-2.1363,-2.1412,-2.0977,-2.0723,-2.0699,-2.0699,-2.0699,-2.0699,-2.0699,-2.0714,-2.0693,-2.0156,-1.9876,-1.9875,-1.9823,-1.982,-1.9781,-1.9672,-1.851,-1.6409,-1.6394,-1.6386,0.0,0.0,0.0,0.0,0.0,0.0,0.0,0.0,0.0,0.0,0.0,0.0,0.0,0.0,0.0,0.0,0.0,0.0,0.0,0.0,0.0,0.0,0.0,0.0,0.0,0.0,0.0,0.0,0.0,-2.5365,-2.535,-2.5303,-2.5241,-2.5201,-2.5198,-2.5184,-2.5144,-2.5063,-2.4581,-2.3695,-2.3113,-2.2362,-2.1499,-2.0627,-2.0226,-2.0232,-2.0428,-2.0504,-2.0484,-2.0917,-2.1487,-2.21,-2.1953,-2.2594,-2.3629,-2.3661,-2.3548,-2.3301,-2.3106,-2.3162,-2.3285,-2.3363,-2.3239,-2.3237,-2.4491,-2.4694,-2.4362,-2.3674,-2.2121,-2.0721,-2.0677,-2.1677,-2.2526,-2.2104,-2.1842,-2.1725,-2.1712,-2.1746,-2.1616,-2.1326,-2.1063,-2.0947,-2.106,-2.0983,-2.0965,-2.1074,-2.0945,-2.1003,-2.1377,-2.141,-2.1309,-2.0961,-2.0772,-2.0723,-2.0699,-2.0699,-2.0699,-2.0699,-2.0699,-2.0714,-2.0693,-2.0093,-1.98,-1.9798,-1.9798,-1.9784,-1.982,-1.9793,-1.8649,-1.6418,-1.6406,-1.642,0.0,0.0,0.0,0.0,0.0,0.0,0.0,0.0,0.0,0.0,0.0,0.0,0.0,0.0,0.0,0.0,0.0,0.0,0.0,0.0,0.0,0.0,0.0,0.0,0.0,0.0,0.0,0.0,0.0,0.0,-2.5393,-2.536,-2.5284,-2.5192,-2.5209,-2.5184,-2.5125,-2.5063,-2.4727,-2.4087,-2.322,-2.2343,-2.1462,-2.0596,-2.0057,-1.9795,-1.9707,-1.9649,-1.9665,-2.0173,-2.0773,-2.1343,-2.1241,-2.2078,-2.3346,-2.3129,-2.3082,-2.3047,-2.2659,-2.2434,-2.2279,-2.2064,-2.2325,-2.2914,-2.4002,-2.4122,-2.3951,-2.4076,-2.2483,-2.0598,-2.021,-2.1054,-2.2034,-2.2025,-2.1713,-2.1442,-2.1442,-2.156,-2.15,-2.1021,-2.0705,-2.0473,-2.0151,-2.0021,-1.9976,-2.0052,-2.0392,-2.0758,-2.0904,-2.1206,-2.1242,-2.0753,-2.0703,-2.0673,-2.0686,-2.0699,-2.0699,-2.0699,-2.0699,-2.0714,-2.0693,-2.0093,-1.98,-1.9798,-1.9823,-1.9784,-1.9784,-1.9812,-1.8952,-1.7286,-1.729,-1.6857,0.0,0.0,0.0,0.0,0.0,0.0,0.0,0.0,0.0,0.0,0.0,0.0,0.0,0.0,0.0,0.0,0.0,0.0,0.0,0.0,0.0,0.0,0.0,0.0,0.0,0.0,0.0,0.0,-2.5591,-2.5557,-2.5404,-2.539,-2.5348,-2.5222,-2.5209,-2.5195,-2.5191,-2.5139,-2.5025,-2.4902,-2.402,-2.3159,-2.2304,-2.1414,-2.0557,-1.9832,-1.9673,-1.9628,-1.9686,-1.9705,-2.009,-2.0683,-2.0618,-2.1441,-2.264,-2.247,-2.2758,-2.3223,-2.2886,-2.1921,-2.077,-2.0363,-2.1214,-2.2455,-2.2747,-2.2692,-2.2741,-2.3788,-2.2382,-2.0312,-1.9192,-1.9655,-2.0528,-2.1063,-2.1122,-2.1032,-2.0745,-2.1009,-2.1048,-2.0165,-1.9964,-1.9685,-1.8763,-1.8693,-1.8727,-1.8773,-1.9449,-2.0,-1.9994,-2.0779,-2.1175,-2.0765,-2.0731,-2.0699,-2.0709,-2.0686,-2.0699,-2.0699,-2.0699,-2.0714,-2.0693,-2.0093,-1.98,-1.9798,-1.9809,-1.9795,-1.9795,-1.9772,-1.9521,-1.8995,-1.8916,-1.7618,-2.5293,0.0,0.0,0.0,0.0,0.0,-2.6398,-2.6573,0.0,0.0,0.0,0.0,0.0,0.0,0.0,0.0,0.0,0.0,0.0,0.0,0.0,0.0,0.0,0.0,0.0,0.0,0.0,0.0,-2.5661,-2.5625,-2.5549,-2.5461,-2.537,-2.5282,-2.5231,-2.5209,-2.5206,-2.5132,-2.507,-2.5038,-2.4066,-2.3469,-2.3196,-2.1685,-2.0875,-2.0632,-1.9961,-1.966,-1.9628,-1.9638,-2.0018,-2.0618,-2.0551,-2.1058,-2.1878,-2.2355,-2.2568,-2.2557,-2.2418,-2.2197,-2.1807,-2.0893,-2.1177,-2.1856,-2.1228,-2.0798,-2.031,-1.9409,-1.867,-1.8186,-1.8332,-1.9453,-2.0603,-2.0796,-2.0904,-2.0785,-2.0165,-2.0026,-1.9957,-1.9704,-1.9344,-1.893,-1.8356,-1.7707,-1.7406,-1.7751,-1.8755,-1.9678,-2.0151,-2.018,-2.028,-2.0642,-2.0997,-2.1093,-2.0749,-2.0699,-2.0699,-2.0699,-2.0701,-2.0716,-2.0693,-2.0144,-1.9825,-1.9822,-1.9783,-1.9614,-1.9239,-1.9235,-1.9131,-1.8963,-1.7233,-1.607,0.0,0.0,0.0,0.0,0.0,0.0,-2.5725,-2.6085,-2.6246,0.0,0.0,0.0,0.0,0.0,0.0,0.0,0.0,0.0,0.0,0.0,0.0,0.0,0.0,0.0,0.0,-2.5702,-2.5702,-2.5697,-2.5694,-2.5657,-2.5561,-2.5461,-2.537,-2.5292,-2.5222,-2.5201,-2.5187,-2.5132,-2.5089,-2.5057,-2.4406,-2.3719,-2.3027,-2.1939,-2.1092,-2.0437,-1.9865,-1.962,-1.9606,-1.9569,-1.9789,-2.012,-2.0039,-2.0436,-2.1134,-2.1855,-2.2126,-2.2184,-2.2091,-2.234,-2.244,-2.1087,-2.1037,-2.1376,-2.078,-2.0284,-1.9574,-1.7724,-1.7316,-1.7618,-1.8175,-1.9173,-2.0023,-2.0133,-2.0146,-1.9995,-1.9421,-1.9179,-1.9047,-1.9016,-1.8737,-1.8286,-1.7627,-1.7093,-1.6888,-1.7141,-1.8337,-1.9261,-1.9541,-2.0047,-2.0368,-2.0307,-2.0766,-2.1004,-2.0736,-2.0699,-2.0712,-2.0701,-2.069,-2.0602,-2.0322,-1.9965,-1.9798,-1.9795,-1.9577,-1.9316,-1.8976,-1.8987,-1.8478,-1.75,-1.7094,-1.6366,0.0,0.0,0.0,0.0,0.0,0.0,-2.4497,-2.5046,-2.5466,0.0,0.0,0.0,0.0,0.0,0.0,0.0,0.0,0.0,0.0,0.0,0.0,0.0,0.0,0.0,-2.5683,-2.5694,-2.5696,-2.5703,-2.5693,-2.564,-2.5512,-2.5441,-2.538,-2.5302,-2.5252,-2.5201,-2.5198,-2.5132,-2.507,-2.5012,-2.487,-2.4011,-2.253,-2.2219,-2.1297,-1.9894,-1.9606,-1.9504,-1.9555,-1.953,-1.9483,-1.9468,-1.9338,-1.9685,-2.0351,-2.1078,-2.1556,-2.1839,-2.1896,-2.2264,-2.247,-2.1059,-2.0751,-2.0988,-2.0892,-2.0647,-1.9916,-1.776,-1.7531,-1.8004,-1.8341,-1.8754,-1.9128,-1.9265,-1.9169,-1.8989,-1.8571,-1.8374,-1.8203,-1.8113,-1.8066,-1.7735,-1.6863,-1.6761,-1.6833,-1.6876,-1.8065,-1.8869,-1.8712,-2.0261,-2.097,-1.9972,-2.0377,-2.0709,-2.0709,-2.0699,-2.0688,-2.0703,-2.064,-2.0373,-1.9812,-1.9825,-1.9811,-1.982,-1.9267,-1.9023,-1.9017,-1.9,-1.7736,-1.5472,-1.76,-1.7419,0.0,0.0,0.0,0.0,0.0,0.0,-2.5153,-2.5815,-2.6235,0.0,0.0,0.0,0.0,0.0,0.0,0.0,0.0,0.0,0.0,0.0,0.0,0.0,0.0,0.0,-2.5619,-2.5676,-2.5707,-2.5691,-2.5654,-2.5609,-2.558,-2.5464,-2.5388,-2.538,-2.5253,-2.5212,-2.5201,-2.5125,-2.5101,-2.5089,-2.4884,-2.4531,-2.4017,-2.2585,-2.168,-2.1163,-1.9824,-1.9274,-1.9289,-1.9435,-1.9435,-1.9338,-1.9305,-1.9319,-1.9479,-2.0534,-2.0898,-2.0985,-2.1716,-2.1469,-2.0788,-2.058,-2.0407,-2.0271,-2.0169,-2.0473,-2.0258,-1.7424,-1.7352,-1.8154,-1.818,-1.8618,-1.9017,-1.8625,-1.874,-1.8685,-1.7822,-1.7549,-1.7313,-1.6944,-1.7156,-1.7238,-1.6764,-1.6504,-1.6448,-1.6833,-1.77,-1.8495,-1.9088,-2.0354,-2.1145,-2.0953,-2.0795,-2.0709,-2.0699,-2.0701,-2.069,-2.0703,-2.0246,-1.994,-1.9786,-1.9784,-1.9768,-1.98,-1.9257,-1.9012,-1.9017,-1.9014,-1.7745,-1.5406,-1.5891,-1.5856,0.0,0.0,0.0,-2.5429,0.0,0.0,0.0,-2.5388,-2.5763,-2.4913,0.0,0.0,0.0,0.0,0.0,0.0,0.0,0.0,0.0,0.0,0.0,0.0,0.0,0.0,-2.5496,-2.5593,-2.5671,-2.5693,-2.5642,-2.5593,-2.5604,-2.5471,-2.5397,-2.5398,-2.5283,-2.5201,-2.519,-2.5125,-2.507,-2.5057,-2.4884,-2.4509,-2.3952,-2.2532,-2.1625,-2.1083,-1.9758,-1.9246,-1.9308,-1.9372,-1.9357,-1.9311,-1.9308,-1.9251,-1.9321,-2.0391,-2.039,-2.0007,-2.1015,-2.0525,-1.9495,-1.9762,-1.9704,-1.947,-1.9206,-1.9405,-1.9362,-1.7679,-1.7286,-1.7488,-1.8057,-1.8302,-1.8344,-1.819,-1.8153,-1.7892,-1.7006,-1.6783,-1.6591,-1.6103,-1.6022,-1.6132,-1.6318,-1.6306,-1.6349,-1.665,-1.7393,-1.8122,-1.8733,-1.9592,-2.0261,-2.0475,-2.0704,-2.0804,-2.0713,-2.0716,-2.057,-2.0246,-1.9952,-1.9798,-1.9797,-1.9552,-1.942,-1.9413,-1.9149,-1.84,-1.7225,-1.719,-1.6588,-1.5425,-1.5408,-1.5419,0.0,0.0,0.0,0.0,0.0,-2.5219,0.0,0.0,0.0,-2.4464,0.0,0.0,0.0,0.0,0.0,0.0,0.0,0.0,0.0,0.0,0.0,0.0,0.0,0.0,0.0,-2.5485,-2.5582,-2.5666,-2.5642,-2.5613,-2.5604,-2.5485,-2.5415,-2.5389,-2.5253,-2.5201,-2.5206,-2.512,-2.5057,-2.4999,-2.487,-2.4411,-2.3664,-2.2603,-2.1676,-2.0812,-1.9847,-1.9394,-1.936,-1.9311,-1.9298,-1.9285,-1.9292,-1.9305,-1.9396,-2.021,-1.9864,-1.9085,-1.9945,-1.9439,-1.8487,-1.8812,-1.8801,-1.8566,-1.8114,-1.8072,-1.8152,-1.7692,-1.7057,-1.677,-1.7827,-1.7868,-1.772,-1.7922,-1.7572,-1.7006,-1.6294,-1.6068,-1.5835,-1.5319,-1.5054,-1.5138,-1.586,-1.6022,-1.6157,-1.6466,-1.6986,-1.7593,-1.8149,-1.8556,-1.8969,-1.9442,-1.997,-2.034,-2.0364,-2.0475,-2.0322,-1.9813,-1.9799,-1.9745,-1.9668,-1.9251,-1.8768,-1.833,-1.8748,-1.779,-1.5391,-1.5429,-1.5395,-1.5377,-1.54,-1.541,0.0,0.0,0.0,0.0,-2.5484,0.0,0.0,0.0,-2.5194,-2.5168,0.0,0.0,0.0,0.0,0.0,0.0,0.0,0.0,0.0,0.0,0.0,0.0,0.0,0.0,0.0,-2.5376,-2.5459,-2.5527,-2.5626,-2.5662,-2.5609,-2.5537,-2.5434,-2.5313,-2.5243,-2.5209,-2.5191,-2.5076,-2.4999,-2.501,-2.4865,-2.4654,-2.436,-2.339,-2.2423,-2.1459,-2.0603,-1.9873,-1.9235,-1.9292,-1.9294,-1.9294,-1.9295,-1.9298,-1.9314,-1.9415,-1.904,-1.8484,-1.8538,-1.8284,-1.7885,-1.7873,-1.7814,-1.7564,-1.6637,-1.6965,-1.7504,-1.6583,-1.6471,-1.6782,-1.7227,-1.7434,-1.7611,-1.7828,-1.7223,-1.6454,-1.5949,-1.5394,-1.4817,-1.4289,-1.4577,-1.5138,-1.586,-1.5544,-1.5429,-1.6275,-1.6268,-1.661,-1.7777,-1.7747,-1.7809,-1.8329,-1.8041,-1.8176,-1.9046,-1.9577,-1.9842,-1.979,-1.9813,-1.9571,-1.9125,-1.9042,-1.799,-1.5846,-1.7901,-1.7809,-1.5412,-1.5375,-1.5407,-1.5381,-1.54,-1.541,0.0,0.0,0.0,0.0,0.0,0.0,-2.5203,0.0,-2.5141,0.0,0.0,0.0,0.0,0.0,0.0,0.0,-2.4245,0.0,0.0,0.0,0.0,0.0,0.0,0.0,0.0,0.0,0.0,0.0,-2.5574,-2.5655,-2.5662,-2.5568,-2.5468,-2.5357,-2.5264,-2.5176,-2.5137,-2.5057,-2.4991,-2.4931,-2.485,-2.4742,-2.4591,-2.3553,-2.2604,-2.1726,-2.0765,-1.9895,-1.915,-1.9263,-1.9211,-1.9071,-1.9231,-1.9288,-1.9291,-1.9091,-1.8603,-1.8062,-1.82,-1.8153,-1.7975,-1.7586,-1.7139,-1.6613,-1.6002,-1.6158,-1.6521,-1.6222,-1.6228,-1.6403,-1.6699,-1.6486,-1.6232,-1.6376,-1.588,-1.5194,-1.4673,-1.4465,-1.4177,-1.3592,-1.35,-1.372,-1.4343,-1.4783,-1.506,-1.5053,-1.5521,-1.6137,-1.6754,-1.6792,-1.6892,-1.7174,-1.6532,-1.6368,-1.7048,-1.7566,-1.8434,-1.9722,-1.8565,-1.7534,-1.6912,-1.6884,-1.6407,-1.5437,-1.6375,-1.6427,-1.5429,-1.5386,-1.6111,-1.7444,-1.6033,-1.5392,-2.5082,0.0,0.0,0.0,0.0,0.0,0.0,0.0,0.0,0.0,0.0,0.0,0.0,0.0,0.0,0.0,0.0,0.0,0.0,0.0,0.0,0.0,0.0,0.0,0.0,0.0,0.0,-2.4967,-2.5357,-2.5527,-2.5339,-2.5424,-2.5464,-2.5379,-2.5264,-2.516,-2.5057,-2.5018,-2.495,-2.4875,-2.4787,-2.4742,-2.4673,-2.383,-2.2895,-2.1877,-2.0985,-2.0044,-1.9155,-1.9217,-1.9147,-1.9004,-1.9074,-1.9052,-1.8976,-1.8713,-1.8333,-1.7899,-1.8013,-1.7992,-1.7839,-1.7388,-1.6797,-1.6205,-1.6024,-1.5951,-1.5952,-1.6009,-1.6065,-1.6071,-1.6086,-1.5648,-1.5258,-1.5478,-1.4879,-1.4221,-1.3816,-1.3686,-1.3412,-1.2823,-1.2578,-1.2553,-1.2564,-1.3555,-1.4223,-1.3942,-1.4763,-1.5528,-1.5862,-1.6096,-1.6293,-1.6392,-1.5804,-1.5332,-1.5222,-1.5568,-1.6667,-1.8762,-1.7337,-1.6094,-1.5454,-1.4962,-1.4707,-1.4707,-1.4714,-1.4712,-1.4685,-1.4686,-1.59,-1.807,-1.694,-1.6053,0.0,0.0,0.0,-2.5192,0.0,0.0,0.0,0.0,-2.5094,0.0,0.0,0.0,0.0,0.0,0.0,0.0,0.0,0.0,0.0,0.0,0.0,0.0,0.0,0.0,0.0,0.0,0.0,-2.389,-2.4941,-2.5219,-2.4397,-2.5084,-2.5434,-2.5318,-2.5241,-2.5144,-2.4993,-2.4945,-2.4875,-2.4806,-2.4748,-2.4714,-2.4692,-2.4461,-2.3484,-2.1959,-2.1552,-2.0572,-1.9268,-1.9156,-1.9167,-1.9249,-1.8735,-1.8405,-1.8226,-1.8226,-1.8153,-1.8058,-1.7793,-1.7512,-1.7224,-1.7149,-1.6873,-1.6616,-1.6808,-1.6592,-1.6164,-1.5693,-1.5733,-1.5844,-1.5218,-1.5119,-1.5299,-1.568,-1.4773,-1.3828,-1.3877,-1.318,-1.2365,-1.1748,-1.2177,-1.2202,-1.0981,-1.1694,-1.2607,-1.332,-1.3956,-1.4588,-1.5252,-1.5856,-1.6188,-1.62,-1.6188,-1.5516,-1.3811,-1.3928,-1.4778,-1.6396,-1.6414,-1.6084,-1.5431,-1.3841,-1.2967,-1.3002,-1.2954,-1.2961,-1.3004,-1.2968,-1.3972,-1.5935,-1.7944,-1.763,0.0,0.0,-2.4961,-2.4987,0.0,0.0,0.0,0.0,0.0,0.0,0.0,0.0,0.0,0.0,0.0,0.0,0.0,0.0,0.0,0.0,0.0,0.0,0.0,0.0,0.0,0.0,0.0,-2.4487,-2.4548,-2.4729,-2.5141,-2.5385,-2.5413,-2.5232,-2.5182,-2.5063,-2.4884,-2.4856,-2.4798,-2.4723,-2.4714,-2.4698,-2.4698,-2.4551,-2.3469,-2.1745,-2.2063,-2.0913,-1.8852,-1.9032,-1.9047,-1.8946,-1.8617,-1.8402,-1.8275,-1.8214,-1.8101,-1.7941,-1.7698,-1.7465,-1.7248,-1.7141,-1.6933,-1.6686,-1.6379,-1.6206,-1.5941,-1.525,-1.512,-1.5067,-1.4488,-1.4185,-1.3982,-1.3898,-1.3408,-1.295,-1.2914,-1.2675,-1.2294,-1.1799,-1.1748,-1.1502,-1.0822,-1.0848,-1.1261,-1.2163,-1.301,-1.3937,-1.4959,-1.5356,-1.5697,-1.6163,-1.5824,-1.5389,-1.4892,-1.39,-1.3988,-1.5655,-1.5721,-1.5142,-1.3791,-1.3214,-1.2927,-1.2876,-1.2878,-1.3382,-1.4331,-1.4382,-1.467,-1.5366,-1.7,-1.7564,-2.4856,-2.4856,0.0,-2.4917,-2.4903,0.0,-2.4977,0.0,0.0,0.0,0.0,0.0,0.0,0.0,0.0,0.0,0.0,0.0,0.0,-2.3446,0.0,0.0,0.0,0.0,0.0,0.0,-2.3555,-2.3479,-2.4072,-2.4497,0.0,0.0,-2.5398,-2.5213,-2.5111,-2.4961,-2.4783,-2.4749,-2.4738,-2.4695,-2.4398,-2.4401,-2.4679,-2.4236,-2.3287,-2.2044,-2.226,-2.0916,-1.8554,-1.8614,-1.8513,-1.8351,-1.8461,-1.8502,-1.8498,-1.8266,-1.8069,-1.7881,-1.771,-1.7489,-1.7289,-1.7199,-1.7025,-1.6801,-1.6394,-1.6143,-1.587,-1.5101,-1.4894,-1.4739,-1.4056,-1.3667,-1.3447,-1.3194,-1.2861,-1.2615,-1.2673,-1.2579,-1.233,-1.1847,-1.1505,-1.1159,-1.0677,-1.0534,-1.0722,-1.1339,-1.2484,-1.3643,-1.4612,-1.5276,-1.5825,-1.6281,-1.5944,-1.5718,-1.5739,-1.3976,-1.3372,-1.4437,-1.449,-1.392,-1.2679,-1.2647,-1.2601,-1.2638,-1.3314,-1.4174,-1.5116,-1.5108,-1.5085,-1.5137,-1.617,-1.7059]},{"header":{"parameterUnit":"m.s-1","parameterCategory":1,"la1":30.6,"la2":29.2853,"lo1":-89.7004,"lo2":-87.6739,"dy":0.0162,"dx":0.0183,"nx":112,"ny":82,"refTime":"2023-10-18T06:00:00:Z","depth":0,"parameterNumber":3,"parameterNumberName":"V-component_of_WINDS"},"data":[0.0,0.0,0.0,0.0,0.0,0.0,0.0,0.0,0.0,0.0,0.0,0.0,0.0,0.0,0.0,0.0,0.0,0.0,0.0,0.0,0.0,0.0,0.0,0.0,0.0,0.0,0.0,0.0,0.0,0.0,0.0,0.0,0.0,0.0,0.0,0.0,0.0,0.0,0.0,0.0,0.0,0.0,0.0,0.0,0.0,0.0,0.0,0.0,0.0,0.0,0.0,0.0,0.0,0.0,0.0,0.0,0.0,0.0,0.0,0.0,0.0,0.0,0.0,0.0,0.0,0.0,0.0,0.0,0.0,0.0,0.0,0.0,0.0,0.0,0.0,0.0,0.0,0.0,0.0,0.0,0.0,0.0,0.0,0.0,0.0,0.0,0.0,0.0,0.0,0.0,0.0,-1.6766,-1.8264,-1.9279,-1.9571,-1.9393,-1.8313,-1.6171,0.0,0.0,0.0,0.0,0.0,0.0,0.0,0.0,0.0,0.0,0.0,0.0,0.0,0.0,0.0,0.0,0.0,0.0,0.0,0.0,0.0,0.0,0.0,0.0,0.0,0.0,0.0,0.0,0.0,0.0,0.0,0.0,0.0,0.0,0.0,0.0,0.0,0.0,0.0,0.0,0.0,0.0,0.0,0.0,0.0,0.0,0.0,0.0,0.0,0.0,0.0,0.0,0.0,0.0,0.0,0.0,0.0,0.0,0.0,0.0,0.0,0.0,0.0,0.0,0.0,0.0,0.0,0.0,0.0,0.0,0.0,0.0,0.0,0.0,0.0,0.0,0.0,0.0,0.0,0.0,0.0,0.0,0.0,0.0,0.0,0.0,0.0,0.0,0.0,0.0,0.0,0.0,0.0,0.0,0.0,0.0,0.0,0.0,0.0,0.0,0.0,0.0,0.0,0.0,-1.6508,-1.8151,-1.8856,-1.9371,-1.9837,-1.9098,-1.8211,-1.7194,0.0,0.0,0.0,0.0,0.0,0.0,0.0,0.0,0.0,0.0,0.0,0.0,0.0,0.0,0.0,0.0,0.0,0.0,0.0,0.0,0.0,0.0,0.0,0.0,0.0,0.0,0.0,0.0,0.0,0.0,0.0,0.0,0.0,0.0,0.0,0.0,0.0,0.0,0.0,0.0,0.0,0.0,0.0,0.0,0.0,0.0,0.0,0.0,0.0,0.0,0.0,0.0,0.0,0.0,0.0,0.0,0.0,0.0,0.0,0.0,0.0,0.0,0.0,0.0,0.0,0.0,0.0,0.0,0.0,0.0,0.0,0.0,0.0,0.0,0.0,0.0,0.0,0.0,0.0,0.0,0.0,0.0,0.0,0.0,0.0,0.0,0.0,0.0,0.0,0.0,0.0,0.0,0.0,0.0,0.0,0.0,0.0,0.0,0.0,0.0,0.0,0.0,0.0,-1.6422,-1.72,-1.8382,-1.8962,-1.919,-1.8966,-1.8445,-1.7657,-1.6581,-1.6537,0.0,0.0,0.0,0.0,0.0,0.0,0.0,0.0,0.0,0.0,0.0,0.0,0.0,0.0,0.0,0.0,0.0,0.0,0.0,0.0,0.0,0.0,0.0,0.0,0.0,0.0,0.0,0.0,0.0,0.0,0.0,0.0,0.0,0.0,0.0,0.0,0.0,0.0,0.0,0.0,0.0,0.0,0.0,0.0,0.0,0.0,0.0,0.0,0.0,0.0,0.0,0.0,0.0,0.0,0.0,0.0,0.0,0.0,0.0,0.0,0.0,0.0,0.0,0.0,0.0,0.0,0.0,0.0,0.0,0.0,0.0,0.0,0.0,0.0,0.0,0.0,0.0,0.0,0.0,0.0,0.0,0.0,0.0,0.0,0.0,0.0,0.0,0.0,0.0,0.0,0.0,0.0,0.0,0.0,0.0,0.0,0.0,0.0,0.0,0.0,0.0,0.0,-1.7295,-1.7569,-1.8427,-1.8983,-1.8978,-1.8397,-1.7907,-1.7134,-1.6056,-1.5799,0.0,0.0,0.0,0.0,0.0,0.0,0.0,0.0,0.0,0.0,0.0,0.0,0.0,0.0,0.0,0.0,0.0,0.0,0.0,0.0,0.0,0.0,0.0,0.0,0.0,0.0,0.0,0.0,0.0,0.0,0.0,0.0,0.0,0.0,0.0,0.0,0.0,0.0,0.0,0.0,0.0,0.0,0.0,0.0,0.0,0.0,0.0,0.0,0.0,0.0,0.0,0.0,0.0,0.0,0.0,0.0,0.0,0.0,0.0,0.0,0.0,0.0,0.0,0.0,0.0,0.0,0.0,0.0,0.0,0.0,0.0,0.0,0.0,0.0,0.0,0.0,0.0,0.0,0.0,0.0,0.0,0.0,0.0,0.0,0.0,0.0,0.0,0.0,0.0,0.0,0.0,0.0,0.0,0.0,0.0,0.0,0.0,0.0,0.0,0.0,0.0,0.0,-1.6796,-1.7361,-1.859,-1.8765,-1.888,-1.8889,-1.7655,-1.6812,-1.6742,-1.5675,0.0,0.0,0.0,0.0,0.0,0.0,0.0,0.0,0.0,0.0,0.0,0.0,0.0,0.0,0.0,0.0,0.0,0.0,0.0,0.0,0.0,0.0,0.0,0.0,0.0,0.0,0.0,0.0,0.0,0.0,0.0,0.0,0.0,0.0,0.0,0.0,0.0,0.0,0.0,0.0,0.0,0.0,0.0,0.0,0.0,0.0,0.0,0.0,0.0,0.0,0.0,0.0,0.0,0.0,0.0,0.0,0.0,0.0,0.0,0.0,0.0,0.0,0.0,0.0,0.0,0.0,0.0,0.0,0.0,0.0,0.0,0.0,0.0,0.0,0.0,0.0,0.0,0.0,0.0,0.0,0.0,0.0,0.0,0.0,0.0,0.0,0.0,0.0,0.0,0.0,0.0,0.0,0.0,0.0,0.0,0.0,0.0,0.0,0.0,0.0,0.0,0.0,-1.6606,-1.7275,0.0,-1.8542,-1.846,-1.8408,-1.7335,-1.6408,-1.5687,0.0,0.0,0.0,0.0,0.0,0.0,0.0,0.0,0.0,0.0,0.0,0.0,0.0,0.0,0.0,0.0,0.0,0.0,0.0,0.0,0.0,0.0,0.0,0.0,0.0,0.0,0.0,0.0,0.0,0.0,0.0,0.0,0.0,0.0,0.0,0.0,0.0,0.0,0.0,0.0,0.0,0.0,0.0,0.0,0.0,0.0,0.0,0.0,0.0,0.0,0.0,0.0,0.0,0.0,0.0,0.0,0.0,0.0,0.0,0.0,0.0,0.0,0.0,0.0,0.0,0.0,0.0,0.0,0.0,0.0,0.0,0.0,0.0,0.0,0.0,0.0,0.0,0.0,0.0,0.0,0.0,0.0,0.0,0.0,0.0,0.0,0.0,0.0,0.0,0.0,0.0,0.0,0.0,0.0,0.0,0.0,0.0,0.0,0.0,0.0,0.0,0.0,-1.5945,-1.6462,-1.7084,0.0,-1.818,-1.8065,-1.7667,-1.6732,-1.5867,-1.5017,0.0,0.0,0.0,0.0,0.0,0.0,0.0,0.0,0.0,0.0,0.0,0.0,0.0,0.0,0.0,0.0,0.0,0.0,0.0,0.0,0.0,0.0,0.0,0.0,0.0,0.0,0.0,0.0,0.0,0.0,0.0,0.0,0.0,0.0,0.0,0.0,0.0,0.0,0.0,0.0,0.0,0.0,0.0,0.0,0.0,0.0,0.0,0.0,0.0,0.0,0.0,0.0,0.0,0.0,0.0,0.0,0.0,0.0,0.0,0.0,0.0,0.0,0.0,0.0,0.0,0.0,0.0,0.0,0.0,0.0,0.0,0.0,0.0,0.0,0.0,0.0,0.0,0.0,0.0,0.0,0.0,0.0,0.0,0.0,0.0,0.0,0.0,0.0,0.0,0.0,0.0,0.0,0.0,0.0,0.0,0.0,0.0,0.0,0.0,0.0,0.0,0.0,-1.5752,-1.626,-1.6795,-1.7432,-1.7849,-1.7685,-1.6677,-1.5842,-1.5223,0.0,0.0,0.0,0.0,0.0,0.0,0.0,0.0,0.0,0.0,0.0,0.0,0.0,0.0,0.0,0.0,0.0,0.0,0.0,0.0,0.0,0.0,0.0,0.0,0.0,0.0,0.0,0.0,0.0,0.0,0.0,0.0,0.0,0.0,0.0,0.0,0.0,0.0,0.0,0.0,0.0,0.0,0.0,0.0,0.0,0.0,0.0,0.0,0.0,0.0,0.0,0.0,0.0,0.0,0.0,0.0,0.0,0.0,0.0,0.0,0.0,0.0,0.0,0.0,0.0,0.0,0.0,0.0,0.0,0.0,0.0,0.0,0.0,0.0,0.0,0.0,0.0,0.0,0.0,0.0,0.0,0.0,0.0,0.0,0.0,0.0,0.0,0.0,0.0,0.0,0.0,0.0,0.0,0.0,0.0,0.0,0.0,0.0,0.0,0.0,0.0,0.0,0.0,-1.576,-1.5909,-1.6383,-1.7593,-1.7278,-1.6947,-1.6806,-1.5909,-1.512,-1.4515,0.0,0.0,0.0,0.0,0.0,0.0,0.0,0.0,0.0,0.0,0.0,0.0,0.0,0.0,0.0,0.0,0.0,0.0,0.0,0.0,0.0,0.0,0.0,0.0,0.0,0.0,0.0,0.0,0.0,0.0,0.0,0.0,0.0,0.0,0.0,0.0,0.0,0.0,0.0,0.0,0.0,0.0,0.0,0.0,0.0,0.0,0.0,0.0,0.0,0.0,0.0,0.0,0.0,0.0,0.0,0.0,0.0,0.0,0.0,0.0,0.0,0.0,0.0,0.0,0.0,0.0,0.0,0.0,0.0,0.0,0.0,0.0,0.0,0.0,0.0,0.0,0.0,0.0,0.0,0.0,0.0,0.0,0.0,0.0,0.0,0.0,0.0,0.0,0.0,0.0,0.0,0.0,0.0,0.0,0.0,0.0,0.0,0.0,0.0,0.0,0.0,0.0,-1.5177,-1.5524,-1.6021,-1.6878,-1.6655,-1.6342,-1.6038,-1.5455,-1.4737,-1.3955,0.0,0.0,0.0,0.0,0.0,0.0,0.0,0.0,0.0,0.0,0.0,0.0,0.0,0.0,0.0,0.0,0.0,0.0,0.0,0.0,0.0,0.0,0.0,0.0,0.0,0.0,0.0,0.0,0.0,0.0,0.0,0.0,0.0,0.0,0.0,0.0,0.0,0.0,0.0,0.0,0.0,0.0,0.0,0.0,0.0,0.0,0.0,0.0,0.0,0.0,0.0,0.0,0.0,0.0,0.0,0.0,0.0,0.0,0.0,0.0,0.0,0.0,0.0,0.0,0.0,0.0,0.0,0.0,0.0,0.0,0.0,0.0,0.0,0.0,0.0,0.0,0.0,0.0,0.0,0.0,0.0,0.0,0.0,0.0,0.0,0.0,0.0,0.0,0.0,0.0,0.0,0.0,0.0,0.0,0.0,0.0,0.0,0.0,0.0,0.0,0.0,0.0,-1.455,-1.5283,-1.5827,-1.5826,-1.6029,-1.5762,-1.4809,-1.4641,-1.4279,-1.3368,0.0,0.0,0.0,0.0,0.0,0.0,0.0,0.0,0.0,0.0,0.0,0.0,0.0,0.0,0.0,0.0,0.0,0.0,0.0,0.0,0.0,0.0,0.0,0.0,0.0,0.0,0.0,0.0,0.0,0.0,0.0,0.0,0.0,0.0,0.0,0.0,0.0,0.0,0.0,0.0,0.0,0.0,0.0,0.0,0.0,0.0,0.0,0.0,0.0,0.0,0.0,0.0,0.0,0.0,0.0,0.0,0.0,0.0,0.0,0.0,-1.4118,0.0,0.0,0.0,0.0,0.0,0.0,0.0,0.0,0.0,0.0,0.0,0.0,0.0,0.0,0.0,0.0,0.0,0.0,0.0,0.0,0.0,0.0,0.0,0.0,0.0,0.0,0.0,0.0,0.0,0.0,0.0,0.0,0.0,0.0,0.0,0.0,0.0,0.0,0.0,0.0,0.0,-1.618,-1.5815,-1.577,-1.6707,-1.5813,-1.5125,-1.4862,-1.4345,-1.3828,-1.333,-1.3491,0.0,0.0,0.0,0.0,0.0,0.0,0.0,0.0,0.0,0.0,0.0,0.0,0.0,0.0,0.0,0.0,0.0,0.0,0.0,0.0,0.0,0.0,0.0,0.0,0.0,0.0,0.0,0.0,0.0,0.0,0.0,0.0,0.0,0.0,0.0,0.0,0.0,0.0,0.0,0.0,0.0,0.0,0.0,0.0,0.0,0.0,0.0,0.0,0.0,0.0,0.0,0.0,0.0,0.0,0.0,0.0,0.0,0.0,0.0,0.0,-1.5378,0.0,0.0,0.0,0.0,0.0,0.0,0.0,0.0,0.0,0.0,0.0,0.0,0.0,0.0,0.0,0.0,0.0,0.0,0.0,0.0,0.0,0.0,0.0,0.0,0.0,0.0,0.0,0.0,0.0,0.0,0.0,0.0,0.0,0.0,0.0,0.0,0.0,0.0,0.0,0.0,-1.6093,-1.568,-1.5598,-1.6447,-1.5381,-1.4573,-1.4421,-1.393,-1.3497,-1.3132,-1.3203,0.0,0.0,0.0,0.0,0.0,0.0,0.0,0.0,0.0,0.0,0.0,0.0,0.0,0.0,0.0,0.0,0.0,0.0,0.0,0.0,0.0,0.0,0.0,0.0,0.0,0.0,0.0,0.0,0.0,0.0,0.0,0.0,0.0,0.0,0.0,0.0,0.0,0.0,0.0,0.0,0.0,0.0,0.0,0.0,0.0,0.0,0.0,0.0,0.0,0.0,0.0,0.0,0.0,-1.5778,-1.6964,-1.9349,-1.7963,-1.837,-1.9996,-1.8078,-1.7438,-1.7747,-1.759,0.0,0.0,0.0,0.0,0.0,0.0,0.0,0.0,0.0,0.0,0.0,0.0,0.0,0.0,0.0,0.0,0.0,0.0,0.0,0.0,0.0,0.0,0.0,0.0,-1.9829,-1.9168,0.0,0.0,0.0,0.0,0.0,0.0,0.0,0.0,0.0,0.0,0.0,0.0,-1.578,-1.5566,-1.5595,-1.6115,-1.5193,-1.4437,-1.4106,-1.3674,-1.3292,-1.3095,-1.3054,-1.312,0.0,0.0,0.0,0.0,0.0,0.0,0.0,0.0,0.0,0.0,0.0,0.0,0.0,0.0,0.0,0.0,0.0,0.0,0.0,0.0,0.0,0.0,0.0,0.0,0.0,0.0,0.0,0.0,0.0,0.0,0.0,0.0,-0.7605,-0.8429,0.0,0.0,0.0,0.0,0.0,0.0,0.0,0.0,0.0,0.0,0.0,0.0,0.0,-1.3048,-1.3406,-1.4369,-1.533,-1.6285,-1.7304,-1.8686,-2.0413,-2.0158,-2.0598,-2.1687,-2.134,0.0,-1.8201,-1.8577,0.0,0.0,0.0,0.0,0.0,0.0,0.0,0.0,0.0,0.0,0.0,0.0,0.0,0.0,0.0,0.0,0.0,0.0,0.0,0.0,0.0,0.0,-2.0733,-2.0547,-2.0819,-2.0783,0.0,-1.7986,-1.6669,-1.5941,-1.5307,0.0,0.0,0.0,0.0,0.0,0.0,0.0,-1.7025,-1.665,-1.6554,-1.7055,-1.6216,-1.5378,-1.4907,-1.4167,-1.3741,-1.3678,-1.3062,-1.3104,-1.4014,-1.3712,0.0,0.0,0.0,0.0,0.0,0.0,0.0,0.0,0.0,0.0,0.0,0.0,0.0,0.0,0.0,0.0,0.0,0.0,0.0,0.0,0.0,0.0,0.0,0.0,0.0,0.0,0.0,0.0,0.0,-0.7118,-0.7206,-0.782,-0.7923,-0.8251,0.0,0.0,0.0,0.0,0.0,0.0,0.0,0.0,0.0,-1.3434,-1.3685,-1.408,-1.4534,-1.5522,-1.6576,-1.7559,-1.7825,-1.8954,-2.0843,-2.0627,-2.1219,-2.2264,-2.2485,-2.1722,-2.0296,-1.9608,-1.8798,-1.7849,0.0,0.0,0.0,0.0,-1.7324,-1.7579,-1.809,-1.8192,0.0,-1.7814,0.0,0.0,0.0,0.0,0.0,0.0,0.0,0.0,0.0,0.0,-2.2545,-2.2435,-2.257,-2.2606,-2.2125,-2.0428,-1.8553,0.0,-1.688,-1.6477,-1.5624,0.0,0.0,0.0,0.0,-1.6068,-1.6871,-1.6417,-1.6261,-1.6763,-1.5662,-1.4953,-1.4996,-1.4206,-1.3716,-1.3821,-1.3786,-1.3903,-1.4165,-1.4643,-1.5322,0.0,0.0,0.0,0.0,0.0,0.0,0.0,0.0,0.0,0.0,0.0,0.0,0.0,0.0,0.0,0.0,0.0,0.0,0.0,0.0,0.0,0.0,0.0,0.0,0.0,0.0,0.0,0.0,-0.7166,-0.7307,-0.745,-0.8529,-0.9144,0.0,0.0,0.0,0.0,0.0,0.0,-1.2175,-1.2915,-1.3645,-1.4249,-1.4489,-1.4944,-1.5412,-1.6264,-1.7383,-1.8636,-1.8542,-1.9676,-2.1699,-2.1496,-2.1742,-2.261,-2.2858,-2.2588,-2.1893,-2.0574,-1.9592,-1.8792,-1.7761,-1.7637,-1.7965,-1.8041,-1.8123,-1.8294,-1.9179,-1.9268,-1.8916,-1.8572,-1.8499,-1.8218,-1.6632,0.0,0.0,0.0,0.0,-2.0025,-2.1578,-2.2787,-2.3604,-2.3737,-2.3664,-2.3496,-2.3232,-2.1825,-2.0112,0.0,-1.8295,-1.7881,-1.648,0.0,0.0,0.0,0.0,-1.5984,-1.6512,-1.6233,-1.6088,-1.6457,-1.5515,-1.4909,-1.5233,-1.4559,-1.4129,-1.4269,-1.4582,-1.4755,-1.4628,-1.549,-1.6138,-1.6356,0.0,0.0,0.0,0.0,0.0,0.0,0.0,0.0,0.0,0.0,0.0,0.0,0.0,0.0,0.0,0.0,0.0,0.0,0.0,0.0,0.0,0.0,0.0,0.0,0.0,0.0,0.0,0.0,0.0,-0.8721,-0.9579,0.0,0.0,0.0,0.0,-1.1356,-1.192,-1.2359,-1.2795,-1.3557,-1.414,-1.4401,-1.486,-1.5327,-1.5558,-1.5935,-1.7214,-1.9272,-1.9855,-2.1252,-2.3344,-2.3312,-2.3178,-2.316,-2.2871,-2.2486,-2.1936,-2.1148,-2.036,-1.9547,-1.8417,-1.8438,-1.8947,-1.7484,-1.7914,-1.9122,-1.8413,-1.8208,-1.8238,-1.8568,-1.8462,-1.8014,-1.7235,-1.7611,0.0,0.0,-1.9789,-2.0772,-2.3048,-2.334,-2.3147,-2.3652,-2.3388,-2.2751,-2.174,-2.1043,-2.0442,0.0,-1.8891,-1.7869,-1.6763,0.0,-1.6368,-1.5864,-1.5792,-1.5984,-1.6512,-1.6584,-1.6584,-1.6573,-1.6549,-1.6322,-1.5985,-1.5603,-1.5412,-1.5501,-1.5232,-1.5277,-1.57,-1.5901,-1.6262,-1.6829,-1.6973,0.0,0.0,0.0,0.0,0.0,0.0,0.0,0.0,0.0,0.0,0.0,0.0,0.0,0.0,0.0,0.0,0.0,0.0,0.0,0.0,0.0,0.0,0.0,0.0,0.0,0.0,0.0,0.0,-0.9996,-1.0716,0.0,-1.0435,-1.072,-1.1175,-1.1697,-1.2715,-1.3271,-1.329,-1.4053,-1.4631,-1.51,-1.5308,-1.5507,-1.5822,-1.5948,-1.681,-1.8383,-1.8616,-1.9666,-2.1517,-2.2196,-2.2528,-2.2485,-2.2745,-2.2724,-2.2295,-2.1533,-2.078,-2.0009,-1.9281,-1.8941,-1.8933,-1.8435,-1.8592,-1.9054,-1.89,-1.8679,-1.844,-1.8359,-1.8033,-1.7572,-1.7405,-1.7307,-1.7516,-1.862,-1.9552,-2.0527,-2.1925,-2.2859,-2.3364,-2.2871,-2.2606,-2.2282,-2.156,-2.0983,-2.0454,-1.9889,-1.8927,-1.7977,-1.7255,-1.6811,-1.6404,-1.5876,-1.5792,-1.5909,-1.6179,-1.6158,-1.617,-1.6304,-1.6023,-1.5837,-1.6113,-1.5724,-1.5348,-1.5116,-1.5265,-1.535,-1.5283,-1.5748,-1.6271,-1.6876,-1.6708,-1.6714,0.0,0.0,0.0,0.0,0.0,0.0,0.0,0.0,0.0,0.0,0.0,0.0,0.0,0.0,0.0,0.0,0.0,0.0,0.0,0.0,0.0,0.0,0.0,0.0,0.0,0.0,-1.0567,-1.0406,-1.1453,-1.1804,-1.0745,-1.1424,-1.1995,-1.2028,-1.2942,-1.3582,-1.3514,-1.4134,-1.46,-1.4993,-1.5235,-1.5471,-1.5707,-1.6183,-1.7161,-1.8389,-1.8855,-1.9788,-2.1288,-2.1857,-2.2205,-2.2267,-2.262,-2.2605,-2.2321,-2.1816,-2.1165,-2.0412,-1.9825,-1.9375,-1.9077,-1.8938,-1.895,-1.8984,-1.9076,-1.8843,-1.8544,-1.8231,-1.7925,-1.7726,-1.7637,-1.7393,-1.7417,-1.8794,-1.9449,-2.0006,-2.1353,-2.2318,-2.2799,-2.2089,-2.1921,-2.1728,-2.1007,-2.0574,-2.0177,-1.9612,-1.9095,-1.8506,-1.7796,-1.7243,-1.6727,-1.638,-1.6065,-1.5973,-1.6244,-1.6078,-1.6013,-1.62,-1.5824,-1.5768,-1.6231,-1.5944,-1.5572,-1.5139,-1.5418,-1.5488,-1.5269,-1.5749,-1.6273,-1.6876,-1.6554,-1.6703,-1.7253,0.0,0.0,0.0,0.0,0.0,0.0,0.0,0.0,0.0,0.0,0.0,0.0,0.0,0.0,0.0,0.0,0.0,0.0,0.0,0.0,0.0,0.0,0.0,-1.112,-1.1175,-1.0931,-0.9929,-1.1782,-1.2301,-1.0253,-1.1437,-1.2411,-1.2598,-1.2808,-1.3126,-1.3679,-1.4052,-1.4172,-1.4172,-1.4759,-1.5116,-1.5116,-1.6632,-1.8027,-1.9292,-2.058,-2.1744,-2.2862,-2.2517,-2.2518,-2.2782,-2.2245,-2.2021,-2.1978,-2.1978,-2.1533,-2.0788,-2.0035,-1.9591,-1.9443,-1.8875,-1.8757,-1.8939,-1.8775,-1.86,-1.8414,-1.8137,-1.8228,-1.8363,-1.8056,-1.7988,-1.8307,-1.9651,-1.9386,-1.926,-2.1531,-2.1753,-2.1368,-2.1356,-2.1356,-2.1067,-1.9985,-1.9756,-1.96,-1.9095,-1.9408,-1.942,-1.8386,-1.776,-1.7412,-1.7388,-1.659,0.0,-1.6706,-1.6418,-1.6212,-1.6225,-1.6225,-1.63,-1.643,-1.643,-1.6223,-1.5731,-1.5693,-1.5693,-1.5693,-1.5883,-1.6273,-1.6918,-1.6567,-1.6729,-1.7404,0.0,0.0,0.0,0.0,0.0,0.0,0.0,0.0,0.0,0.0,0.0,0.0,0.0,0.0,0.0,0.0,0.0,0.0,0.0,0.0,0.0,0.0,-1.2871,-1.242,-1.2725,-1.2729,-1.2064,-1.2567,-1.2743,-1.1957,-1.2447,-1.2887,-1.318,-1.3372,-1.3512,-1.3684,-1.3808,-1.3933,-1.4172,-1.4411,-1.4644,-1.5116,-1.558,-1.6514,-1.8027,-1.9183,-2.0338,-2.1249,-2.2063,-2.238,-2.2419,-2.2239,-2.1869,-2.1567,-2.1567,-2.1131,-2.0403,-2.0271,-1.993,-1.9501,-1.9236,-1.9154,-1.9167,-1.8852,-1.8685,-1.8571,-1.8218,-1.8088,-1.8047,-1.7686,-1.7935,-1.8304,-1.8488,-1.8959,-1.9561,-2.0294,-2.0634,-2.073,-2.0322,-2.0225,-2.0033,-1.936,-1.9203,-1.9167,-1.9023,-1.9107,-1.8987,-1.8326,-1.7822,-1.7388,-1.7024,-1.6495,0.0,-1.6473,-1.633,-1.6435,-1.7023,-1.7003,-1.7003,-1.7105,-1.7149,-1.6735,-1.5756,-1.5693,-1.5693,-1.5693,-1.5883,-1.6355,-1.7102,-1.7014,-1.7055,0.0,0.0,0.0,0.0,0.0,0.0,0.0,0.0,0.0,0.0,0.0,0.0,0.0,0.0,0.0,0.0,0.0,0.0,0.0,0.0,0.0,0.0,-1.3568,-1.367,-1.3786,-1.3916,-1.3905,-1.3492,-1.3551,-1.3335,-1.2819,-1.2845,-1.2901,-1.2901,-1.3286,-1.3444,-1.3444,-1.3569,-1.3808,-1.3933,-1.4172,-1.4411,-1.4883,-1.558,-1.6397,-1.7572,-1.9305,-2.0366,-2.0874,-2.1978,-2.2405,-2.2493,-2.2256,-2.181,-2.1413,-2.1413,-2.0874,0.0,0.0,0.0,0.0,0.0,-1.9073,-1.9116,-1.8957,-1.8824,-1.8682,-1.8427,-1.8155,-1.7969,-1.7715,-1.783,-1.8114,-1.8164,-1.8572,-1.9101,-1.9364,-1.9853,-2.0129,-1.9576,-1.9624,-1.9636,-1.9107,-1.8819,-1.8662,-1.8662,-1.8482,0.0,-1.8307,-1.7921,-1.7557,-1.7496,-1.6782,-1.6405,-1.6685,-1.6511,-1.6486,-1.6986,-1.6967,-1.6954,-1.7024,-1.7024,0.0,0.0,0.0,-1.5828,-1.5909,-1.6248,0.0,0.0,0.0,-1.7199,-1.7199,0.0,0.0,0.0,-1.8884,-1.9273,0.0,0.0,0.0,0.0,0.0,0.0,0.0,0.0,0.0,0.0,0.0,0.0,0.0,0.0,0.0,0.0,-1.434,-1.4659,-1.4967,-1.4822,-1.4576,-1.438,-1.4489,-1.4127,-1.3098,-1.3029,-1.279,-1.2285,-1.2831,-1.3154,-1.32,0.0,0.0,0.0,0.0,-1.4291,-1.4535,-1.5924,-1.6856,-1.722,-1.9774,-2.0902,-2.0929,-2.1924,-2.247,-2.2674,-2.2178,-2.1768,-2.1405,-2.1362,-2.0686,-1.9675,-1.9632,-1.9462,-1.9134,-1.8868,-1.8851,-1.9082,-1.9311,0.0,0.0,-1.873,-1.8366,-1.8008,-1.8008,-1.7891,-1.7884,-1.8384,-1.8404,-1.8391,-1.8893,-1.9336,-1.9576,-1.9095,-1.9348,-1.954,-1.9011,-1.853,-1.8181,-1.8121,-1.7736,-1.7605,-1.8226,-1.7885,-1.7727,-1.8262,-1.7291,-1.6654,-1.7057,-1.686,-1.6685,-1.6622,0.0,0.0,-1.6622,-1.6609,-1.6371,-1.586,-1.5929,-1.6105,-1.6294,-1.6731,-1.7086,-1.7199,-1.7199,-1.7199,-1.7199,-1.776,-1.7988,-1.7948,-1.8793,-1.9132,0.0,0.0,0.0,0.0,0.0,0.0,0.0,0.0,0.0,0.0,0.0,0.0,0.0,0.0,0.0,-1.3838,-1.4289,-1.4562,-1.5299,-1.5482,-1.5481,-1.5183,-1.4782,-1.442,-1.3831,-1.3266,-1.2883,-1.27,-1.2771,-1.2862,-1.3186,-1.3204,-1.3449,-1.3688,-1.3808,-1.3933,-1.4291,-1.4644,-1.4992,-1.558,0.0,0.0,-1.8938,-2.1139,-2.1973,-2.1915,-2.1494,-2.1352,-2.1388,-2.1105,-2.0309,-1.9256,-1.9117,-1.9085,-1.9048,-1.8976,-1.9161,-1.9478,-1.9557,-1.9258,-1.8941,-1.8941,-1.8498,-1.8008,-1.8008,-1.842,0.0,-1.8603,-1.8952,-1.9407,-1.9095,-1.9071,-1.9119,-1.9011,-1.9071,-1.8999,-1.847,-1.8277,-1.8073,-1.7652,-1.7545,-1.7618,-1.7715,-1.7385,-1.7343,-1.7968,-1.7563,-1.7087,-1.6691,-1.7343,-1.7714,-1.7262,-1.7614,-1.7735,-1.7346,-1.7308,-1.7111,-1.6705,-1.6667,-1.6764,-1.6834,-1.6938,-1.7086,-1.7199,-1.7199,-1.7253,-1.735,-1.7814,-1.7868,-1.7639,-1.8461,-1.8898,0.0,0.0,0.0,0.0,0.0,0.0,0.0,0.0,0.0,0.0,0.0,-0.9321,0.0,0.0,-1.1272,-1.2798,-1.3711,-1.4289,-1.455,-1.5252,-1.5638,-1.5424,-1.5199,-1.4708,-1.4142,-1.3473,-1.2932,-1.2655,-1.2673,-1.2754,-1.2951,-1.3084,-1.3324,-1.3688,-1.3688,-1.3813,-1.4172,-1.4172,-1.4759,-1.5811,-1.7787,-1.8964,-1.9327,-2.1154,-2.1989,-2.1981,-2.1445,-2.1293,-2.1336,-2.0412,-1.9692,-1.9204,-1.8794,-1.869,-1.8851,-1.8922,-1.9152,-1.9478,-1.9557,-1.9258,-1.8867,-1.8931,-1.8569,-1.7969,-1.7764,-1.8284,-1.8805,-1.8316,-1.876,-1.9324,-1.9059,-1.8987,-1.8987,-1.8987,-1.8847,-1.8645,-1.8379,-1.7945,-1.7533,-1.7265,-1.7056,-1.7005,-1.7355,-1.6995,-1.6913,-1.7517,-1.7505,-1.7275,-1.6986,-1.7723,-1.8185,-1.7907,-1.8215,-1.8185,-1.7658,-1.7352,-1.7127,-1.6986,-1.696,-1.7002,-1.7115,-1.7115,-1.7115,-1.7199,-1.7253,-1.735,-1.7404,-1.7706,-1.7774,-1.7625,-1.8135,-1.8397,0.0,0.0,0.0,0.0,0.0,0.0,0.0,0.0,-0.9124,-0.9375,-0.8972,-0.8932,-0.9965,-1.0325,-1.0728,-1.1676,-1.3085,-1.3843,-1.348,-1.4435,-1.5155,-1.5183,-1.5155,-1.4826,-1.4122,-1.3605,-1.3002,-1.2373,-1.2482,-1.256,-1.2715,-1.2964,-1.3324,-1.3688,-1.3688,-1.3808,-1.4052,-1.4052,-1.4852,-1.6323,-1.7824,-1.9146,-2.005,-2.1325,-2.1989,-2.2042,-2.142,-2.1134,-2.1088,-1.9735,-1.917,-1.9187,-1.8667,-1.8531,-1.8692,-1.8922,-1.9152,-1.939,-1.9557,-1.9258,-1.8794,-1.9004,-1.8569,-1.793,-1.751,-1.7818,-1.8266,-1.7947,-1.8328,-1.8881,-1.8987,-1.8987,-1.8999,-1.904,-1.879,-1.8479,-1.8273,-1.7677,-1.7097,-1.6831,-1.6495,-1.6423,-1.6933,-1.6691,-1.6592,-1.7177,-1.7343,-1.742,-1.742,-1.8092,-1.8541,-1.8439,-1.861,-1.8536,-1.7984,-1.7419,-1.717,-1.7213,-1.7096,-1.7073,-1.7199,-1.7199,-1.7199,-1.7199,-1.735,-1.7404,-1.7432,-1.761,-1.772,-1.772,-1.7868,-1.8016,-1.3339,-1.2805,-1.2167,-1.2607,-1.1539,-1.0545,0.0,0.0,-0.8905,-0.9185,-0.8759,-0.8594,-0.956,-1.0237,-1.0664,-1.1173,-1.2452,-1.3146,-1.2611,-1.363,-1.4202,-1.397,-1.4261,-1.438,-1.3862,-1.3404,-1.2785,-1.2303,-1.2077,-1.2188,-1.2711,-1.2719,-1.3084,-1.3688,-1.3688,-1.3688,-1.3808,-1.3808,-1.442,-1.5726,-1.7189,-1.8381,-1.9392,-2.0764,-2.1418,-2.1444,-2.1122,-2.0788,-2.0352,-1.9521,-1.917,-1.9187,-1.8839,-1.87,-1.8692,-1.8922,-1.924,-1.9636,-1.9794,-1.9478,-1.9004,-1.9224,-1.8711,-1.793,-1.751,-1.751,-1.7728,-1.783,-1.8036,-1.8321,-1.8881,-1.8987,-1.904,-1.917,-1.9133,-1.887,-1.7897,-1.7702,-1.7382,-1.6313,-1.6268,-1.6417,-1.648,-1.6473,-1.6666,-1.73,-1.7388,-1.742,-1.7555,-1.8456,-1.8974,-1.8605,-1.9003,-1.9127,-1.8727,-1.8247,-1.7952,-1.7996,-1.7457,-1.7199,-1.7199,-1.7199,-1.7199,-1.7199,-1.735,-1.7432,-1.7475,-1.7625,-1.776,-1.7882,-1.7962,-1.7988,-1.4115,-1.4294,-1.4307,0.0,-1.2459,-1.1929,-1.1502,-0.9843,-0.8555,-0.8516,-0.8264,-0.8135,-0.8477,-0.8842,-0.9155,0.0,-1.0658,-1.1542,-1.0988,-1.2313,-1.3062,-1.262,-1.2989,-1.3223,-1.3211,-1.2919,-1.2498,-1.2069,-1.2107,-1.2277,-1.2715,-1.284,-1.3204,-1.3688,-1.3688,-1.3688,-1.3688,-1.3928,-1.476,-1.6483,-1.7609,-1.8766,-2.0044,-2.102,-2.1242,-2.0884,-2.097,-2.0585,-1.9949,-1.9632,-1.9239,-1.8886,-1.8824,-1.8734,-1.8772,-1.9073,-1.9311,-1.9469,-1.9784,-1.9411,-1.8867,-1.9224,-1.8711,-1.7881,-1.7207,-1.7309,-1.7604,-1.7496,-1.7812,-1.8267,-1.8815,-1.8987,-1.904,-1.917,-1.9031,-1.8643,-1.8006,-1.7694,-1.7293,-1.6455,-1.6654,-1.6979,-1.6979,-1.7024,-1.7099,-1.735,-1.7453,-1.7599,-1.8033,-1.8571,-1.8986,-1.9279,-1.9188,-1.9175,-1.9352,-1.8865,-1.8571,-1.8571,-1.8336,-1.8048,-1.7735,-1.7721,-1.7565,-1.7212,-1.7378,-1.7447,-1.7516,-1.7706,-1.7949,-1.8254,-1.8016,-1.8135,-1.5251,-1.5635,0.0,-1.3838,-1.3117,-1.2478,-1.0978,-0.9101,-0.7754,-0.7678,-0.7547,-0.7469,-0.7482,-0.7582,0.0,-0.7336,-0.8754,-0.9723,-0.9286,-1.0659,-1.1663,-1.1733,-1.1878,-1.2093,-1.2356,-1.2406,-1.2264,-1.1968,-1.2209,-1.2427,-1.2715,-1.2964,-1.3324,-1.3688,-1.3688,-1.3688,-1.3688,-1.3989,-1.5014,-1.6936,-1.776,-1.8906,-2.0557,-2.0995,-2.0833,-2.0495,-2.0687,-2.0306,-1.9735,-1.9632,-1.9187,-1.8662,-1.8815,-1.8786,-1.878,-1.9152,-1.9301,-1.9381,-1.9784,-1.9402,-1.8803,-1.9151,-1.8711,-1.7871,-1.7323,-1.7375,-1.7594,-1.7639,-1.7867,-1.8267,-1.8881,-1.9052,-1.9105,-1.9275,-1.9074,-1.8783,-1.8324,-1.7884,-1.7438,-1.6817,-1.7087,-1.742,-1.7465,-1.7592,-1.7642,-1.7491,-1.7715,-1.7989,-1.841,-1.8789,-1.9235,-1.976,-1.942,-1.9394,-1.9982,-1.9499,-1.9159,-1.9159,-1.8989,-1.8728,-1.8336,-1.8179,-1.7891,-1.746,-1.7485,-1.7516,-1.7516,-1.7895,-1.8135,-1.8319,-1.8214,-1.8333,-1.6862,-1.6346,-1.5722,-1.4953,-1.3147,-1.1289,-1.0135,-0.8119,-0.6508,-0.6523,-0.6379,-0.6372,-0.6853,-0.7078,-0.6866,-0.6047,-0.6899,-0.7621,-0.7831,-0.8779,-0.9943,-1.13,-1.1176,-1.1102,0.0,-1.2146,-1.2347,-1.1955,-1.2212,-1.253,-1.2711,-1.2964,-1.3324,-1.3688,-1.3688,-1.3688,-1.3688,-1.3716,-1.4871,-1.6863,-1.7264,-1.8496,-2.0522,-2.0482,-2.0329,-2.0116,-2.0116,-1.9979,-1.971,-1.9341,-1.8956,-1.8637,-1.8698,-1.8709,-1.878,-1.9152,-1.9301,-1.9381,-1.9784,-1.9402,-1.8803,-1.9151,-1.8711,-1.8055,-1.8247,-1.7998,-1.7779,-1.8622,-1.8472,-1.8267,-1.8999,-1.917,-1.9275,-1.9512,-1.9604,-1.943,-1.8896,-1.8459,-1.7969,-1.7302,-1.7305,-1.742,-1.7555,-1.8045,-1.8211,-1.7753,-1.8287,-1.8693,-1.8601,-1.9279,-1.9786,-1.9799,-1.9786,-2.0009,-2.0633,-2.0113,-1.9773,-1.9773,-1.9224,-1.8898,-1.8885,-1.8375,-1.8087,-1.8074,-1.7697,-1.7516,-1.7516,-1.8147,-1.8293,-1.7922,-1.8528,-1.8567,-1.7382,-1.7072,-1.6341,-1.3803,-1.1954,-1.0243,-0.8168,-0.6354,-0.5157,-0.541,-0.5628,-0.5826,-0.5986,-0.6034,-0.5849,-0.5185,-0.6305,-0.6904,-0.6296,-0.8389,-0.993,-0.948,-1.0378,0.0,0.0,0.0,0.0,-1.1806,-1.2414,-1.2763,-1.3071,-1.3324,-1.3569,-1.3688,-1.3688,-1.4162,-1.4981,-1.5145,-1.6172,-1.787,-1.8793,-1.9762,-2.0814,-2.0559,-2.0335,-2.015,-1.9865,-1.943,-1.9098,-1.9144,-1.8802,-1.8237,-1.8848,-1.8913,-1.878,-1.9152,-1.9224,-1.9158,-1.938,-1.9259,-1.8893,-1.8883,-1.8467,-1.8055,-1.8332,-1.8268,-1.8239,-1.8861,-1.8904,-1.8873,-1.9243,-1.9328,-1.9368,-1.9565,-1.9617,-1.9467,-1.9033,-1.8833,-1.8593,-1.8109,-1.8311,-1.8646,-1.8789,-1.8942,-1.8926,-1.8467,-1.8649,-1.8812,-1.8773,-1.9386,-1.9656,-1.9251,-1.9564,-1.9878,-2.0074,-2.0257,-2.0424,-2.0424,-2.0227,-1.9721,-1.8937,-1.8728,-1.8283,-1.7512,-1.7499,-1.7516,-1.7516,-1.7895,-1.8293,-1.8683,-1.8397,-1.8655,-1.7465,-1.6526,-1.4993,-1.188,-0.9746,-0.7897,-0.5641,-0.4474,-0.402,-0.4518,-0.5017,-0.5328,-0.5352,-0.5245,-0.5066,-0.4921,-0.5211,-0.5601,-0.6055,-0.7636,-0.88,-0.9069,-0.9867,0.0,0.0,0.0,0.0,-1.1837,-1.2575,-1.3007,-1.309,-1.3526,-1.3688,-1.3688,-1.3688,-1.4162,-1.5105,-1.5525,-1.6672,-1.8557,-1.9762,-2.0538,-2.0718,-2.0369,-2.0117,-2.0038,-1.9649,-1.9256,-1.8835,-1.9093,-1.8725,-1.8066,-1.8786,-1.8904,-1.878,-1.9152,-1.9233,-1.9235,-1.9316,-1.9041,-1.8735,-1.866,-1.835,-1.8152,-1.8582,-1.8817,-1.8994,-1.9585,-1.9606,-1.9531,-1.9748,-1.9768,-1.9772,-1.9706,-1.9818,-1.987,-1.9371,-1.9158,-1.9018,-1.8748,-1.9012,-1.9302,-1.9436,-1.9497,-1.9542,-1.9495,-1.93,-1.9079,-1.8937,-1.9481,-1.9703,-1.931,-1.9488,-1.9719,-1.9917,-2.0237,-2.0447,-2.0447,-2.0594,-2.028,-1.9264,-1.9015,-1.8466,-1.7555,-1.7499,-1.7516,-1.757,-1.7935,-1.8372,-1.886,-1.8616,-1.8945,-1.6978,-1.4577,-1.1627,-0.9174,-0.669,-0.4437,-0.2875,-0.2613,-0.3052,-0.4025,-0.4762,-0.5195,0.0,0.0,-0.467,-0.5001,-0.3856,-0.3895,-0.6785,-0.6432,-0.6889,0.0,0.0,0.0,0.0,0.0,0.0,-1.1991,0.0,-1.3049,-1.2917,-1.3347,-1.3684,-1.3674,-1.3674,-1.3913,-1.4272,-1.4981,-1.66,-1.8848,-2.0197,-2.0734,-2.0377,-2.0027,-1.9774,-1.9706,-1.9602,-1.9223,-1.8826,-1.9042,-1.8691,-1.804,-1.8531,-1.87,-1.878,-1.9152,-1.9362,-1.9524,-1.9363,-1.886,-1.8399,-1.8572,-1.8478,-1.8405,-1.911,-1.9576,-2.002,-2.0754,-2.0646,-2.036,-2.0511,-2.0565,-2.0428,-1.996,-2.03,-2.0605,-1.9974,-1.9548,-1.9293,-1.9255,-1.9389,-1.9536,-1.962,-1.9777,-2.0035,-2.062,-2.0191,-1.9643,-1.9068,-1.9627,-2.003,-1.9991,-1.9628,-1.9567,-2.0134,-2.0059,-1.9991,-1.9991,-2.0434,-2.045,-1.9826,-1.9251,-1.8721,-1.8275,-1.7779,-1.7624,-1.7773,-1.8254,-1.85,-1.8539,-1.9147,-1.9406,-1.252,-1.0169,-0.7652,-0.4587,-0.2939,-0.1837,-0.1026,-0.1484,-0.2563,-0.4585,-0.5464,-0.584,0.0,0.0,0.0,-0.3916,-0.4193,0.0,-0.576,-0.7306,0.0,0.0,0.0,-1.0518,-1.1059,-1.1253,0.0,0.0,-1.2352,-1.2873,-1.3108,-1.3297,-1.3379,-1.3471,-1.3466,-1.4045,-1.5311,-1.7266,-1.8469,-1.9177,-2.0104,-2.0538,-2.0377,-2.0027,-1.9782,-1.9415,-1.8962,-1.8638,-1.851,-1.8388,-1.8211,-1.804,-1.8531,-1.87,-1.878,-1.9152,-1.9081,-1.8704,-1.8835,-1.8813,-1.8793,-1.8811,-1.8616,-1.8462,-1.9375,-1.9998,-2.0522,-2.1235,-2.1541,-2.1579,-2.1436,-2.1335,-2.1187,-2.1091,-2.1277,-2.1281,-2.0749,-2.0601,-2.0527,-2.0218,-2.0291,-2.0377,-2.0427,-2.044,-2.0529,-2.0686,-2.0644,-2.0562,-2.0404,-2.0571,-2.0541,-2.0173,-2.0034,-1.9834,-1.9541,-1.9914,-2.0167,-2.0167,-2.0594,-2.0562,-1.9969,-1.9703,-1.9336,-1.8869,-1.8402,-1.8251,-1.8378,-1.8462,-1.8693,-1.902,-1.9295,-1.9588,-0.9472,-0.6579,-0.3783,-0.1229,0.0328,0.1141,0.0461,-0.0911,-0.264,-0.4974,-0.6161,0.0,0.0,0.0,0.0,0.0,0.0,0.0,-0.5887,-0.7326,-0.8646,0.0,-1.0049,0.0,-1.1272,-1.1406,-1.1604,0.0,-1.2383,-1.2839,-1.3063,-1.3278,-1.3398,-1.3523,-1.3433,-1.3983,-1.536,-1.6888,-1.8205,-1.9091,-1.9502,-1.9968,-2.0377,-1.9876,-1.9638,-1.9501,0.0,-1.8613,-1.8596,-1.8354,-1.8186,-1.804,-1.8531,-1.87,-1.878,-1.9152,-1.9173,-1.8956,-1.9184,-1.9163,-1.9035,-1.8765,-1.8604,-1.8674,-1.932,-2.0031,-2.0749,-2.141,-2.1728,-2.1897,-2.2046,-2.2027,-2.1908,-2.1655,-2.1893,-2.2031,-2.1549,-2.1517,-2.1443,-2.1043,-2.0977,-2.0949,-2.0751,-2.0699,-2.0712,-2.0775,-2.0838,-2.0938,-2.1023,-2.101,-2.0926,-2.0689,-2.0456,-2.0113,-1.9503,-1.9986,-2.0167,-1.99,-2.0545,-2.0541,-1.9621,-1.9845,-1.9582,-1.88,-1.8582,-1.8564,-1.8679,-1.8849,-1.9027,-1.9207,-1.9834,-2.0233,-0.664,-0.2936,0.0264,0.1725,0.3189,0.3623,0.1353,-0.0896,-0.3274,-0.5575,0.0,0.0,-0.5698,0.0,-0.3784,-0.3125,0.0,-0.4067,-0.6661,-0.7251,-0.8252,-1.0058,-1.0353,-1.0658,-1.1398,-1.1624,-1.1661,-1.1752,-1.246,-1.2836,-1.2836,-1.3351,-1.3665,-1.3608,-1.3438,-1.3824,-1.4581,-1.5372,-1.6769,-1.8603,-1.8694,-1.9235,-2.0297,-1.9662,-1.9525,-1.9617,-1.9175,0.0,-1.8801,-1.8616,-1.8404,-1.8121,-1.8531,-1.8772,-1.8772,-1.9152,-1.9353,-1.9552,-1.9722,-1.9487,-1.9,-1.8666,-1.8708,-1.8875,-1.9131,-1.9922,-2.0828,-2.1376,-2.1691,-2.1965,-2.2493,-2.2738,-2.2668,-2.2102,-2.2526,-2.2902,-2.2444,-2.2317,-2.2137,-2.1616,-2.1511,-2.1406,-2.0908,-2.0751,-2.0801,-2.098,-2.099,-2.1023,-2.118,-2.118,-2.1229,-2.1229,-2.0799,-2.0292,-1.9849,-2.0124,-2.0105,-1.9553,-2.0341,-2.0332,-1.933,-1.9887,-1.9733,-1.8692,-1.8698,-1.88,-1.9014,-1.9404,-1.9545,-1.9465,-2.0563,-2.0956,-0.0895,0.2572,0.4818,0.5714,0.5068,0.3467,0.0779,-0.1714,0.0,0.0,0.0,-0.7811,-0.6785,-0.6116,0.0,-0.4405,0.0,0.0,0.0,0.0,-0.9083,0.0,0.0,0.0,0.0,0.0,0.0,0.0,0.0,-1.2431,-1.2671,-1.3066,-1.3291,-1.3188,-1.337,-1.3375,-1.3262,-1.4959,-1.6331,-1.7423,-1.8271,-1.9115,-1.994,-1.955,-1.9389,-1.9236,-1.8692,0.0,-1.8776,-1.8499,-1.8414,-1.8353,-1.8763,-1.8922,-1.9002,-1.9222,-1.9247,-1.9068,-1.8976,-1.8762,-1.8666,-1.9494,-1.9479,-1.9142,-1.9605,-2.0431,-2.1262,-2.1187,-2.2077,-2.3059,-2.2915,-2.3238,-2.3664,-2.3548,-2.3806,-2.3874,-2.3392,-2.2974,-2.2498,-2.1825,-2.1654,-2.1628,-2.1523,-2.1141,-2.1046,-2.1648,-2.1402,-2.1144,-2.118,-2.118,-2.1229,-2.1375,-2.0847,-2.0454,-2.0346,-2.0007,-1.9764,-1.9655,-1.9728,-1.9865,-2.0174,-2.0174,-2.0134,-2.004,-1.9588,-1.9584,-2.0104,-2.0024,-2.0244,-2.0706,-2.1224,-2.1058,-0.1295,0.3244,0.6792,0.7069,0.5647,0.3282,0.0,0.0,0.0,0.0,0.0,-0.8104,-0.6413,0.0,0.0,0.0,0.0,0.0,0.0,0.0,0.0,0.0,0.0,0.0,0.0,0.0,0.0,0.0,0.0,-1.2238,-1.2479,-1.287,-1.3034,-1.3074,-1.3079,-1.3097,-1.2881,-1.383,-1.514,-1.6886,-1.7264,-1.8167,-1.9598,-1.9248,-1.8991,-1.8896,-1.8521,0.0,-1.8498,-1.8434,-1.8442,-1.8442,-1.8843,-1.9002,-1.8993,-1.9231,-1.934,-1.9456,-1.9344,-1.9314,-1.9399,-1.9939,-1.9612,-1.9116,-1.9903,-2.0576,-2.121,-2.1553,-2.2372,-2.3185,-2.3378,-2.3688,-2.4008,-2.4008,-2.4274,-2.4469,-2.4146,-2.3966,-2.3647,-2.2897,-2.2485,-2.218,-2.1862,-2.1345,-2.1103,-2.1469,-2.1368,-2.1229,-2.1277,-2.1277,-2.1326,-2.1375,-2.1117,-2.082,-2.0522,-2.0568,-2.046,-2.0161,-2.0075,-1.997,-1.9925,-1.9925,-1.9777,-1.9467,-1.926,-1.9551,-2.0387,-2.0602,-2.0822,-2.1036,-2.1807,-2.1596,-0.2703,0.3485,0.8898,0.8553,0.6197,0.297,-0.0385,-0.4054,0.0,0.0,0.0,-0.8078,-0.6101,0.0,0.0,0.0,0.0,0.0,0.0,0.0,0.0,0.0,0.0,0.0,0.0,0.0,0.0,0.0,0.0,0.0,-1.2299,-1.26,-1.2869,-1.2894,-1.2852,-1.2774,-1.2772,-1.2874,-1.4113,-1.6381,-1.6209,-1.7209,-1.9257,-1.8915,-1.8664,-1.8661,-1.8374,0.0,0.0,-1.8357,-1.8442,-1.8523,-1.8843,-1.9002,-1.9073,-1.9222,-1.9539,-1.9854,-1.9769,-1.9851,-2.0044,-2.005,-1.9604,-1.9137,-1.9948,-2.0501,-2.0955,-2.1678,-2.2359,-2.3053,-2.3556,-2.3923,-2.4157,-2.4229,-2.4563,-2.4778,-2.4734,-2.4778,-2.4603,-2.3901,-2.3419,-2.2951,-2.2456,-2.18,-2.1372,-2.1605,-2.139,-2.1277,-2.1375,-2.1423,-2.1423,-2.1423,-2.1423,-2.1233,-2.0711,-2.0996,-2.0982,-2.0522,-2.0251,-1.9967,-1.9539,-1.952,-1.9222,-1.865,-1.8848,-1.9377,-2.0316,-2.0892,-2.1255,-2.136,-2.2113,-2.2008,-0.1396,0.6247,1.3487,1.2436,0.7615,0.256,0.0392,0.0,0.0,0.0,-0.8971,-0.7627,-0.688,-0.5457,0.0,0.0,0.0,0.0,0.0,0.0,0.0,0.0,0.0,0.0,0.0,0.0,0.0,0.0,0.0,0.0,-1.246,-1.2512,-1.2543,-1.2347,-1.2665,-1.2663,-1.2441,-1.2564,-1.3704,-1.5847,-1.5799,-1.7001,-1.9043,-1.8561,-1.8522,-1.8645,-1.8214,0.0,0.0,-1.8357,-1.8523,-1.87,-1.8922,-1.9073,-1.9301,-1.9301,-1.9539,-1.9885,-1.9515,-1.9343,-1.9419,-1.9825,-1.9748,-1.9671,-1.9841,-2.0292,-2.07,-2.106,-2.2002,-2.2919,-2.316,-2.3695,-2.4363,-2.4664,-2.4835,-2.5005,-2.4948,-2.4948,-2.4829,-2.4191,-2.4028,-2.3974,-2.392,-2.2997,-2.2454,-2.2931,-2.2079,-2.1375,-2.1423,-2.1423,-2.1423,-2.1423,-2.1423,-2.1396,-2.1342,-2.0847,-2.0549,-2.0495,-1.9524,-1.9157,-1.9673,-1.9157,-1.8874,-1.8764,-1.9142,-1.9608,-2.0146,-2.0608,-2.1386,-2.244,-2.2003,-2.1815,-1.1778,0.0914,1.4202,0.6348,0.3076,0.1355,-0.0238,0.0,0.0,-1.0855,-0.896,-0.7042,-0.658,-0.5051,-0.3831,0.0,0.0,0.0,0.0,0.0,0.0,0.0,0.0,0.0,0.0,0.0,0.0,0.0,0.0,0.0,-1.1638,-1.1793,-1.2055,-1.2315,-1.2307,-1.2251,-1.2261,-1.2264,-1.3312,-1.5363,-1.5473,-1.6633,-1.866,-1.8435,-1.8273,-1.8145,-1.7997,0.0,0.0,-1.8181,-1.8523,-1.87,-1.8922,-1.9152,-1.9301,-1.9469,-1.9627,-1.9923,-1.9917,-1.9976,-2.0046,-2.0038,-1.9951,-1.9998,-2.0101,-2.0675,-2.125,-2.1616,-2.2616,-2.3616,-2.3675,-2.4073,-2.4536,-2.4721,-2.4892,-2.5005,-2.5118,-2.5118,-2.5106,-2.4984,-2.4627,-2.442,-2.442,-2.3365,-2.2652,-2.2899,-2.2199,-2.1664,-2.1664,-2.1568,-2.1568,-2.1616,-2.1568,-2.152,-2.152,-2.1397,-2.1293,-2.1293,-2.0511,-2.0004,-1.9894,-1.9261,-1.8713,-1.8331,-1.8681,-1.9276,-2.0084,-2.0647,-2.1283,-2.1994,-2.1839,-2.1802,-1.4374,-0.1658,1.2794,0.6394,0.0873,-0.2601,0.0,0.0,0.0,-1.1038,-0.8734,-0.658,-0.5932,-0.4614,-0.3639,0.0,0.0,0.0,0.0,0.0,0.0,0.0,0.0,0.0,0.0,0.0,0.0,0.0,0.0,0.0,0.0,-1.111,-1.1441,-1.189,-1.1914,-1.1962,-1.1931,-1.1968,-1.2957,-1.4857,-1.5063,-1.6129,-1.7842,-1.7951,-1.7777,-1.7243,-1.7508,0.0,0.0,-1.7951,-1.8362,-1.87,-1.8851,-1.9073,-1.9301,-1.9557,-1.9715,-1.9942,-2.0186,-2.0333,-2.033,-2.0099,-1.9981,-1.994,-2.0039,-2.0577,-2.1187,-2.1678,-2.2798,-2.3852,-2.4099,-2.439,-2.462,-2.4778,-2.4892,-2.5005,-2.5118,-2.5118,-2.5174,-2.5369,-2.5067,-2.4818,-2.4886,-2.3895,-2.3193,-2.3193,-2.2683,-2.2297,-2.2297,-2.2248,-2.2179,-2.2083,-2.2021,-2.1904,-2.1678,-2.1746,-2.1793,-2.1793,-2.1227,-2.0633,-1.9982,-1.9512,-1.8893,-1.8161,-1.8683,-1.93,-2.0,-2.0585,-2.1106,-2.1588,-2.1547,-2.1555,-0.4056,0.1254,0.9366,1.6686,0.3058,-0.9946,0.0,0.0,0.0,-1.0477,-0.826,-0.6256,-0.5011,-0.4274,-0.3885,-0.4208,0.0,0.0,0.0,0.0,0.0,0.0,0.0,0.0,0.0,0.0,0.0,0.0,0.0,0.0,0.0,-1.0696,-1.0802,-1.1131,-1.1496,-1.1718,-1.1713,-1.1522,-1.2509,-1.4574,-1.4594,-1.5168,-1.6281,-1.7047,-1.6896,0.0,0.0,0.0,0.0,-1.7619,-1.8112,-1.87,-1.87,-1.8922,-1.9301,-1.9557,-1.9715,-1.9942,-2.0186,-2.013,-1.9928,-1.9862,-1.9636,-1.9548,-1.9565,-1.9747,-2.0053,-2.088,-2.2113,-2.3267,-2.4105,-2.4421,-2.462,-2.4778,-2.4892,-2.5005,-2.5005,-2.5005,-2.5061,-2.5174,-2.523,-2.523,-2.5481,-2.4847,-2.4259,-2.4259,-2.3806,-2.3475,-2.3475,-2.3578,-2.3432,-2.276,-2.279,-2.2603,-2.1848,-2.1793,-2.1793,-2.1793,-2.1227,-2.0588,-1.985,-1.9823,-1.9362,-1.8489,-1.9477,-1.9879,-1.969,-2.0254,-2.0886,-2.1577,-2.1144,-2.1023,-1.9905,-0.7728,0.7126,-0.3932,-0.9463,-1.1019,-0.66,0.0,0.0,-1.0448,-0.7728,-0.5675,-0.486,-0.3496,-0.2894,-0.4141,-0.4528,0.0,0.0,0.0,0.0,0.0,0.0,0.0,0.0,0.0,0.0,0.0,0.0,0.0,0.0,-1.0474,-1.0625,-1.0949,-1.1215,-1.1375,-1.1307,-1.1383,-1.2422,-1.4395,-1.3737,-1.4316,-1.5986,-1.5457,-1.5071,0.0,0.0,0.0,0.0,-1.7367,-1.8031,-1.8523,-1.862,-1.8851,-1.9152,-1.9636,-1.9872,-1.9942,-2.0333,-2.0566,-2.0493,-2.0109,-2.0134,-2.024,-1.9916,-2.0194,-2.0828,-2.2101,-2.2774,-2.3267,-2.4105,-2.4421,-2.462,-2.4778,-2.4948,-2.5174,-2.5313,-2.5411,-2.5508,-2.5674,-2.5619,-2.5564,-2.5633,-2.5064,-2.4662,-2.4662,-2.4124,-2.3727,-2.3733,-2.3294,-2.2962,-2.2845,-2.2588,-2.23,-2.1963,-2.2044,-2.2091,-2.2091,-2.1815,-2.1333,-2.0737,-2.0843,-2.0626,-1.9864,-2.0264,-2.0444,-2.0385,-2.047,-2.0704,-2.1144,-2.1547,-2.1808,0.0,-1.0218,-0.0284,-0.5832,-1.1445,0.0,0.0,0.0,0.0,0.0,-0.7021,-0.5084,-0.4376,-0.3401,-0.3139,-0.4453,0.0,0.0,0.0,0.0,0.0,0.0,0.0,0.0,0.0,0.0,0.0,0.0,0.0,0.0,0.0,-0.9968,-1.0091,-1.0338,-1.0758,-1.0958,-1.0914,-1.1454,-1.2268,-1.3553,-1.3199,-1.3579,-1.4469,-1.419,-1.3883,0.0,0.0,0.0,0.0,-1.7123,-1.7951,-1.8531,-1.862,-1.8851,-1.9152,-1.9706,-1.9863,-1.9913,-2.0217,-2.0409,-2.0424,-1.9907,-1.9998,-2.0244,-2.0051,-2.027,-2.0892,-2.2298,-2.2774,-2.3075,-2.4118,-2.4549,-2.4734,-2.4892,-2.5061,-2.5244,-2.5439,-2.5592,-2.5633,-2.5743,-2.5633,-2.5564,-2.5633,-2.5204,-2.4901,-2.5077,-2.4696,-2.4441,-2.4518,-2.417,-2.3937,-2.3806,-2.3526,-2.3186,-2.2611,-2.2405,-2.2278,-2.2278,-2.2091,-2.1811,-2.1316,-2.1662,-2.1555,-2.0947,-2.0996,-2.1016,-2.0946,-2.0713,-2.0711,-2.0909,-2.1503,-2.1859,0.0,0.0,0.0,0.0,0.0,0.0,0.0,0.0,0.0,0.0,0.0,0.0,0.0,-0.3785,-0.431,-0.5098,0.0,0.0,0.0,0.0,0.0,0.0,0.0,0.0,0.0,0.0,0.0,0.0,0.0,0.0,-0.9339,-0.9425,-0.9442,-0.947,-0.9965,-1.0373,-1.069,-1.1366,-1.2005,-1.2382,-1.2951,-1.2788,-1.212,-1.3061,-1.3089,0.0,0.0,0.0,0.0,-1.6886,-1.7797,-1.862,-1.87,-1.8922,-1.9301,-1.9706,-1.9863,-1.9885,-1.9916,-1.9912,-1.985,-1.9424,-1.939,-1.9681,-2.0009,-2.014,-2.0453,-2.1741,-2.2224,-2.2701,-2.4247,-2.4734,-2.4892,-2.5118,-2.523,-2.53,-2.5494,-2.5494,-2.555,-2.555,-2.5355,-2.5286,-2.5494,-2.5257,-2.5188,-2.5494,-2.5494,-2.5536,-2.5674,-2.5851,-2.576,-2.5246,-2.5265,-2.479,-2.3598,-2.2861,-2.2473,-2.2417,-2.2137,-2.1917,-2.1669,-2.2181,-2.2264,-2.1854,-2.1734,-2.1561,-2.1357,-2.0986,-2.084,-2.0909,-2.1103,-2.1247,-0.2765,0.0,-0.3979,-0.4304,0.0,0.0,0.0,0.0,0.0,0.0,0.0,0.0,0.0,0.0,0.0,0.0,0.0,0.0,0.0,0.0,0.0,0.0,0.0,0.0,0.0,0.0,0.0,0.0,0.0,0.0,-0.9007,-0.9102,-0.9161,-0.9091,-0.9261,-0.9551,-1.0186,-1.0426,-1.1058,-1.2099,-1.1151,-1.1115,-1.1849,-1.1314,-1.1116,0.0,0.0,0.0,-1.5039,-1.5959,-1.7041,-1.8201,-1.8531,-1.8772,-1.8931,-1.9627,-1.9863,-1.9885,-1.9916,-1.9987,-2.0064,-1.9848,-1.9729,-1.9671,-2.0205,-2.0711,-2.1262,-2.1928,-2.2652,-2.3518,-2.4376,-2.4778,-2.5005,-2.5174,-2.5397,-2.5619,-2.5633,-2.5743,-2.5798,-2.5798,-2.5674,-2.5619,-2.5633,-2.5564,-2.5564,-2.5633,-2.5632,-2.5673,-2.5839,-2.5092,-2.4732,-2.5137,-2.4582,-2.4027,-2.3665,-2.3307,-2.288,-2.2445,-2.2137,-2.21,-2.2298,-2.2727,-2.3025,-2.3146,-2.2543,-2.1707,-2.0727,-2.0821,-2.0939,-2.107,-2.1199,-2.1358,-0.2485,-0.3778,-0.6256,-0.5,-0.9174,-1.2905,0.0,0.0,0.0,0.0,0.0,0.0,0.0,0.0,0.0,0.0,0.0,0.0,0.0,0.0,0.0,0.0,0.0,0.0,0.0,0.0,0.0,0.0,0.0,-0.7841,-0.8072,-0.8192,-0.8307,-0.8512,-0.8523,-0.8898,-0.9565,-1.0032,-1.0491,-1.0862,-1.0542,-1.0558,-1.0813,-1.0435,-1.0467,0.0,0.0,0.0,-1.4196,-1.5039,-1.6288,-1.7538,-1.7951,-1.8442,-1.8931,-1.9557,-1.9784,-1.9856,-1.9543,-1.9438,-1.9312,-1.9397,-1.9551,-1.9671,-2.0129,-2.0816,-2.1565,-2.1803,-2.247,-2.3327,-2.4105,-2.4708,-2.5174,-2.5397,-2.5564,-2.5729,-2.5784,-2.5839,-2.5893,-2.5893,-2.5784,-2.5674,-2.5633,-2.5592,-2.5605,-2.5605,-2.5715,-2.5865,-2.599,-2.5516,-2.5236,-2.5364,-2.5009,-2.449,-2.3869,-2.3545,-2.3131,-2.2505,-2.2231,-2.2263,-2.2558,-2.2934,-2.32,-2.3455,-2.2809,-2.1999,-2.0992,-2.1014,-2.1181,-2.1503,-2.1746,-2.1905,-0.1494,-0.6343,-0.982,-0.1097,-0.4606,-0.9682,0.0,0.0,0.0,0.0,0.0,0.0,0.0,0.0,0.0,0.0,0.0,0.0,0.0,0.0,0.0,0.0,0.0,0.0,0.0,0.0,0.0,0.0,0.0,-0.6864,-0.7127,-0.712,-0.7392,-0.7844,-0.784,-0.8199,-0.8814,-0.9777,-0.9979,-0.9534,-1.0304,-1.0294,-0.9602,-1.0033,-1.0381,-1.0727,0.0,0.0,-1.3464,-1.4379,-1.5629,-1.7041,-1.7365,-1.8052,-1.9002,-1.9399,-1.9715,-1.9828,-1.9219,-1.873,-1.8337,-1.8741,-1.9142,-1.9605,-2.0042,-2.0741,-2.1439,-2.1553,-2.2163,-2.3015,-2.3904,-2.4681,-2.5342,-2.5619,-2.5729,-2.5784,-2.5893,-2.5893,-2.5893,-2.5839,-2.5784,-2.566,-2.555,-2.5536,-2.555,-2.5605,-2.5785,-2.5976,-2.603,-2.6204,-2.6183,-2.5686,-2.5646,-2.5203,-2.4123,-2.3745,-2.3273,-2.2658,-2.237,-2.2402,-2.2785,-2.2981,-2.3148,-2.3341,-2.2885,-2.2337,-2.1795,-2.1542,-2.1713,-2.2215,-2.2525,-2.2671,-0.2723,-0.2947,-0.2542,0.1559,-0.1556,-0.5381,0.0,0.0,0.0,0.0,0.0,0.0,0.0,0.0,0.0,0.0,0.0,0.0,0.0,0.0,0.0,0.0,0.0,0.0,0.0,0.0,0.0,0.0,0.0,0.0,-0.6938,-0.6935,-0.6979,-0.7139,-0.7407,-0.7619,-0.7756,-0.8489,-0.9001,-0.9268,-0.9261,-0.9345,-0.9602,-0.9689,-0.9946,-1.0381,0.0,-1.2469,-1.3559,-1.4639,-1.587,-1.7175,-1.756,-1.8162,-1.8772,-1.9231,-1.9539,-1.9818,-1.9367,-1.8862,-1.8405,-1.8875,-1.9208,-1.9483,-2.0335,-2.0593,-2.0711,-2.1262,-2.2592,-2.3962,-2.4637,-2.5216,-2.5619,-2.5674,-2.5784,-2.5893,-2.5893,-2.5893,-2.5853,-2.5757,-2.5701,-2.5673,-2.5647,-2.5661,-2.5758,-2.5992,-2.6046,-2.5948,-2.5694,-2.5706,-2.5771,-2.583,-2.5357,-2.4962,-2.467,-2.4148,-2.3537,-2.2824,-2.2385,-2.254,-2.3275,-2.3041,-2.3122,-2.3538,-2.2989,-2.2708,-2.2686,-2.281,-2.2965,-2.3112,-2.3314,-2.3462,-0.2375,-0.162,-0.0916,0.0607,-0.1477,-0.3827,0.0,0.0,0.0,0.0,0.0,0.0,0.0,0.0,0.0,0.0,0.0,0.0,0.0,0.0,0.0,0.0,0.0,0.0,0.0,0.0,0.0,0.0,0.0,0.0,-0.6441,-0.6441,-0.6506,-0.6709,-0.6982,-0.7128,-0.7323,-0.7752,-0.8236,-0.867,-0.8681,-0.8907,-0.9257,-0.9515,-0.9777,-1.0202,0.0,-1.1562,-1.2893,-1.3244,-1.4504,-1.6285,-1.6752,-1.7569,-1.8442,-1.8981,-1.9291,-1.9496,-1.8956,-1.8752,-1.8645,-1.8879,-1.9208,-1.9671,-2.0764,-2.1083,-2.1313,-2.2604,-2.3195,-2.3623,-2.4221,-2.5034,-2.5729,-2.5784,-2.5839,-2.5893,-2.5893,-2.5893,-2.5893,-2.5798,-2.5825,-2.577,-2.5702,-2.5508,-2.5425,-2.5814,-2.5809,-2.5785,-2.5973,-2.6112,-2.6012,-2.5388,-2.5048,-2.4592,-2.3829,-2.3511,-2.3144,-2.2824,-2.2491,-2.254,-2.3113,-2.3167,-2.3356,-2.38,-2.3491,-2.3337,-2.3433,-2.3269,-2.3434,-2.3881,-2.3786,-2.3936,-0.1687,-0.0967,-0.0668,-0.0534,0.0,0.0,0.0,0.0,0.0,0.0,0.0,0.0,0.0,0.0,0.0,0.0,0.0,0.0,0.0,0.0,0.0,0.0,0.0,0.0,0.0,0.0,0.0,0.0,0.0,0.0,-0.5818,-0.5906,-0.5993,-0.6253,-0.643,-0.6608,-0.6863,-0.7302,-0.7687,-0.8113,-0.8376,-0.8619,-0.8761,-0.9492,-0.9894,-1.0052,-1.0526,-1.1433,-1.2551,-1.2529,-1.3787,-1.5597,-1.5975,-1.6935,-1.8032,-1.855,-1.8882,-1.8947,-1.8538,-1.8514,-1.8706,-1.8785,-1.9198,-1.9911,-2.088,-2.1502,-2.2163,-2.3505,-2.3682,-2.361,-2.4079,-2.4964,-2.5784,-2.5893,-2.5893,-2.5893,-2.5893,-2.5893,-2.5893,-2.5879,-2.5865,-2.5812,-2.573,-2.5384,-2.5246,-2.5564,-2.5591,-2.5682,-2.5964,-2.6433,-2.6294,-2.4952,-2.4833,-2.4352,-2.2989,-2.2872,-2.2841,-2.2841,-2.2583,-2.2601,-2.2979,-2.3127,-2.3516,-2.4109,-2.3935,-2.3941,-2.4236,-2.3861,-2.4064,-2.4753,-2.4468,-2.464,-0.1409,-0.058,-0.013,-0.0065,-0.0542,0.0,0.0,0.0,0.0,0.0,0.0,0.0,0.0,0.0,0.0,0.0,0.0,0.0,0.0,0.0,0.0,0.0,0.0,0.0,0.0,0.0,0.0,0.0,0.0,0.0,-0.5139,-0.5309,-0.5563,-0.5733,-0.5736,-0.5901,-0.6148,-0.7134,-0.7705,-0.794,-0.8113,-0.8293,-0.8398,-0.9688,-1.0239,-1.0264,-1.218,-1.2901,-1.2973,-1.4072,-1.5017,-1.5682,-1.598,-1.6727,-1.7557,-1.7988,-1.8192,-1.8233,-1.8337,-1.8259,-1.8183,-1.8617,-1.9375,-2.0128,-2.056,-2.1604,-2.2701,-2.2713,-2.3644,-2.4754,-2.537,-2.5729,-2.5893,-2.5893,-2.5893,-2.5893,-2.5893,-2.5893,-2.5879,-2.5755,-2.5686,-2.5729,-2.5673,-2.5702,-2.5604,-2.5445,-2.5887,-2.5943,-2.5117,-2.606,-2.6309,-2.5047,-2.4815,-2.4312,-2.3006,-2.2902,-2.2888,-2.2888,-2.2706,-2.2783,-2.3275,-2.2954,-2.3299,-2.4441,-2.4092,-2.4315,-2.5214,-2.5253,-2.5416,-2.5788,-2.5956,-2.6065,-0.2073,-0.1314,-0.0774,-0.0129,0.0,0.0,0.0,0.0,0.0,0.0,0.0,0.0,0.0,0.0,0.0,0.0,0.0,0.0,0.0,0.0,0.0,0.0,0.0,0.0,0.0,0.0,0.0,0.0,0.0,0.0,-0.4863,-0.5116,-0.5282,-0.5285,-0.5541,-0.6037,-0.6612,-0.7259,-0.7903,-0.8468,-0.88,-0.9095,-0.9285,-1.0025,-1.0383,-1.0455,-1.1426,-1.2242,-1.2895,-1.3426,-1.4208,-1.5189,-1.5963,-1.6807,-1.7486,-1.7532,-1.7934,-1.8379,-1.7957,-1.8182,-1.8557,-1.8765,-1.9507,-2.0579,-2.1404,-2.2286,-2.3195,-2.4163,-2.4567,-2.4781,-2.5021,-2.5412,-2.5686,-2.5423,-2.5562,-2.5686,-2.5423,-2.5658,-2.5893,-2.5797,-2.5797,-2.5839,-2.5841,-2.5591,-2.5494,-2.5807,-2.5864,-2.5716,-2.5261,-2.6045,-2.595,-2.4207,-2.4099,-2.3978,-2.3572,-2.3528,-2.3368,-2.2917,-2.2766,-2.2781,-2.2992,-2.3024,-2.3313,-2.3754,-2.4122,-2.4563,-2.5052,-2.5406,-2.574,-2.5938,-2.573,-2.5866,-0.2593,-0.1624,-0.0931,0.0,0.0,0.0,0.0,0.0,0.0,0.0,0.0,0.0,0.0,0.0,0.0,0.0,0.0,0.0,0.0,0.0,0.0,0.0,0.0,0.0,0.0,0.0,0.0,0.0,0.0,0.0,0.0,-0.4663,-0.4821,-0.4898,-0.5143,-0.5701,-0.6569,-0.7243,-0.7953,-0.8686,-0.9458,-0.9731,-0.9636,-1.0433,-1.0781,-1.0712,-1.1385,-1.2171,-1.2936,-1.3128,-1.3887,-1.4998,-1.5855,-1.6577,-1.7113,-1.6991,-1.7486,-1.8218,-1.766,-1.8065,-1.8804,-1.8765,-1.9639,-2.0846,-2.1542,-2.2396,-2.3374,-2.435,-2.458,-2.4553,-2.4526,-2.4968,-2.5355,-2.4792,-2.4874,-2.5107,-2.4983,-2.5245,-2.5644,-2.5865,-2.5893,-2.5893,-2.5893,-2.5672,-2.5574,-2.5751,-2.5821,-2.5678,-2.5176,-2.5951,-2.5821,-2.4067,-2.3837,-2.3712,-2.3551,-2.3554,-2.3397,-2.2917,-2.2872,-2.2841,-2.2841,-2.3142,-2.3348,-2.3348,-2.4078,-2.4614,-2.4958,-2.5388,-2.5761,-2.6109,-2.5847,-2.6,-0.288,-0.1374,0.0,0.0,0.0,0.0,0.0,0.0,0.0,0.0,0.0,0.0,0.0,0.0,0.0,0.0,0.0,0.0,0.0,0.0,0.0,0.0,0.0,0.0,0.0,0.0,0.0,0.0,0.0,0.0,0.0,-0.4003,-0.422,-0.4432,-0.4432,-0.4862,-0.5728,-0.6964,-0.7907,-0.8554,-0.9796,-0.9952,-0.9247,-1.0823,-1.1378,-1.1192,-1.2447,-1.3098,-1.3185,-1.3637,-1.4353,-1.5237,-1.5527,-1.5961,-1.6272,-1.6272,-1.683,-1.747,-1.747,-1.794,-1.8549,-1.8741,-1.977,-2.0858,-2.0688,-2.1854,-2.3195,-2.2713,-2.3446,-2.4266,-2.4116,-2.4581,-2.4833,-2.4037,-2.3918,-2.4096,-2.4655,-2.4792,-2.5011,-2.5741,-2.5879,-2.5879,-2.5879,-2.599,-2.5889,-2.5269,-2.5826,-2.584,-2.4626,-2.5668,-2.5997,-2.4843,-2.4216,-2.3598,-2.2896,-2.2872,-2.2902,-2.2888,-2.2888,-2.2888,-2.2888,-2.3201,-2.3406,-2.3406,-2.3852,-2.4436,-2.5091,-2.5313,-2.576,-2.641,-2.6521,-2.664,-0.452,-0.3301,0.0,0.0,0.0,0.0,0.0,0.0,0.0,0.0,0.0,0.0,0.0,0.0,0.0,0.0,0.0,0.0,0.0,0.0,0.0,0.0,0.0,0.0,0.0,0.0,0.0,0.0,0.0,0.0,0.0,-0.3785,-0.4145,-0.4715,-0.4865,-0.5581,-0.6936,-0.7561,-0.8274,-0.906,-0.985,-1.0107,-0.9963,-1.0807,-1.1107,-1.1012,-1.2071,-1.2442,-1.2395,-1.3026,-1.3925,-1.484,-1.5118,-1.5573,-1.6202,-1.6403,-1.6821,-1.7314,-1.7579,-1.793,-1.8405,-1.8674,-1.9694,-2.0835,-2.1014,-2.1842,-2.2834,-2.3487,-2.3852,-2.4047,-2.3812,-2.4361,-2.4723,-2.3647,-2.3964,-2.4469,-2.424,-2.4584,-2.5031,-2.522,-2.5272,-2.5133,-2.4727,-2.4838,-2.4913,-2.4724,-2.4989,-2.498,-2.4451,-2.3936,-2.3831,-2.4473,-2.4086,-2.3725,-2.3588,-2.3591,-2.3412,-2.2917,-2.2888,-2.2888,-2.2888,-2.3023,-2.3053,-2.3053,-2.361,-2.4188,-2.4808,-2.5366,-2.5919,-2.6534,-2.6623,-2.6674,-0.5133,0.0,0.0,0.0,0.0,0.0,0.0,0.0,0.0,0.0,0.0,0.0,0.0,0.0,0.0,0.0,0.0,0.0,0.0,0.0,0.0,0.0,0.0,0.0,0.0,0.0,0.0,0.0,0.0,0.0,0.0,-0.3891,-0.4363,-0.4901,-0.5036,-0.5738,-0.7162,-0.7446,-0.8059,-0.8858,-0.9395,-0.9661,-0.9681,-1.049,-1.0829,-1.083,-1.1662,-1.2038,-1.2187,-1.2736,-1.3446,-1.4196,-1.4536,-1.5061,-1.5676,-1.594,-1.6346,-1.6816,-1.7073,-1.7537,-1.8072,-1.8267,-1.92,-2.024,-2.0682,-2.1128,-2.1813,-2.3025,-2.3258,-2.3283,-2.3569,-2.404,-2.4129,-2.3064,-2.3619,-2.4361,-2.3961,-2.4254,-2.4632,-2.4934,-2.4828,-2.4469,-2.3957,-2.418,-2.4271,-2.3914,-2.3839,-2.3949,-2.4279,-2.3441,-2.3164,-2.4,-2.3916,-2.3693,-2.3474,-2.349,-2.3354,-2.2917,-2.2888,-2.2888,-2.2888,-2.2888,-2.2888,-2.2888,-2.3363,-2.3967,-2.4701,-2.5205,-2.5822,-2.6555,-2.6641,-2.6657,0.0,0.0,0.0,0.0,0.0,0.0,0.0,0.0,0.0,0.0,0.0,0.0,0.0,0.0,0.0,0.0,0.0,0.0,0.0,0.0,0.0,0.0,0.0,0.0,0.0,0.0,0.0,0.0,0.0,0.0,0.0,-0.4238,-0.4665,-0.5026,-0.4901,-0.5456,-0.6621,-0.6857,-0.7364,-0.8124,-0.856,-0.8738,-0.8646,-0.9934,-1.0585,-1.0673,-1.1171,-1.1723,-1.2323,-1.2602,-1.3004,-1.3584,-1.395,-1.4419,-1.4902,-1.518,-1.5624,-1.6256,-1.6383,-1.7004,-1.7688,-1.775,-1.8384,-1.9302,-1.9834,-2.0102,-2.054,-2.1782,-2.2125,-2.236,-2.3399,-2.3675,-2.345,-2.2432,-2.3016,-2.3837,-2.3789,-2.377,-2.3982,-2.4659,-2.4344,-2.384,-2.3364,-2.3737,-2.3766,-2.2919,-2.2577,-2.2851,-2.3985,-2.3685,-2.3438,-2.3434,-2.3687,-2.3553,-2.2867,-2.2886,-2.2902,-2.2902,-2.2902,-2.2902,-2.2902,-2.2902,-2.2888,-2.2888,-2.3187,-2.3799,-2.4694,-2.4939,-2.5578,-2.6506,-2.6556,-2.6607,0.0,0.0,0.0,0.0,0.0,0.0,0.0,0.0,0.0,0.0,0.0,0.0,0.0,0.0,0.0,0.0,0.0,0.0,0.0,0.0,0.0,0.0,0.0,0.0,0.0,0.0,0.0,0.0,0.0,0.0,-0.4299,-0.4357,-0.4597,-0.5204,-0.5389,-0.5832,-0.6605,-0.6894,-0.7138,0.0,-0.7796,-0.8034,-0.8023,-0.9338,-1.0208,-1.0854,-1.0817,-1.1272,-1.2077,-1.1912,-1.2397,-1.3243,-1.355,-1.4118,-1.4763,-1.5366,-1.5827,-1.6284,-1.6855,-1.7399,-1.7883,-1.8129,-1.8635,-1.926,-1.9828,-1.998,-2.0206,-2.1305,-2.2404,-2.3085,-2.2709,-2.3709,-2.4433,-2.2899,-2.2818,-2.3068,-2.2997,-2.2964,-2.3004,-2.3138,-2.3187,-2.2857,-2.1987,-2.2109,-2.2251,-2.2065,-2.1994,-2.2156,-2.2733,-2.2822,-2.2844,-2.2946,-2.3065,-2.3035,-2.2872,-2.2902,-2.2962,-2.3065,-2.2976,-2.2962,-2.3065,-2.2976,-2.2888,-2.2888,-2.3465,-2.4105,-2.4695,-2.5258,-2.5864,-2.6521,-2.6499,-2.6502,0.0,0.0,0.0,0.0,0.0,0.0,0.0,0.0,0.0,0.0,0.0,0.0,0.0,0.0,0.0,0.0,0.0,0.0,0.0,0.0,0.0,0.0,0.0,0.0,0.0,0.0,0.0,0.0,0.0,-0.4411,-0.4694,-0.4865,-0.5096,-0.5505,-0.5566,-0.5897,-0.6461,-0.6641,-0.6817,-0.6988,-0.7387,-0.7677,-0.799,-0.8747,-0.9509,-1.006,-0.9952,-1.0301,-1.101,-1.1117,-1.1479,-1.2096,-1.2821,-1.3411,-1.403,-1.4728,-1.5368,-1.5859,-1.6356,-1.7095,-1.785,-1.7852,-1.8514,-1.939,-1.9772,-1.9805,-1.9936,-2.1137,-2.1929,-2.2463,-2.2679,-2.3315,-2.3806,-2.3155,-2.3252,-2.3369,-2.2903,-2.2845,-2.2844,-2.2788,-2.2474,-2.1973,-2.1326,-2.1,-2.1038,-2.1639,-2.1586,-2.176,-2.2334,-2.2548,-2.2704,-2.2799,-2.2873,-2.2888,-2.2888,-2.2888,-2.2917,-2.2991,-2.2934,-2.292,-2.2991,-2.2991,-2.2991,-2.2991,-2.3566,-2.4173,-2.4719,-2.5298,-2.5843,-2.6362,-2.6391,-2.6412,0.0,0.0,0.0,0.0,0.0,0.0,0.0,0.0,0.0,0.0,0.0,0.0,0.0,0.0,0.0,0.0,0.0,0.0,0.0,0.0,0.0,0.0,0.0,0.0,0.0,0.0,0.0,0.0,0.0,-0.4989,-0.5018,-0.5344,-0.5626,-0.5686,-0.5626,-0.581,-0.6203,-0.6203,-0.6369,-0.6643,-0.7055,-0.7475,-0.7901,-0.8132,-0.8549,-0.9136,-0.9195,-0.9434,-0.9904,-1.0301,-1.0644,-1.0895,-1.1928,-1.2621,-1.3173,-1.3879,-1.4613,-1.5312,-1.57,-1.6698,-1.7797,-1.7487,-1.8421,-1.9666,-1.9813,-1.9634,-1.9711,-2.1082,-2.1417,-2.1627,-2.2731,-2.2909,-2.2841,-2.3241,-2.3533,-2.3558,-2.2845,-2.2822,-2.2847,-2.2701,-2.198,-2.1331,-2.1033,-2.0398,-2.0271,-2.1341,-2.1304,-2.1467,-2.2338,-2.2632,-2.277,-2.2799,-2.2873,-2.2888,-2.2888,-2.2888,-2.2902,-2.2917,-2.2906,-2.2936,-2.2976,-2.3065,-2.3109,-2.3183,-2.3656,-2.4166,-2.4686,-2.525,-2.5751,-2.622,-2.6253,-2.6253,0.0,0.0,0.0,0.0,0.0,0.0,0.0,0.0,0.0,0.0,0.0,0.0,0.0,0.0,0.0,0.0,0.0,0.0,0.0,0.0,0.0,0.0,0.0,0.0,0.0,0.0,0.0,0.0,-0.4445,-0.4986,-0.5458,-0.5407,-0.5352,-0.5356,-0.5513,-0.5635,-0.5716,-0.5931,-0.6041,-0.6096,-0.6559,-0.6907,-0.7136,-0.7188,-0.7816,-0.8863,-0.9084,-0.9376,-0.9744,-1.0077,-1.0415,-1.0872,-1.1429,-1.201,-1.2621,-1.3582,-1.4251,-1.4865,-1.6095,-1.7135,-1.7993,-1.8089,-1.8892,-1.9818,-1.9946,-1.9707,-1.9649,-2.0861,-2.1629,-2.2028,-2.2281,-2.2875,-2.3254,-2.2826,-2.247,-2.2239,-2.2013,-2.1938,-2.1924,-2.1787,-2.1678,-2.145,-2.1053,-2.0693,-2.0617,-2.1043,-2.1037,-2.1416,-2.2443,-2.252,-2.2579,-2.2873,-2.2859,-2.2859,-2.2888,-2.2888,-2.2962,-2.308,-2.2947,-2.3022,-2.3212,-2.3169,-2.3198,-2.3419,-2.3866,-2.4283,-2.4686,-2.5228,-2.574,-2.622,-2.622,-2.622,0.0,0.0,0.0,0.0,0.0,0.0,0.0,0.0,0.0,0.0,0.0,0.0,0.0,0.0,0.0,0.0,0.0,0.0,0.0,0.0,0.0,0.0,0.0,0.0,0.0,0.0,0.0,0.0,-0.4452,-0.5018,-0.5293,-0.5297,-0.5297,-0.5297,-0.5407,-0.5517,-0.5736,-0.5845,-0.6004,-0.6149,-0.636,-0.6561,-0.664,-0.6734,-0.7241,-0.8063,-0.8226,-0.8359,-0.8554,-0.9077,-0.951,-0.985,-1.0623,-1.1411,-1.2232,-1.3065,-1.371,-1.4428,-1.5573,-1.6787,-1.7891,-1.8602,-1.9352,-1.9972,-2.0241,-1.99,-1.9592,-2.0591,-2.1215,-2.1691,-2.2083,-2.2644,-2.3018,-2.2662,-2.2353,-2.2074,-2.1963,-2.1902,-2.1841,-2.1541,-2.1348,-2.1091,-2.0633,-2.059,-2.0708,-2.1056,-2.1382,-2.18,-2.2488,-2.256,-2.2606,-2.2804,-2.2841,-2.2814,-2.2888,-2.2888,-2.2917,-2.2991,-2.2917,-2.2991,-2.3183,-2.3198,-2.3301,-2.3494,-2.3881,-2.4217,-2.4491,-2.5174,-2.5612,-2.5832,-2.6085,-2.622,0.0,0.0,0.0,0.0,0.0,0.0,0.0,0.0,0.0,0.0,0.0,0.0,0.0,0.0,0.0,0.0,0.0,0.0,0.0,0.0,0.0,0.0,0.0,0.0,0.0,0.0,0.0,0.0,-0.4353,-0.5018,-0.5018,-0.5128,-0.5242,-0.5242,-0.5242,-0.5407,-0.5686,-0.574,-0.5963,-0.6272,-0.6272,-0.6309,-0.639,-0.6422,-0.6724,-0.7197,-0.7412,-0.7487,-0.7561,-0.8143,-0.863,-0.8976,-0.9822,-1.0688,-1.1625,-1.2385,-1.3067,-1.3777,-1.4888,-1.6158,-1.7421,-1.8562,-1.9327,-1.9812,-2.0288,-1.9989,-1.9671,-2.0607,-2.1043,-2.1419,-2.2161,-2.2555,-2.2669,-2.2634,-2.2353,-2.2074,-2.201,-2.1996,-2.1949,-2.1746,-2.1541,-2.1259,-2.0775,-2.0851,-2.1101,-2.1372,-2.1703,-2.2109,-2.2564,-2.2598,-2.2615,-2.2794,-2.2793,-2.2814,-2.2888,-2.2888,-2.2888,-2.2888,-2.2888,-2.2991,-2.3123,-2.3244,-2.3363,-2.3526,-2.3807,-2.4071,-2.4319,-2.5005,-2.5399,-2.551,-2.5983,-2.6322,0.0,0.0,0.0,0.0,0.0,0.0,0.0,0.0,0.0,0.0,0.0,0.0,0.0,0.0,0.0,0.0,0.0,0.0,0.0,0.0,0.0,0.0,0.0,0.0,0.0,0.0,0.0,0.0,-0.3965,-0.4743,-0.4743,-0.4846,-0.4956,-0.5124,-0.5124,-0.5183,-0.5297,-0.5631,-0.5914,-0.6127,-0.6221,-0.6309,-0.6385,-0.6148,-0.6097,-0.6314,-0.6925,-0.7212,-0.7248,-0.7535,-0.8048,-0.8664,-0.9004,-0.971,-1.0621,-1.1608,-1.2219,-1.2807,-1.4162,-1.5342,-1.6484,-1.7606,-1.8438,-1.918,-1.9846,-1.983,-1.9843,-2.1196,-2.1464,-2.1629,-2.2637,-2.2611,-2.2448,-2.2587,-2.2208,-2.1848,-2.1949,-2.1996,-2.2137,-2.2463,-2.2509,-2.2417,-2.2123,-2.2127,-2.2088,-2.1985,-2.1853,-2.1999,-2.2512,-2.2512,-2.2512,-2.2762,-2.2793,-2.2814,-2.2888,-2.2888,-2.2888,-2.2888,-2.2888,-2.3006,-2.3287,-2.329,-2.3375,-2.3581,-2.3625,-2.3831,-2.4319,-2.4732,-2.513,-2.551,-2.5983,-2.6609,0.0,0.0,0.0,0.0,0.0,0.0,0.0,0.0,0.0,0.0,0.0,0.0,0.0,0.0,0.0,0.0,0.0,0.0,0.0,0.0,0.0,0.0,0.0,0.0,0.0,0.0,0.0,0.0,0.0,-0.3904,-0.4128,-0.4519,-0.4849,-0.4956,-0.5069,-0.5238,-0.5517,-0.5786,-0.5958,-0.5963,-0.6031,-0.6044,-0.6013,-0.5866,-0.5848,-0.5897,-0.6197,-0.6416,-0.6606,-0.7101,-0.7662,-0.8263,-0.8592,-0.9301,-1.0213,-1.0908,-1.1422,-1.213,-1.3952,-1.5113,-1.6154,-1.8253,-1.8568,-1.8319,-1.9221,-1.8863,-1.8525,-2.0219,-2.081,-2.1178,-2.2565,-2.2644,-2.233,-2.2007,-2.1938,-2.1916,-2.1902,-2.1841,-2.1996,-2.2278,-2.1907,-2.1503,-2.1338,-2.1167,-2.0965,-2.0799,-2.1314,-2.1749,-2.1848,-2.217,-2.2455,-2.2675,-2.2768,-2.2814,-2.2888,-2.2888,-2.2888,-2.2888,-2.2888,-2.3006,-2.3287,-2.3319,-2.3389,-2.3595,-2.3595,-2.3683,-2.3831,-2.4334,-2.4636,-2.4805,-2.5628,-2.6151,0.0,0.0,0.0,0.0,0.0,0.0,0.0,0.0,0.0,0.0,0.0,0.0,0.0,0.0,0.0,0.0,0.0,0.0,0.0,0.0,0.0,0.0,0.0,0.0,0.0,0.0,0.0,0.0,0.0,0.0,-0.3852,-0.4187,-0.4515,-0.4897,-0.5014,-0.5238,-0.5513,-0.5786,-0.5936,-0.6006,-0.6005,-0.6039,-0.6002,-0.5906,-0.5799,-0.5723,-0.5884,-0.6007,-0.6153,-0.6555,-0.7102,-0.7716,-0.7994,-0.8753,-0.973,-1.0237,-1.0764,-1.1554,-1.3214,-1.4223,-1.5169,-1.7472,-1.7678,-1.7267,-1.8417,-1.826,-1.7967,-1.9584,-2.0244,-2.0778,-2.1959,-2.2186,-2.1939,-2.1363,-2.1431,-2.1536,-2.1536,-2.1749,-2.1974,-2.2055,-2.1629,-2.1201,-2.105,-2.0823,-2.0595,-2.0494,-2.1117,-2.1496,-2.1272,-2.1959,-2.2385,-2.2255,-2.2593,-2.2859,-2.2873,-2.2888,-2.2888,-2.2888,-2.2888,-2.3006,-2.3287,-2.3319,-2.3389,-2.3595,-2.3625,-2.3683,-2.3683,-2.4141,-2.4477,-2.4686,-2.5513,-2.6081,0.0,0.0,0.0,0.0,0.0,0.0,0.0,0.0,0.0,0.0,0.0,0.0,0.0,0.0,0.0,0.0,0.0,0.0,0.0,0.0,0.0,0.0,0.0,0.0,0.0,0.0,0.0,0.0,-0.2183,-0.2912,-0.391,-0.3738,-0.4015,-0.4846,-0.5014,-0.5183,-0.5297,-0.5631,-0.595,-0.6209,-0.6268,-0.6314,-0.6396,-0.6241,-0.604,-0.5734,-0.6062,-0.6142,-0.6019,-0.6024,-0.6431,-0.7122,-0.7251,-0.8016,-0.9032,-0.9596,-1.0252,-1.1015,-1.1913,-1.2656,-1.3488,-1.5068,-1.5626,-1.5943,-1.7454,-1.7969,-1.8252,-1.9349,-1.9976,-2.0401,-2.0852,-2.1169,-2.1257,-2.0699,-2.0666,-2.0758,-2.1018,-2.1661,-2.2084,-2.1814,-2.1787,-2.1672,-2.1395,-2.1222,-2.1167,-2.1126,-2.1411,-2.1354,-2.0795,-2.1801,-2.2314,-2.1597,-2.2329,-2.2888,-2.2799,-2.2873,-2.2888,-2.2888,-2.2888,-2.3006,-2.3287,-2.3319,-2.3389,-2.3595,-2.3713,-2.3801,-2.3801,-2.42,-2.4652,-2.5207,-2.568,-2.6493,-0.446,0.0,0.0,0.0,0.0,0.0,-0.2368,-0.215,0.0,0.0,0.0,0.0,0.0,0.0,0.0,0.0,0.0,0.0,0.0,0.0,0.0,0.0,0.0,0.0,0.0,0.0,0.0,0.0,-0.1064,-0.1736,-0.2629,-0.3522,-0.4245,-0.4743,-0.4904,-0.5014,-0.5128,-0.5572,-0.5845,-0.5896,-0.6168,-0.6288,-0.6324,-0.6218,-0.6134,-0.6062,-0.6055,-0.6105,-0.6142,-0.6239,-0.6649,-0.7251,-0.7379,-0.7926,-0.8728,-0.9317,-0.9813,-1.0458,-1.1795,-1.2686,-1.3494,-1.4903,-1.5245,-1.5233,-1.6289,-1.6617,-1.6967,-1.8419,-1.9249,-1.976,-2.0182,-2.077,-2.0966,-1.9908,-2.0275,-2.0785,-2.052,-2.0737,-2.0938,-2.0855,-2.111,-2.1116,-2.0477,-2.0191,-1.9935,-1.9628,-2.0378,-2.0827,-2.0506,-2.1641,-2.2424,-2.2331,-2.2615,-2.2818,-2.2843,-2.2888,-2.2888,-2.2888,-2.2991,-2.3109,-2.3287,-2.3378,-2.3522,-2.3728,-2.3786,-2.39,-2.4078,-2.4181,-2.4487,-2.4937,-2.567,-2.6482,0.0,0.0,0.0,0.0,0.0,0.0,-0.2817,-0.2569,-0.2527,0.0,0.0,0.0,0.0,0.0,0.0,0.0,0.0,0.0,0.0,0.0,0.0,0.0,0.0,0.0,0.0,-0.0224,-0.028,-0.0561,-0.0673,-0.1176,-0.2293,-0.3522,-0.4359,-0.4688,-0.4846,-0.4956,-0.5124,-0.5572,-0.585,-0.59,-0.6255,-0.6411,-0.6278,-0.6395,-0.6298,-0.6102,-0.6168,-0.6233,-0.6276,-0.6453,-0.6718,-0.7076,-0.7244,-0.7692,-0.8325,-0.8941,-0.9506,-1.0052,-1.1195,-1.2067,-1.289,-1.3825,-1.4391,-1.4829,-1.5588,-1.6134,-1.6718,-1.7879,-1.865,-1.9142,-1.9237,-1.9768,-2.0111,-1.9273,-1.9625,-2.0083,-1.9936,-2.0034,-2.0159,-2.0215,-2.0448,-2.0487,-1.9923,-1.9664,-1.9428,-1.9205,-2.0099,-2.0655,-2.0147,-2.1498,-2.2423,-2.2161,-2.2563,-2.2821,-2.2828,-2.2888,-2.2902,-2.2991,-2.308,-2.3184,-2.3378,-2.348,-2.3595,-2.3801,-2.3855,-2.4067,-2.4508,-2.4302,-2.4521,-2.5109,-2.595,-2.6576,0.0,0.0,0.0,0.0,0.0,0.0,-0.3062,-0.2909,-0.2845,0.0,0.0,0.0,0.0,0.0,0.0,0.0,0.0,0.0,0.0,0.0,0.0,0.0,0.0,0.0,-0.1009,-0.0673,-0.0617,-0.101,-0.0729,-0.1119,-0.24,-0.3519,-0.4304,-0.4632,-0.4794,-0.4956,-0.5069,-0.5572,-0.5845,-0.6005,-0.649,-0.6602,-0.646,-0.6687,-0.6562,-0.6273,-0.6465,-0.6526,-0.6496,-0.663,-0.6708,-0.6751,-0.6943,-0.736,-0.7914,-0.857,-0.915,-0.9724,-1.021,-1.0979,-1.1822,-1.2158,-1.3156,-1.429,-1.504,-1.5987,-1.701,-1.776,-1.8313,-1.8644,-1.8341,-1.8673,-1.9045,-1.8767,-1.892,-1.9156,-1.9399,-1.9532,-1.9692,-1.9854,-1.9976,-1.9958,-1.9657,-1.9538,-1.945,-1.9413,-2.024,-2.0592,-1.9804,-2.135,-2.2292,-2.17,-2.2336,-2.2799,-2.2799,-2.2888,-2.2976,-2.3094,-2.3125,-2.3231,-2.3507,-2.3522,-2.361,-2.3831,-2.4006,-2.4348,-2.4896,-2.4539,-2.475,-2.5497,-2.6341,-2.6695,0.0,0.0,0.0,0.0,0.0,0.0,-0.3871,-0.3801,-0.3629,0.0,0.0,0.0,0.0,0.0,0.0,0.0,0.0,0.0,0.0,0.0,0.0,0.0,0.0,0.0,-0.1511,-0.1177,-0.0898,-0.0785,-0.1232,-0.1679,-0.2069,-0.3352,-0.4135,-0.4304,-0.468,-0.4901,-0.4956,-0.5513,-0.5795,-0.585,-0.6436,-0.6919,-0.7285,-0.7284,-0.7465,-0.7755,-0.7264,-0.7063,-0.7021,-0.6787,-0.6787,-0.6943,-0.6979,-0.7223,-0.7624,-0.8037,-0.839,-0.8746,-0.9274,-0.9784,-1.0308,-1.0885,-1.1487,-1.2301,-1.3861,-1.5149,-1.6478,-1.8522,-1.8936,-1.8717,-1.85,-1.8781,-1.8934,-1.8303,-1.8659,-1.9181,-1.9112,-1.9152,-1.9313,-1.9664,-2.0176,-2.0363,-1.9715,-1.9756,-1.9777,-1.945,-1.9832,-2.0272,-2.0469,-2.1262,-2.1992,-2.2469,-2.2694,-2.2799,-2.2888,-2.2991,-2.308,-2.3094,-2.329,-2.345,-2.358,-2.3683,-2.3874,-2.4126,-2.4537,-2.4777,-2.4896,-2.5119,-2.5342,-2.5514,-2.6317,-2.652,0.0,0.0,0.0,-0.3744,0.0,0.0,0.0,-0.4135,-0.4138,-0.389,0.0,0.0,0.0,0.0,0.0,0.0,0.0,0.0,0.0,0.0,0.0,0.0,0.0,0.0,-0.2567,-0.1902,-0.1289,-0.0729,-0.1456,-0.1902,-0.2015,-0.3297,-0.4079,-0.4193,-0.4629,-0.4956,-0.5011,-0.5513,-0.5845,-0.59,-0.6436,-0.6854,-0.7095,-0.7321,-0.7446,-0.7518,-0.7387,-0.7196,-0.7027,-0.6907,-0.695,-0.7076,-0.7027,-0.7293,-0.7757,-0.8187,-0.8498,-0.8699,-0.8975,-0.9408,-0.988,-1.0342,-1.1262,-1.2404,-1.3636,-1.5229,-1.6905,-1.8387,-1.8864,-1.8836,-1.8375,-1.8544,-1.8749,-1.827,-1.8635,-1.902,-1.8722,-1.9053,-1.9426,-1.9276,-1.9697,-2.001,-1.9884,-1.9869,-1.9833,-1.9581,-1.9921,-2.0215,-2.0266,-2.0827,-2.135,-2.1766,-2.1818,-2.2019,-2.2505,-2.2608,-2.2846,-2.329,-2.3465,-2.3595,-2.3698,-2.3824,-2.3982,-2.4189,-2.4843,-2.521,-2.518,-2.5605,-2.579,-2.5799,-2.6421,-2.6573,0.0,0.0,0.0,0.0,0.0,-0.3825,0.0,0.0,0.0,-0.4094,0.0,0.0,0.0,0.0,0.0,0.0,0.0,0.0,0.0,0.0,0.0,0.0,0.0,0.0,0.0,-0.2679,-0.1789,-0.0952,-0.1456,-0.1903,-0.2015,-0.3186,-0.3968,-0.4249,-0.468,-0.4956,-0.5128,-0.5626,-0.59,-0.6059,-0.649,-0.677,-0.6897,-0.729,-0.7358,-0.7166,-0.7371,-0.73,-0.6999,-0.7076,-0.7167,-0.7258,-0.707,-0.7314,-0.7886,-0.8371,-0.8637,-0.8798,-0.8984,-0.9376,-0.983,-1.0214,-1.1521,-1.3121,-1.3963,-1.571,-1.7529,-1.8321,-1.8861,-1.9038,-1.838,-1.8422,-1.8592,-1.8397,-1.8598,-1.8722,-1.8417,-1.8897,-1.9295,-1.8834,-1.9096,-1.9551,-2.0028,-1.9873,-1.9688,-1.9711,-2.0065,-2.0239,-1.998,-2.0428,-2.0792,-2.094,-2.0953,-2.1248,-2.203,-2.2246,-2.257,-2.3096,-2.3492,-2.3741,-2.3754,-2.4094,-2.4348,-2.4436,-2.5221,-2.5644,-2.5615,-2.5933,-2.6135,-2.6236,-2.6539,-2.6691,0.0,0.0,0.0,0.0,-0.3638,0.0,0.0,0.0,-0.4783,-0.4494,0.0,0.0,0.0,0.0,0.0,0.0,0.0,0.0,0.0,0.0,0.0,0.0,0.0,0.0,0.0,-0.3116,-0.2339,-0.1729,-0.1399,-0.1457,-0.1959,-0.274,-0.3574,-0.4463,-0.4736,-0.5014,-0.5297,-0.5732,-0.6059,-0.6178,-0.6663,-0.7128,-0.7564,-0.7713,-0.7886,-0.8023,-0.7857,-0.7579,-0.7335,-0.7405,-0.7454,-0.7454,-0.7118,-0.7167,-0.7511,-0.7943,-0.818,-0.8375,-0.9041,-0.9417,-0.9711,-1.0215,-1.1513,-1.3235,-1.4915,-1.6312,-1.7657,-1.933,-1.963,-1.9391,-1.9049,-1.886,-1.8721,-1.8542,-1.8309,-1.8194,-1.851,-1.8265,-1.8135,-1.8455,-1.8997,-1.9551,-2.0028,-1.963,-1.9397,-1.9743,-2.0,-2.015,-2.0182,-2.0415,-2.0852,-2.1461,-2.15,-2.1565,-2.1718,-2.2422,-2.2527,-2.1787,-2.3301,-2.4061,-2.3618,-2.4704,-2.5337,-2.5359,-2.5805,-2.6034,-2.6034,-2.6101,-2.6286,-2.664,-2.6674,-2.6691,0.0,0.0,0.0,0.0,0.0,0.0,-0.4842,0.0,-0.5344,0.0,0.0,0.0,0.0,0.0,0.0,0.0,-0.422,0.0,0.0,0.0,0.0,0.0,0.0,0.0,0.0,0.0,0.0,0.0,-0.19,-0.1569,-0.1457,-0.2631,-0.3466,-0.3959,-0.4625,-0.5179,-0.5458,-0.59,-0.6173,-0.6332,-0.6717,-0.7036,-0.7343,-0.7653,-0.7783,-0.7747,-0.7816,-0.7687,-0.7447,-0.7588,-0.7664,-0.7802,-0.7721,-0.7891,-0.8189,-0.855,-0.8724,-0.8858,-0.9323,-0.95,-0.9709,-1.0777,-1.189,-1.3156,-1.4857,-1.6158,-1.7333,-1.8661,-1.9426,-1.9636,-1.871,-1.8716,-1.8756,-1.7949,-1.787,-1.7948,-1.7721,-1.7942,-1.8146,-1.7955,-1.8244,-1.8712,-1.9296,-1.9797,-2.0077,-1.9886,-2.0045,-2.0106,-2.0055,-2.01,-2.022,-2.0468,-2.0691,-2.1044,-2.1528,-2.1789,-2.2164,-2.2787,-2.4085,-2.4582,-2.4042,-2.4798,-2.4906,-2.4231,-2.4857,-2.5056,-2.4813,-2.4863,-2.5168,-2.574,-2.5909,-2.6,-0.5618,0.0,0.0,0.0,0.0,0.0,0.0,0.0,0.0,0.0,0.0,0.0,0.0,0.0,0.0,0.0,0.0,0.0,0.0,0.0,0.0,0.0,0.0,0.0,0.0,0.0,0.0,-0.3232,-0.2386,-0.1729,-0.1273,-0.2504,-0.3352,-0.368,-0.4625,-0.5348,-0.5727,-0.6064,-0.6337,-0.6549,-0.6874,-0.7036,-0.7133,-0.7686,-0.7716,-0.7373,-0.7898,-0.7896,-0.7594,-0.796,-0.8177,-0.8214,-0.8492,-0.8683,-0.8849,-0.9127,-0.9191,-0.9268,-0.9679,-0.9922,-1.0196,-1.1238,-1.2036,-1.2948,-1.4748,-1.5951,-1.6957,-1.8095,-1.9231,-1.9758,-1.8262,-1.8484,-1.8758,-1.7417,-1.7421,-1.7562,-1.7061,-1.7439,-1.7798,-1.7408,-1.7634,-1.801,-1.8453,-1.9359,-1.9939,-1.9636,-1.986,-1.9965,-1.9676,-1.9788,-1.9854,-1.9797,-2.0047,-2.0532,-2.1242,-2.1329,-2.2118,-2.3907,-2.4531,-2.4783,-2.4613,-2.4778,-2.4476,-2.3652,-2.4129,-2.4245,-2.3964,-2.3849,-2.4023,-2.4532,-2.4996,-2.532,0.0,0.0,0.0,-0.4897,0.0,0.0,0.0,0.0,-0.5563,0.0,0.0,0.0,0.0,0.0,0.0,0.0,0.0,0.0,0.0,0.0,0.0,0.0,0.0,0.0,0.0,0.0,0.0,-0.432,-0.2621,-0.1653,-0.1653,-0.236,-0.3123,-0.3953,-0.4849,-0.5517,-0.6,-0.6277,-0.6549,-0.6879,-0.7155,-0.7203,-0.7139,-0.783,-0.7801,-0.7188,-0.8219,-0.8312,-0.7785,-0.8831,-0.904,-0.8722,-0.9392,-0.9479,-0.9187,-0.9187,-0.92,-0.9301,-1.0118,-1.0784,-1.1346,-1.1459,-1.176,-1.2578,-1.487,-1.5883,-1.6592,-1.8293,-1.9429,-1.9741,-1.8056,-1.8341,-1.8725,-1.7262,-1.6919,-1.6925,-1.6834,-1.6569,-1.6483,-1.6857,-1.7391,-1.7754,-1.7574,-1.7836,-1.8258,-1.876,-1.9386,-1.9625,-1.9089,-1.958,-1.999,-2.0005,-1.999,-2.0221,-2.0768,-2.1346,-2.254,-2.4538,-2.422,-2.4416,-2.543,-2.4842,-2.4516,-2.4453,-2.4236,-2.4121,-2.4076,-2.3517,-2.3254,-2.3294,-2.4139,-2.4946,0.0,0.0,-0.605,-0.5941,0.0,0.0,0.0,0.0,0.0,0.0,0.0,0.0,0.0,0.0,0.0,0.0,0.0,0.0,0.0,0.0,0.0,0.0,0.0,0.0,0.0,0.0,0.0,-0.5038,-0.3559,-0.2381,-0.1648,-0.25,-0.3289,-0.3996,-0.4952,-0.5786,-0.6436,-0.6544,-0.6761,-0.7031,-0.7203,-0.7257,-0.7257,-0.7741,-0.7909,-0.7754,-0.8414,-0.8716,-0.8791,-0.9231,-0.929,-0.9139,-0.9537,-0.9529,-0.9262,-0.9381,-0.9473,-0.969,-1.0321,-1.086,-1.1309,-1.14,-1.1638,-1.2123,-1.3323,-1.4401,-1.5461,-1.657,-1.7703,-1.8359,-1.7342,-1.744,-1.7578,-1.6563,-1.641,-1.6502,-1.653,-1.6444,-1.6463,-1.6773,-1.7094,-1.7378,-1.7489,-1.7702,-1.8021,-1.8463,-1.8929,-1.9183,-1.9146,-1.9305,-1.9558,-1.996,-2.0254,-2.0514,-2.0782,-2.1713,-2.2604,-2.3318,-2.3978,-2.4232,-2.413,-2.3961,-2.3562,-2.2875,-2.2762,-2.2605,-2.2388,-2.1936,-2.1956,-2.2358,-2.287,-2.3521,-0.6544,-0.6544,0.0,-0.6386,-0.644,0.0,-0.6228,0.0,0.0,0.0,0.0,0.0,0.0,0.0,0.0,0.0,0.0,0.0,0.0,-0.7731,0.0,0.0,0.0,0.0,0.0,0.0,-0.6921,-0.5529,-0.4299,-0.3062,0.0,0.0,-0.34,-0.3993,-0.5109,-0.605,-0.6815,-0.6864,-0.6977,-0.7198,-0.7169,-0.7228,-0.7252,-0.77,-0.8018,-0.8187,-0.8825,-0.9203,-0.9403,-0.9587,-0.9484,-0.9199,-0.9457,-0.9376,-0.9122,-0.9408,-0.9658,-0.9962,-1.038,-1.0822,-1.1174,-1.1276,-1.1538,-1.1929,-1.2866,-1.3849,-1.4799,-1.5637,-1.676,-1.7488,-1.6531,-1.6728,-1.6906,-1.6005,-1.6024,-1.6219,-1.6148,-1.6246,-1.6436,-1.6763,-1.6977,-1.7183,-1.7509,-1.7618,-1.7756,-1.7972,-1.8508,-1.8865,-1.8871,-1.9119,-1.9455,-1.9839,-2.0135,-2.0485,-2.0886,-2.2151,-2.2929,-2.2992,-2.3762,-2.3988,-2.3474,-2.3292,-2.285,-2.2,-2.194,-2.1722,-2.1389,-2.1083,-2.1148,-2.1518,-2.1953,-2.2434]}]]